[[{"header":{"parameterUnit":"m.s-1","parameterCategory":1,"la1":30.6,"la2":28.766,"lo1":-90.7593,"lo2":-88.6598,"dy":0.0162,"dx":0.0183,"nx":116,"ny":114,"refTime":"2024-05-31T18:00:00:Z","depth":0,"parameterNumber":2,"parameterNumberName":"U-component_of_WINDS"},"data":[0.0,0.0,0.0,0.0,0.0,0.0,0.0,0.0,0.0,0.0,0.0,0.0,0.0,0.0,0.0,0.0,0.0,0.0,0.0,0.0,0.0,0.0,0.0,0.0,0.0,0.0,0.0,0.0,0.0,0.0,0.0,0.0,0.0,0.0,0.0,0.0,0.0,0.0,0.0,0.0,0.0,0.0,0.0,0.0,0.0,0.0,0.0,0.0,0.0,0.0,0.0,0.0,0.0,0.0,0.0,0.0,0.0,0.0,0.0,0.0,0.0,0.0,0.0,0.0,0.0,0.0,0.0,0.0,0.0,0.0,0.0,0.0,0.0,0.0,0.0,0.0,0.0,0.0,0.0,0.0,0.0,0.0,0.0,0.0,0.0,0.0,0.0,0.0,0.0,0.0,0.0,0.0,0.0,0.0,0.0,0.0,0.0,0.0,0.0,0.0,0.0,0.0,0.0,0.0,0.0,0.0,0.0,0.0,0.0,0.0,0.0,0.0,0.0,0.0,0.0,0.0,0.0,0.0,0.0,0.0,0.0,0.0,0.0,0.0,0.0,0.0,0.0,0.0,0.0,0.0,0.0,0.0,0.0,0.0,0.0,0.0,0.0,0.0,0.0,0.0,0.0,0.0,0.0,0.0,0.0,0.0,0.0,0.0,0.0,0.0,0.0,0.0,0.0,0.0,0.0,0.0,0.0,0.0,0.0,0.0,0.0,0.0,0.0,0.0,0.0,0.0,0.0,0.0,0.0,0.0,0.0,0.0,0.0,0.0,0.0,0.0,0.0,0.0,0.0,0.0,0.0,0.0,0.0,0.0,0.0,0.0,0.0,0.0,0.0,0.0,0.0,0.0,0.0,0.0,0.0,0.0,0.0,0.0,0.0,0.0,0.0,0.0,0.0,0.0,0.0,0.0,0.0,0.0,0.0,0.0,0.0,0.0,0.0,0.0,0.0,0.0,0.0,0.0,0.0,0.0,0.0,0.0,0.0,0.0,0.0,0.0,0.0,0.0,0.0,0.0,0.0,0.0,0.0,0.0,0.0,0.0,0.0,0.0,0.0,0.0,0.0,0.0,0.0,0.0,0.0,0.0,0.0,0.0,0.0,0.0,0.0,0.0,0.0,0.0,0.0,0.0,0.0,0.0,0.0,0.0,0.0,0.0,0.0,0.0,0.0,0.0,0.0,0.0,0.0,0.0,0.0,0.0,0.0,0.0,0.0,0.0,0.0,0.0,0.0,0.0,0.0,0.0,0.0,0.0,0.0,0.0,0.0,0.0,0.0,0.0,0.0,0.0,0.0,0.0,0.0,0.0,0.0,0.0,0.0,0.0,0.0,0.0,0.0,0.0,0.0,0.0,0.0,0.0,0.0,0.0,0.0,0.0,0.0,0.0,0.0,0.0,0.0,0.0,0.0,0.0,0.0,0.0,0.0,0.0,0.0,0.0,0.0,0.0,0.0,0.0,0.0,0.0,0.0,0.0,0.0,0.0,0.0,0.0,0.0,0.0,0.0,0.0,0.0,0.0,0.0,0.0,0.0,0.0,0.0,0.0,0.0,0.0,0.0,0.0,0.0,0.0,0.0,0.0,0.0,0.0,0.0,0.0,0.0,0.0,0.0,0.0,0.0,0.0,0.0,0.0,0.0,0.0,0.0,0.0,0.0,0.0,0.0,0.0,0.0,0.0,0.0,0.0,0.0,0.0,0.0,0.0,0.0,0.0,0.0,0.0,0.0,0.0,0.0,0.0,0.0,0.0,0.0,0.0,0.0,0.0,0.0,0.0,0.0,0.0,0.0,0.0,0.0,0.0,0.0,0.0,0.0,0.0,0.0,0.0,0.0,0.0,0.0,0.0,0.0,0.0,0.0,0.0,0.0,0.0,0.0,0.0,0.0,0.0,0.0,0.0,0.0,0.0,0.0,0.0,0.0,0.0,0.0,0.0,0.0,0.0,0.0,0.0,0.0,0.0,0.0,0.0,0.0,0.0,0.0,0.0,0.0,0.0,0.0,0.0,0.0,0.0,0.0,0.0,0.0,0.0,0.0,0.0,0.0,0.0,0.0,0.0,0.0,0.0,0.0,0.0,0.0,0.0,0.0,0.0,0.0,0.0,0.0,0.0,0.0,0.0,0.0,0.0,0.0,0.0,0.0,0.0,0.0,0.0,0.0,0.0,0.0,0.0,0.0,0.0,0.0,0.0,0.0,0.0,0.0,0.0,0.0,0.0,0.0,0.0,0.0,0.0,0.0,0.0,0.0,0.0,0.0,0.0,0.0,0.0,0.0,0.0,0.0,0.0,0.0,0.0,0.0,0.0,0.0,0.0,0.0,0.0,0.0,0.0,0.0,0.0,0.0,0.0,0.0,0.0,0.0,0.0,0.0,0.0,0.0,0.0,0.0,0.0,0.0,0.0,0.0,0.0,0.0,0.0,0.0,0.0,0.0,0.0,0.0,0.0,0.0,0.0,0.0,0.0,0.0,0.0,0.0,0.0,0.0,0.0,0.0,0.0,0.0,0.0,0.0,0.0,0.0,0.0,0.0,0.0,0.0,0.0,0.0,0.0,0.0,0.0,0.0,0.0,0.0,0.0,0.0,0.0,0.0,0.0,0.0,0.0,0.0,0.0,0.0,0.0,0.0,0.0,0.0,0.0,0.0,0.0,0.0,0.0,0.0,0.0,0.0,0.0,0.0,0.0,0.0,0.0,0.0,0.0,0.0,0.0,0.0,0.0,0.0,0.0,0.0,0.0,0.0,0.0,0.0,0.0,0.0,0.0,0.0,0.0,0.0,0.0,0.0,0.0,0.0,0.0,0.0,0.0,0.0,0.0,0.0,0.0,0.0,0.0,0.0,0.0,0.0,0.0,0.0,0.0,0.0,0.0,0.0,0.0,0.0,0.0,0.0,0.0,0.0,0.0,0.0,0.0,0.0,0.0,0.0,0.0,0.0,0.0,0.0,0.0,0.0,0.0,0.0,0.0,0.0,0.0,0.0,0.0,0.0,0.0,0.0,0.0,0.0,0.0,0.0,0.0,0.0,0.0,0.0,0.0,0.0,0.0,0.0,0.0,0.0,0.0,0.0,0.0,0.0,0.0,0.0,0.0,0.0,0.0,0.0,0.0,0.0,0.0,0.0,0.0,0.0,0.0,0.0,0.0,0.0,0.0,0.0,0.0,0.0,0.0,0.0,0.0,0.0,0.0,0.0,0.0,0.0,0.0,0.0,0.0,0.0,0.0,0.0,0.0,0.0,0.0,0.0,0.0,0.0,0.0,0.0,0.0,0.0,0.0,0.0,0.0,0.0,0.0,0.0,0.0,0.0,0.0,0.0,0.0,0.0,0.0,0.0,0.0,0.0,0.0,0.0,0.0,0.0,0.0,0.0,0.0,0.0,0.0,0.0,0.0,0.0,0.0,0.0,0.0,0.0,0.0,0.0,0.0,0.0,0.0,0.0,0.0,0.0,0.0,0.0,0.0,0.0,0.0,0.0,0.0,0.0,0.0,0.0,0.0,0.0,0.0,0.0,0.0,0.0,0.0,0.0,0.0,0.0,0.0,0.0,0.0,0.0,0.0,0.0,0.0,0.0,0.0,0.0,0.0,0.0,0.0,0.0,0.0,0.0,0.0,0.0,0.0,0.0,0.0,0.0,0.0,0.0,0.0,0.0,0.0,0.0,0.0,0.0,0.0,0.0,0.0,0.0,0.0,0.0,0.0,0.0,0.0,0.0,0.0,0.0,0.0,0.0,0.0,0.0,0.0,0.0,0.0,0.0,0.0,0.0,0.0,0.0,0.0,0.0,0.0,0.0,0.0,0.0,0.0,0.0,0.0,0.0,0.0,0.0,0.0,0.0,0.0,0.0,0.0,0.0,0.0,0.0,0.0,0.0,0.0,0.0,0.0,0.0,0.0,0.0,0.0,0.0,0.0,0.0,0.0,0.0,0.0,0.0,0.0,0.0,0.0,0.0,0.0,0.0,0.0,0.0,0.0,0.0,0.0,0.0,0.0,0.0,0.0,0.0,0.0,0.0,0.0,0.0,0.0,0.0,0.0,0.0,0.0,0.0,0.0,0.0,0.0,0.0,0.0,0.0,0.0,0.0,0.0,0.0,0.0,0.0,0.0,0.0,0.0,0.0,0.0,0.0,0.0,0.0,0.0,0.0,0.0,0.0,0.0,0.0,0.0,0.0,0.0,0.0,0.0,0.0,0.0,0.0,0.0,0.0,0.0,0.0,0.0,0.0,0.0,0.0,0.0,0.0,0.0,0.0,0.0,0.0,0.0,0.0,0.0,0.0,0.0,0.0,0.0,0.0,0.0,0.0,0.0,0.0,0.0,0.0,0.0,0.0,0.0,0.0,0.0,0.0,0.0,0.0,0.0,0.0,0.0,0.0,0.0,0.0,0.0,0.0,0.0,0.0,0.0,0.0,0.0,0.0,0.0,0.0,0.0,0.0,0.0,0.0,0.0,0.0,0.0,0.0,0.0,0.0,0.0,0.0,0.0,0.0,0.0,0.0,0.0,0.0,0.0,0.0,0.0,0.0,0.0,0.0,0.0,0.0,0.0,0.0,0.0,0.0,0.0,0.0,0.0,0.0,0.0,0.0,0.0,0.0,0.0,0.0,0.0,0.0,0.0,0.0,0.0,0.0,0.0,0.0,0.0,0.0,0.0,0.0,0.0,0.0,0.0,0.0,0.0,0.0,0.0,0.0,0.0,0.0,0.0,0.0,0.0,0.0,0.0,0.0,0.0,0.0,0.0,0.0,0.0,0.0,0.0,0.0,0.0,0.0,0.0,0.0,0.0,0.0,0.0,0.0,0.0,0.0,0.0,0.0,0.0,0.0,0.0,0.0,0.0,0.0,0.0,0.0,0.0,0.0,0.0,0.0,0.0,0.0,0.0,0.0,0.0,0.0,0.0,0.0,0.0,0.0,0.0,0.0,0.0,0.0,0.0,0.0,0.0,0.0,0.0,0.0,0.0,0.0,0.0,0.0,0.0,0.0,0.0,0.0,0.0,0.0,0.0,0.0,0.0,0.0,0.0,0.0,0.0,0.0,0.0,0.0,0.0,0.0,0.0,0.0,0.0,0.0,0.0,0.0,0.0,0.0,0.0,0.0,0.0,0.0,0.0,0.0,0.0,0.0,0.0,0.0,0.0,0.0,0.0,0.0,0.0,0.0,0.0,0.0,0.0,0.0,0.0,0.0,0.0,0.0,0.0,0.0,0.0,0.0,0.0,0.0,0.0,0.0,0.0,0.0,0.0,0.0,0.0,0.0,0.0,0.0,0.0,0.0,0.0,0.0,0.0,0.0,0.0,0.0,0.0,0.0,0.0,0.0,0.0,0.0,0.0,0.0,0.0,0.0,0.0,0.0,0.0,0.0,0.0,0.0,0.0,0.0,0.0,0.0,0.0,0.0,0.0,0.0,0.0,0.0,0.0,0.0,0.0,0.0,0.0,0.0,0.0,0.0,0.0,0.0,0.0,0.0,0.0,0.0,0.0,0.0,0.0,0.0,0.0,0.0,0.0,0.0,0.0,0.0,0.0,0.0,0.0,0.0,0.0,0.0,0.0,0.0,0.0,0.0,0.0,0.0,0.0,0.0,0.0,0.0,0.0,0.0,0.0,0.0,0.0,0.0,0.0,0.0,0.0,0.0,0.0,0.0,0.0,0.0,0.0,0.0,0.0,0.0,0.0,0.0,0.0,0.0,0.0,0.0,0.0,0.0,0.0,0.0,0.0,0.0,0.0,0.0,0.0,0.0,0.0,0.0,0.0,0.0,0.0,0.0,0.0,0.0,0.0,0.0,0.0,0.0,0.0,0.0,0.0,0.0,0.0,0.0,0.0,0.0,0.0,0.0,0.0,0.0,0.0,0.0,0.0,0.0,0.0,0.0,0.0,0.0,0.0,0.0,0.0,0.0,0.0,0.0,0.0,0.0,0.0,0.0,0.0,0.0,0.0,0.0,0.0,0.0,0.0,0.0,0.0,0.0,0.0,0.0,0.0,0.0,0.0,0.0,0.0,0.0,0.0,0.0,0.0,0.0,0.0,0.0,0.0,0.0,0.0,0.0,0.0,0.0,0.0,0.0,0.0,0.0,0.0,0.0,0.0,-3.4894,0.0,0.0,0.0,0.0,0.0,0.0,0.0,0.0,0.0,0.0,0.0,0.0,0.0,0.0,0.0,0.0,0.0,0.0,0.0,0.0,0.0,0.0,0.0,0.0,-2.2867,-2.3332,-2.3508,-2.3951,-2.4313,-2.4502,0.0,0.0,0.0,0.0,0.0,-2.4904,-2.5165,-2.5712,-2.6544,-2.6544,-2.7431,-2.9137,-2.8251,-2.7272,-2.6224,0.0,0.0,0.0,0.0,0.0,0.0,0.0,0.0,0.0,0.0,0.0,0.0,0.0,0.0,0.0,0.0,0.0,0.0,0.0,0.0,0.0,0.0,0.0,0.0,0.0,0.0,0.0,0.0,0.0,0.0,0.0,0.0,0.0,0.0,0.0,0.0,0.0,0.0,0.0,0.0,0.0,0.0,0.0,0.0,0.0,0.0,0.0,0.0,0.0,0.0,0.0,0.0,0.0,0.0,0.0,0.0,0.0,0.0,0.0,0.0,0.0,0.0,0.0,0.0,0.0,0.0,0.0,0.0,0.0,0.0,0.0,-3.6395,0.0,0.0,0.0,0.0,0.0,0.0,0.0,0.0,0.0,0.0,0.0,0.0,0.0,0.0,0.0,0.0,0.0,0.0,0.0,0.0,0.0,-2.0792,-2.2313,-2.3274,-2.4,-2.4481,-2.4771,-2.5028,-2.5301,-2.4757,0.0,0.0,0.0,-2.4782,-2.4828,-2.5249,-2.6268,-2.7895,-2.8492,-2.9946,-3.2211,-3.1642,-3.023,-2.818,-2.7797,0.0,0.0,0.0,0.0,0.0,0.0,0.0,0.0,0.0,0.0,0.0,0.0,0.0,0.0,0.0,0.0,0.0,0.0,0.0,0.0,0.0,0.0,0.0,0.0,0.0,0.0,0.0,0.0,0.0,0.0,0.0,0.0,0.0,0.0,0.0,0.0,0.0,0.0,0.0,0.0,0.0,0.0,0.0,0.0,0.0,0.0,0.0,0.0,0.0,0.0,0.0,0.0,0.0,0.0,0.0,0.0,0.0,0.0,0.0,0.0,0.0,0.0,0.0,0.0,0.0,-4.4323,-4.4176,-4.4121,-4.392,-4.0467,-3.9494,-4.0102,0.0,0.0,0.0,0.0,0.0,0.0,0.0,0.0,0.0,0.0,0.0,0.0,0.0,0.0,0.0,0.0,0.0,0.0,0.0,0.0,-2.1613,-2.3088,-2.3369,-2.3893,-2.4924,-2.5249,-2.5283,-2.4982,-2.5132,0.0,-2.4481,-2.4512,-2.4682,-2.4968,-2.5761,-2.6749,-2.7895,-3.0814,-3.2807,-3.3904,-3.4602,-3.4351,-3.3229,-3.1086,-3.0507,-3.1024,0.0,0.0,0.0,0.0,0.0,0.0,0.0,0.0,0.0,0.0,0.0,0.0,0.0,0.0,0.0,0.0,0.0,0.0,0.0,0.0,0.0,0.0,0.0,0.0,0.0,0.0,0.0,0.0,0.0,0.0,0.0,0.0,0.0,0.0,0.0,0.0,0.0,0.0,0.0,0.0,0.0,-3.4769,-3.5524,0.0,0.0,0.0,0.0,0.0,0.0,0.0,0.0,0.0,0.0,0.0,0.0,0.0,0.0,-4.5094,-4.6489,-4.7297,-4.7517,-4.8269,-4.8288,-4.7645,-4.6929,-4.6636,-4.6562,-4.5333,0.0,-4.1901,-4.0747,0.0,0.0,0.0,0.0,0.0,0.0,0.0,0.0,0.0,0.0,0.0,0.0,0.0,0.0,0.0,0.0,0.0,0.0,0.0,0.0,0.0,-2.4881,-2.6006,-2.6316,-2.7821,-2.8205,-2.6903,-2.6767,-2.6234,-2.506,-2.4796,-2.4941,-2.5541,-2.6638,-2.8583,-3.1435,-3.4353,-3.6199,-3.7053,-3.698,-3.7006,-3.7038,-3.5454,-3.3727,-3.1888,-3.0283,0.0,0.0,0.0,0.0,0.0,0.0,0.0,0.0,0.0,0.0,0.0,0.0,0.0,0.0,0.0,0.0,0.0,0.0,0.0,0.0,0.0,0.0,0.0,0.0,0.0,0.0,0.0,0.0,0.0,0.0,0.0,0.0,0.0,0.0,0.0,0.0,0.0,0.0,0.0,-3.4507,-3.7163,-3.786,-3.8159,-3.8009,0.0,0.0,0.0,0.0,0.0,0.0,0.0,0.0,0.0,-4.3754,-4.4929,-4.6305,-4.7902,-4.8655,-4.926,-4.9719,-5.0086,-5.0068,-4.9701,-4.9352,-4.893,-4.8489,-4.8122,-4.6838,-4.4819,-4.2671,-4.1148,-3.9992,0.0,0.0,0.0,0.0,0.0,0.0,0.0,0.0,0.0,0.0,0.0,0.0,0.0,0.0,0.0,0.0,0.0,0.0,-2.3866,-2.6252,-2.7879,-2.8121,-3.0088,-3.0625,-2.9026,-2.8221,-2.7174,-2.5778,-2.5018,-2.5076,-2.5974,-2.809,-3.1147,-3.5167,-3.7296,-3.8777,-3.9592,-3.8931,-3.8988,-3.9573,-3.8931,-3.6895,-3.3834,-3.2309,-3.0615,-2.8809,0.0,0.0,0.0,0.0,0.0,0.0,0.0,0.0,0.0,0.0,0.0,0.0,0.0,0.0,0.0,0.0,0.0,0.0,0.0,0.0,0.0,0.0,0.0,0.0,0.0,0.0,0.0,0.0,0.0,0.0,0.0,0.0,0.0,0.0,0.0,0.0,0.0,-3.693,-3.9462,-4.0362,-4.1079,-4.115,0.0,0.0,0.0,0.0,0.0,0.0,-4.2746,-4.4228,-4.559,-4.6783,-4.7829,-4.893,-5.0123,-5.038,-5.082,-5.1408,-5.1408,-5.1408,-5.1408,-5.1206,-5.0784,-5.0198,-4.9776,-4.8875,-4.7535,-4.469,-4.3296,-4.2691,-4.0559,-3.9048,0.0,-3.8531,-3.7724,-3.6732,0.0,0.0,0.0,0.0,0.0,0.0,0.0,0.0,0.0,0.0,0.0,-2.3883,-2.5338,-2.6877,-2.8508,-3.0283,-3.0968,-3.1104,-3.0611,-2.8834,-2.742,-2.6576,-2.5064,-2.4799,-2.5967,-3.0361,-3.4334,-3.7815,-3.8757,-3.965,-4.0439,-4.04,-4.04,-4.0439,-4.04,-3.9946,-3.8999,-3.5635,-3.4259,-3.3887,-2.8926,0.0,0.0,0.0,0.0,0.0,0.0,0.0,0.0,0.0,0.0,0.0,0.0,0.0,0.0,0.0,0.0,0.0,0.0,0.0,0.0,0.0,0.0,0.0,0.0,0.0,0.0,0.0,0.0,0.0,0.0,0.0,0.0,0.0,0.0,0.0,0.0,0.0,0.0,-4.3476,-4.3949,0.0,0.0,0.0,0.0,-4.3684,-4.5186,-4.6436,-4.7237,-4.8569,-4.9298,-4.9315,-5.0894,-5.1775,-5.1867,-5.2637,-5.3038,-5.3096,-5.3096,-5.3096,-5.3059,-5.2289,-5.1903,-5.1775,-5.0271,-4.9555,-4.9353,-4.759,-4.5957,-4.4435,-4.3048,-4.1681,-4.0459,-3.9834,-3.9294,-3.8937,0.0,0.0,0.0,0.0,0.0,-1.7667,-1.9515,-1.9905,-2.0481,-2.1874,-2.3658,-2.5203,-2.6201,-2.8924,-3.098,-3.1628,-3.3278,-3.3562,-3.189,-3.0251,-2.9219,-2.8925,-2.7007,-2.752,-3.0942,-3.3851,-3.6488,-3.8834,-3.9669,-4.0516,-4.1335,-4.1335,-4.1643,-4.217,-4.2218,-4.1842,-4.1031,-3.8136,-3.6051,-3.4453,-3.1523,-2.9141,0.0,0.0,0.0,0.0,0.0,0.0,0.0,0.0,0.0,0.0,0.0,0.0,0.0,0.0,0.0,0.0,0.0,0.0,0.0,0.0,0.0,0.0,0.0,0.0,0.0,0.0,0.0,0.0,0.0,0.0,0.0,0.0,0.0,0.0,0.0,0.0,0.0,-4.4972,-4.679,0.0,-4.712,-4.694,-4.6965,-4.7134,-4.7956,-4.8587,-4.8864,-5.0809,-5.1903,-5.1885,-5.3463,-5.4308,-5.4308,-5.4087,-5.3977,-5.3977,-5.3463,-5.3185,-5.3185,-5.2913,-5.2491,-5.1958,-5.1391,-5.0547,-4.9481,-4.893,-4.7737,-4.6122,-4.4714,-4.3647,-4.2754,-4.1644,-4.0906,-4.0392,0.0,0.0,0.0,0.0,-1.7339,-1.7681,-1.9608,-2.0004,-2.0605,-2.2046,-2.4092,-2.5933,-2.7317,-3.0364,-3.2496,-3.3004,-3.4561,-3.4853,-3.3282,-3.1572,-3.0485,-3.021,-2.8884,-3.003,-3.4058,-3.6004,-3.7874,-3.9708,-4.0246,-4.0804,-4.1354,-4.1354,-4.1662,-4.2228,-4.2276,-4.2216,-4.1964,-3.9972,-3.7925,-3.584,-3.3848,-3.2012,-3.0215,0.0,0.0,0.0,0.0,0.0,0.0,0.0,0.0,0.0,0.0,0.0,0.0,0.0,0.0,0.0,0.0,0.0,0.0,0.0,0.0,0.0,0.0,0.0,0.0,0.0,0.0,0.0,0.0,0.0,0.0,0.0,0.0,0.0,0.0,0.0,-4.6095,-4.6675,-4.8824,-5.0199,-5.0065,-4.9738,-4.9768,-5.0306,-5.0631,-5.0912,-5.1208,-5.2986,-5.4014,-5.4014,-5.5042,-5.5614,-5.5614,-5.506,-5.4675,-5.4399,-5.3867,-5.3463,-5.3185,-5.3185,-5.2913,-5.238,-5.2105,-5.1206,-4.9921,-4.9702,-4.8765,-4.7368,-4.5985,-4.5065,-4.4345,-4.2997,-4.1959,-4.1085,0.0,0.0,0.0,-1.7474,-1.7713,-1.8147,-1.9516,-2.0054,-2.0751,-2.1952,-2.3833,-2.6079,-2.8753,-3.099,-3.2886,-3.4353,-3.461,-3.4659,-3.4659,-3.2622,-3.1054,-3.032,-3.062,-3.209,-3.485,-3.6672,-3.8567,-4.0535,-4.0573,-4.0593,-4.0612,-4.0612,-4.0631,-4.0669,-4.0658,-4.1235,-4.2132,-4.1272,-4.0077,-3.8496,-3.5879,-3.4785,-3.4375,0.0,0.0,0.0,0.0,0.0,0.0,0.0,0.0,0.0,0.0,0.0,0.0,0.0,0.0,0.0,0.0,0.0,0.0,0.0,0.0,0.0,0.0,0.0,0.0,0.0,0.0,0.0,0.0,0.0,0.0,0.0,0.0,0.0,-4.2605,-4.4871,-4.712,-4.8669,-5.0082,-5.1056,-5.1379,-5.1133,-5.161,-5.317,-5.328,-5.3628,-5.4399,-5.5188,-5.5629,-5.5629,-5.5669,-5.5666,-5.5666,-5.5669,-5.5225,-5.4436,-5.4418,-5.3977,-5.3185,-5.3185,-5.3185,-5.317,-5.238,-5.1573,-5.0784,-4.9978,-4.9132,-4.8193,-4.6839,-4.591,-4.5168,-4.3805,-4.2413,-4.1102,0.0,0.0,-1.6203,-1.7474,-1.7713,-1.8248,-1.989,-2.0532,-2.1214,-2.2377,-2.4697,-2.7146,-2.9531,-3.1312,-3.2886,-3.4353,-3.414,-3.3899,-3.3899,-3.2328,-3.1549,-3.1922,-3.4101,-3.5961,-3.7379,-3.8897,-4.026,-4.145,-4.2085,-4.2681,-4.3258,-4.3258,-4.3594,-4.4198,-4.4298,-4.4199,-4.3973,-4.3773,-4.2786,-4.1133,-3.8555,-3.6777,-3.5469,0.0,0.0,0.0,0.0,0.0,0.0,0.0,0.0,0.0,0.0,0.0,0.0,0.0,0.0,0.0,0.0,0.0,0.0,0.0,0.0,0.0,0.0,0.0,0.0,0.0,0.0,0.0,0.0,0.0,0.0,0.0,0.0,-4.409,-4.4739,-4.778,-5.0036,-5.0225,-5.2382,-5.3788,-5.3562,-5.3989,-5.4454,-5.4913,-5.4932,-5.5042,-5.5244,-5.6033,-5.6473,-5.6473,-5.7042,-5.7336,-5.7336,-5.6767,-5.6069,-5.5244,-5.4675,-5.3977,-5.3185,-5.3185,-5.3185,-5.3206,-5.2968,-5.2417,-5.161,-5.0802,-4.9976,-4.9053,-4.7132,-4.6252,-4.5864,-4.4044,-4.2445,-4.117,0.0,-1.6189,-1.6593,-1.7893,-1.8117,-1.8614,-2.0091,-2.0533,-2.131,-2.298,-2.5096,-2.7379,-2.9835,-3.141,-3.2649,-3.3512,-3.3603,-3.3333,-3.268,-3.218,-3.2724,-3.4578,-3.6339,-3.7946,-3.9415,-4.0582,-4.156,-4.2335,-4.2854,-4.3335,-4.3797,-4.3797,-4.4066,-4.4564,-4.4657,-4.4705,-4.4681,-4.4404,-4.3989,-4.3301,-4.1074,-3.9375,-3.8008,-3.6406,-3.541,-3.4746,-3.3633,-3.3242,-3.3184,-3.2832,0.0,0.0,0.0,0.0,0.0,0.0,0.0,0.0,0.0,0.0,0.0,0.0,0.0,0.0,0.0,0.0,0.0,0.0,0.0,0.0,0.0,0.0,0.0,0.0,-4.486,-4.6701,-4.7885,-4.9812,-5.1185,-5.1489,-5.3431,-5.4794,-5.4902,-5.5317,-5.5739,-5.6069,-5.6106,-5.6106,-5.6106,-5.6877,-5.7299,-5.7299,-5.7758,-5.7997,-5.7997,-5.7538,-5.6895,-5.6088,-5.528,-5.4473,-5.3702,-5.3353,-5.3185,0.0,-5.3185,-5.2747,-5.194,-5.1132,-5.0325,0.0,0.0,0.0,0.0,0.0,-4.2851,-4.2033,0.0,-1.6801,-1.7219,-1.8493,-1.8702,-1.9067,-2.0153,-2.0348,-2.1238,-2.3589,-2.5143,-2.7047,-2.9698,-3.114,-3.2009,-3.2238,-3.2909,-3.2889,-3.1797,-3.2631,-3.4486,-3.7511,-3.7849,-3.8939,-4.1,-4.1874,-4.2596,-4.3239,-4.3335,-4.3374,-4.3374,-4.3374,-4.3374,-4.3382,-4.3438,-4.3982,-4.4787,-4.4145,-4.4298,-4.4863,-4.332,-4.2148,-4.1074,-3.8652,-3.8164,-3.8437,-3.6113,-3.5293,-3.5176,-3.4394,0.0,0.0,0.0,0.0,0.0,0.0,0.0,0.0,0.0,0.0,0.0,0.0,0.0,0.0,0.0,0.0,0.0,0.0,0.0,0.0,0.0,0.0,0.0,0.0,-4.7943,-4.9683,-5.1175,-5.1207,-5.1477,-5.2587,-5.3789,-5.484,-5.5647,-5.5835,-5.6161,-5.6877,-5.695,-5.695,-5.695,0.0,0.0,0.0,0.0,-5.7997,-5.7997,-5.7997,-5.7593,-5.6804,-5.5978,-5.517,-5.4363,-5.3573,-5.3185,-5.3185,-5.3185,-5.2803,-5.2068,-5.1169,-5.0231,-4.9273,-4.8407,-4.7324,-4.5975,-4.4185,-4.3477,0.0,0.0,-1.7503,-1.7773,-1.8568,-1.8702,-1.9067,-2.0153,-2.0616,-2.1601,-2.3622,-2.4946,-2.659,-2.8958,-2.9467,-3.0243,-3.1763,-3.1845,-3.2519,-3.4182,-3.5717,-3.7144,-3.8414,-3.9982,-4.1133,-4.1863,-4.2925,-4.3663,-4.4066,-4.4759,-4.5114,-4.5114,-4.5114,-4.5114,-4.5114,-4.5137,-4.5337,-4.565,-4.5515,-4.528,-4.4961,-4.4629,-4.3555,-4.2031,-4.0898,-4.0117,-3.957,-3.9082,-3.8887,-3.8867,-3.8691,-3.8184,-3.7578,-3.7402,-3.5312,0.0,0.0,0.0,0.0,0.0,0.0,0.0,0.0,0.0,0.0,0.0,0.0,0.0,0.0,0.0,0.0,0.0,0.0,0.0,-4.7124,-4.9305,-5.1083,-5.1775,-5.2369,-5.3044,-5.3921,-5.4813,-5.5666,-5.6492,-5.7152,-5.7593,-5.7758,-5.7776,-5.7776,-5.7776,-5.7923,0.0,-5.7997,-5.7997,-5.7997,-5.7997,-5.7997,-5.7593,-5.6804,0.0,0.0,-5.4363,-5.3573,-5.3185,-5.3185,-5.3185,-5.3115,-5.2858,-5.1408,-4.9624,-4.7747,-4.7053,-4.6014,-4.4917,-4.4495,-4.3961,-4.3257,-1.8625,-1.8433,-1.8401,-1.9076,-1.9196,-1.9531,-2.0503,-2.0845,-2.1649,-2.343,-2.4468,-2.5609,-2.7131,-2.7777,-2.8322,-2.89,-2.9536,-3.1351,-3.4779,-3.6193,-3.779,-3.9811,-4.139,-4.2562,-4.3335,-4.4064,-4.4622,-4.496,-4.5383,-4.5594,-4.5594,-4.5594,-4.5594,-4.5594,-4.5673,-4.5777,-4.5903,-4.5978,-4.5861,-4.5605,-4.5176,-4.4219,-4.2969,-4.2129,-4.1289,-4.0547,-4.0547,-4.0547,-4.0547,-4.0547,-4.0254,-3.9824,-3.9394,-3.7754,-3.582,0.0,0.0,0.0,0.0,0.0,0.0,0.0,0.0,0.0,0.0,0.0,0.0,0.0,0.0,-4.4158,0.0,0.0,-4.8871,-5.0177,-5.11,-5.1871,-5.2514,-5.2949,-5.35,-5.4308,-5.5097,-5.5904,-5.673,-5.7538,-5.7997,-5.7997,-5.7997,-5.7997,-5.7997,-5.7997,-5.7997,-5.7997,-5.7997,-5.7997,-5.7997,-5.7997,-5.7795,-5.7391,-5.618,-5.5372,-5.495,-5.3757,-5.3185,-5.3185,-5.3185,-5.3185,-5.3036,-5.1098,-4.8956,-4.6842,-4.6192,-4.5571,-4.5025,-4.472,-4.4361,-4.3842,-1.9585,-1.9273,-1.9096,-1.971,-1.9818,-2.0104,-2.0975,-2.1134,-2.1676,-2.3203,-2.3915,-2.4575,-2.5304,-2.6215,-2.6716,-2.6551,-2.8036,-3.0701,-3.4752,-3.6119,-3.8065,-4.0967,-4.235,-4.3531,-4.458,-4.4931,-4.5253,-4.5594,-4.5594,-4.5594,-4.5594,-4.5594,-4.5594,-4.5603,-4.5715,-4.5808,-4.5891,-4.6018,-4.6144,-4.6209,-4.5527,-4.4629,-4.3613,-4.293,-4.2051,-4.1191,-4.1191,-4.1094,-4.0976,-4.1133,-4.1094,-4.0859,-4.0312,-3.9551,-3.8574,-3.7168,-3.6016,0.0,0.0,0.0,0.0,0.0,0.0,0.0,0.0,-4.0642,-4.2035,-4.3932,-4.6086,-4.8068,-4.9499,-5.0672,-5.1838,-5.3115,-5.2976,-5.2858,-5.3371,-5.3424,-5.3683,-5.4326,-5.5097,-5.5904,-5.673,-5.7538,-5.7997,-5.7997,-5.7997,-5.7997,-5.7997,-5.7997,-5.7997,-5.7997,-5.7997,-5.7997,-5.7997,-5.7997,-5.7997,-5.7978,-5.6363,-5.5614,-5.5559,-5.394,-5.3185,-5.3185,-5.3185,-5.3023,-5.2595,-5.0617,-4.846,-4.6336,-4.5732,-4.5433,-4.5284,-4.4786,-4.4513,-4.4164,0.0,-1.9648,-1.9728,-2.016,-2.0229,-2.0533,-2.1399,-2.1521,-2.1983,-2.3232,-2.346,-2.3814,-2.4541,-2.5011,-2.6037,-2.7968,-2.9932,-3.2172,-3.4839,-3.7151,-3.9239,-4.1022,-4.2891,-4.4096,-4.458,-4.4931,-4.5253,-4.5594,-4.5594,-4.5594,-4.5594,-4.5594,-4.5594,-4.5594,-4.562,-4.5692,-4.5821,-4.5886,-4.5995,-4.6122,-4.6149,-4.5176,-4.3691,-4.3594,-4.2578,-4.1191,-4.1191,-4.0703,-4.0156,-4.0937,-4.0684,-4.0156,-4.084,-4.0469,-3.9726,-3.9512,-3.8301,-3.7128,-3.7681,-3.8405,-3.9167,-3.988,-4.0739,-4.2173,0.0,-4.5451,-4.5729,-4.8182,-4.9529,-5.044,-5.0994,-5.2675,-5.3929,-5.3755,-5.4558,-5.4968,-5.4344,-5.4271,-5.4308,-5.4399,-5.5097,-5.5904,-5.673,-5.7538,-5.7997,-5.7997,-5.7997,-5.7997,-5.7997,-5.7997,-5.7997,-5.7997,-5.7997,-5.7997,-5.7997,-5.7997,-5.7997,-5.7978,-5.6363,-5.5614,-5.5559,-5.394,-5.3185,-5.3185,-5.3185,-5.2399,-5.1,-5.0163,-4.846,-4.6336,-4.5732,-4.5152,-4.4692,-4.4626,-4.4147,-4.3436,0.0,-1.9708,-1.9836,-2.0229,-2.0297,-2.0501,-2.1149,-2.1445,-2.1879,-2.2659,-2.2767,-2.2885,-2.319,-2.3659,-2.488,-2.7143,-2.8972,-3.1237,-3.4105,-3.6615,-3.8927,-4.1003,-4.269,-4.3907,-4.4593,-4.5118,-4.5448,-4.5594,-4.5594,-4.5594,-4.5594,-4.5594,-4.5594,-4.5594,-4.5594,-4.568,-4.5803,-4.5832,-4.5946,-4.6091,-4.615,-4.519,-4.3691,-4.3691,-4.2344,-4.0449,-4.0449,-4.0215,0.0,-3.9746,-3.9434,-3.9219,-3.957,-3.9082,-3.8496,-3.8984,-3.8984,-3.9294,-4.1463,-4.1435,-4.1239,-4.3014,-4.4124,-4.5135,-4.6558,-4.7375,-4.8259,-4.9817,-5.1221,-5.2274,-5.2691,-5.3703,-5.4472,0.0,-5.472,-5.4785,-5.4454,-5.4399,-5.4234,-5.3775,-5.4418,-5.539,-5.6693,-5.7097,-5.7501,-5.796,-5.7997,-5.7997,-5.7997,-5.7997,-5.7997,-5.7997,-5.7997,-5.7997,-5.7997,-5.7997,-5.7997,-5.7978,-5.6363,-5.5614,-5.5559,-5.394,-5.3185,-5.3185,-5.3185,-5.2307,-5.0723,-4.9699,-4.8135,-4.6312,-4.5346,-4.4814,-4.4615,-4.4615,-4.4395,-4.3927,0.0,-1.9708,-1.98,-2.0072,-2.0331,-2.0649,-2.1102,-2.1522,-2.1913,-2.2268,-2.2296,-2.2363,-2.2535,-2.2945,-2.4127,-2.6394,-2.7868,-3.0032,-3.3256,-3.5789,-3.8138,-4.0325,-4.2282,-4.3605,-4.4234,-4.5129,-4.5594,-4.5594,-4.5594,-4.5594,-4.5594,-4.5594,-4.5594,-4.5594,-4.5594,-4.564,-4.5747,-4.5776,-4.5875,-4.5995,-4.5821,-4.4919,-4.361,-4.3183,-4.1562,-3.9531,-3.9531,-3.9238,-3.873,-3.8105,-3.7871,-3.793,-3.8164,-3.7969,-3.7871,-3.8984,-4.0056,-4.1319,-4.3385,-4.3421,-4.3297,-4.5152,-4.6605,-4.7586,-4.7586,-4.8702,-4.999,-5.0856,-5.201,-5.2974,-5.3398,-5.4025,-5.4585,-5.4932,-5.5034,-5.4987,-5.4748,-5.473,-5.4344,-5.3314,-5.372,-5.462,-5.6014,-5.6547,-5.7134,-5.7941,-5.7997,-5.7997,-5.7997,-5.7997,-5.7997,-5.7997,-5.7997,-5.7997,-5.7997,-5.7997,-5.7997,-5.7978,-5.6363,-5.5614,-5.5559,-5.394,-5.3185,-5.3185,-5.3185,-5.2307,-5.0703,-4.9446,-4.7919,-4.6288,-4.5062,-4.4615,-4.4615,-4.4615,-4.4479,-4.4096,0.0,0.0,-1.9693,-1.9726,-2.043,-2.1118,-2.1521,-2.1988,-2.2282,-2.2296,-2.2296,-2.2521,-2.3111,-2.3177,-2.4127,-2.6394,-2.7365,-2.92,-3.2417,-3.4963,-3.7074,-3.8707,-4.1678,-4.3303,-4.3341,-4.4823,-4.5594,-4.5594,-4.5594,-4.5594,-4.5594,-4.5594,-4.5594,-4.5594,-4.5594,-4.5594,-4.562,-4.5747,-4.5809,-4.5744,-4.5092,-4.4331,-4.3439,-4.1872,-4.0176,-3.8633,-3.8633,-3.7559,-3.6113,-3.6094,-3.6074,-3.623,-3.707,-3.7891,-3.8906,-4.0625,-4.2151,-4.3119,-4.2299,-4.3743,-4.5498,-4.5575,-4.7471,-4.9317,-4.9317,-5.001,-5.0894,-5.1692,-5.1904,-5.2082,-5.2544,-5.3608,-5.4533,-5.4932,-5.5955,-5.6455,-5.5666,-5.5556,-5.4968,-5.339,-5.3203,-5.3573,0.0,-5.5886,-5.7134,-5.7941,-5.7997,-5.7997,-5.7997,-5.7997,-5.7997,-5.7997,-5.7997,-5.7997,-5.7997,-5.7997,-5.7997,-5.7978,-5.6363,-5.5614,-5.5559,-5.394,-5.3185,-5.3185,-5.3185,-5.2307,-5.0703,-4.9446,-4.7919,-4.6288,-4.5062,-4.4615,-4.4615,-4.4615,-4.4096,-4.3426,0.0,0.0,0.0,-1.9708,-2.043,-2.1039,-2.1181,-2.1842,-2.2296,-2.2296,-2.2296,0.0,0.0,0.0,0.0,0.0,-2.7027,-2.8705,-3.087,-3.3293,-3.5385,-3.7037,-3.9538,-4.1156,-4.1692,-4.3159,-4.3932,-4.3932,-4.3932,-4.3932,-4.3951,-4.4489,-4.4739,-4.4759,-4.5344,-4.5594,-4.5575,-4.5035,-4.5182,-4.5686,-4.4396,-4.3763,-4.3476,-4.2419,-4.0215,-3.7656,0.0,-3.6133,-3.5059,-3.4473,-3.4277,-3.4434,-3.5293,-3.5371,-3.582,-3.9316,-4.1794,-4.3698,-4.5084,-4.5942,-4.674,-4.7836,-4.8759,-4.9548,-5.0125,-5.05,-5.0789,-5.1048,-5.1106,-5.1064,-5.0904,-5.2156,-5.3418,-5.4037,-5.5407,-5.6406,-5.6389,-5.64,-5.5794,-5.4197,-5.4014,0.0,0.0,0.0,0.0,-5.7097,-5.7207,-5.7446,-5.796,-5.7997,-5.7997,-5.7997,-5.7997,-5.7997,-5.7997,-5.7997,-5.7997,-5.7978,-5.6363,-5.5042,-5.3995,-5.3463,-5.3185,-5.3185,-5.3185,-5.2023,-5.0069,-4.9246,-4.7692,-4.5707,-4.4906,-4.4615,-4.4615,-4.4615,-4.4079,-4.3325,0.0,0.0,0.0,0.0,0.0,0.0,0.0,0.0,0.0,0.0,0.0,0.0,0.0,0.0,0.0,0.0,0.0,-2.775,-2.9659,-3.1494,-3.3385,-3.5312,-3.7225,-3.8648,-3.9509,-4.0587,-4.147,-4.2162,-4.2162,-4.2489,-4.3104,-4.3624,-4.3874,-4.3893,-4.4451,-4.471,-4.4671,-4.4105,-4.4245,-4.4696,-4.3075,-4.2498,-4.2446,-4.1078,-3.9002,0.0,-3.5859,-3.498,-3.4062,-3.2891,-3.2891,-3.3555,-3.4434,-3.5586,-3.7089,-3.9516,-4.2145,-4.4642,-4.6205,-4.6974,-4.7663,-4.9048,-4.9625,-5.001,-5.0577,-5.0462,-5.025,-5.025,-4.999,-4.9633,-4.9201,-5.0158,-5.1471,-5.285,-5.4354,-5.5653,-5.647,-5.6854,-5.6495,-5.5008,-5.4821,-5.4821,0.0,0.0,0.0,-5.6712,-5.7079,-5.7446,-5.796,-5.7997,-5.7997,-5.7997,-5.7997,-5.7997,-5.7997,-5.7997,-5.7703,-5.7116,-5.6088,-5.4748,-5.3185,-5.3185,-5.3185,-5.3167,-5.2913,-5.1645,-4.9731,-4.8847,-4.7297,-4.5433,-4.4841,-4.4615,-4.4581,-4.4265,-4.3842,-4.3325,0.0,0.0,0.0,0.0,0.0,0.0,0.0,0.0,0.0,0.0,0.0,0.0,0.0,0.0,0.0,0.0,0.0,0.0,-2.8785,-2.9721,-3.1219,-3.3513,-3.481,-3.5946,-3.6969,-3.7357,-3.8476,-4.0362,-4.0362,-4.1227,-4.2835,-4.2874,-4.2912,-4.2912,-4.2951,-4.297,-4.2951,-4.2912,-4.2931,-4.2832,-4.121,-4.0645,-4.0482,-3.8142,-3.6746,-3.5898,-3.5059,-3.418,-3.3164,-3.1621,-3.2246,-3.3828,-3.4687,-3.8398,-4.2223,-4.1279,-4.3365,-4.5944,-4.5823,-4.698,-4.8432,-4.926,-5.0087,-5.0693,-5.0635,-4.999,-4.9375,-4.9279,-4.8606,-4.7885,-4.743,0.0,-4.9013,-5.1383,-5.2996,-5.4485,-5.6028,-5.6977,-5.7058,0.0,0.0,0.0,0.0,0.0,0.0,-5.6748,0.0,-5.796,-5.7997,-5.7997,-5.7997,-5.7997,-5.7997,-5.7997,-5.7997,-5.796,-5.7152,-5.5614,-5.5556,-5.4711,-5.3185,-5.3185,-5.3185,-5.317,-5.2344,-5.1149,-4.9649,-4.8265,-4.6808,-4.5399,-4.4814,-4.4615,-4.4513,-4.3707,-4.3375,-4.3325,0.0,0.0,0.0,0.0,0.0,0.0,0.0,0.0,0.0,0.0,0.0,0.0,0.0,0.0,0.0,0.0,0.0,0.0,-2.8062,-2.942,-3.0467,-3.1091,-3.2804,-3.422,-3.5291,-3.6234,-3.7338,-3.8642,-3.8642,-3.8854,-3.9315,-3.995,-4.0265,-4.0304,-4.09,-4.117,-4.1131,-4.0516,-4.0612,-4.1031,-3.9463,-3.9277,-3.977,-3.8556,-3.7215,-3.5976,-3.5742,-3.4687,-3.3437,-3.3652,-3.5312,-3.7422,-3.8301,-4.0332,-4.2577,-4.3504,-4.5258,-4.7125,-4.8266,-4.929,-5.0087,-5.0308,-5.0539,-5.0539,-4.9875,-4.9548,-4.9048,-4.7798,-4.7355,-4.677,-4.538,-4.7051,-4.8946,-4.9811,-5.2646,0.0,-5.6479,-5.7357,0.0,-5.6606,0.0,-5.6253,-5.5669,-5.6143,0.0,0.0,-5.6987,-5.7373,-5.796,-5.7997,-5.7997,-5.7997,-5.7997,-5.7997,-5.7997,-5.7409,-5.6602,-5.5574,-5.4987,-5.4179,-5.3185,-5.3185,-5.3185,-5.317,-5.2344,-5.0918,-4.9073,-4.8116,-4.6566,-4.4814,-4.4654,-4.4615,-4.4513,-4.3707,-4.3064,-4.2506,0.0,0.0,0.0,0.0,0.0,0.0,0.0,0.0,0.0,0.0,0.0,0.0,0.0,0.0,0.0,0.0,0.0,0.0,0.0,-2.865,-2.9457,-3.0173,-3.09,-3.1797,-3.2885,-3.3865,-3.4791,-3.563,-3.6726,-3.7322,-3.745,-3.8315,-3.8527,-3.818,-3.8623,-3.8834,-3.8796,-3.8354,-3.8642,0.0,0.0,-3.789,-3.832,-3.7493,-3.6628,-3.5875,-3.5927,-3.6046,-3.6298,-3.7177,-3.8194,-3.9366,-4.1007,-4.2666,-4.4259,-4.5487,-4.6999,-4.8522,-4.9745,-5.0382,-5.0789,-5.1144,-5.0664,-4.9894,-4.9029,-4.8567,-4.7817,-4.6105,-4.5759,-4.5355,-4.4028,-4.521,-4.698,-4.8794,0.0,0.0,-5.6238,-5.7565,-5.805,0.0,-5.7336,0.0,-5.6693,-5.706,-5.7336,0.0,-5.7336,-5.7519,-5.7978,-5.7997,-5.7997,-5.7997,-5.7997,-5.7997,-5.7997,-5.7207,-5.64,-5.5574,-5.4785,-5.3977,-5.3185,-5.3185,-5.3185,-5.3151,0.0,-5.0504,-4.8795,-4.7612,-4.6125,-4.4615,-4.4615,-4.4615,-4.4479,-4.3335,-4.2658,-4.2134,0.0,0.0,0.0,0.0,0.0,0.0,0.0,0.0,0.0,0.0,0.0,0.0,0.0,0.0,0.0,0.0,0.0,0.0,0.0,0.0,-2.8576,-2.9989,-2.9372,-2.9503,-3.0575,-3.1283,-3.1946,-3.2553,-3.4691,-3.588,-3.6116,-3.6884,-3.686,-3.6164,-3.6164,-3.6236,-3.6365,-3.6365,-3.6873,-3.7603,-3.6846,-3.6627,-3.6632,0.0,-3.5633,-3.5717,-3.5836,-3.7366,-3.9499,-4.0591,-4.0696,-4.0806,-4.328,-4.5075,-4.6404,-4.7261,-4.8508,-4.9776,-5.0634,-5.0789,-5.0894,-5.1692,-5.0644,-4.9163,-4.8298,-4.7394,-4.6278,-4.4643,-4.422,-4.3893,-4.3085,-4.3253,-4.4619,-4.7998,-5.018,-5.2565,-5.5671,-5.7457,-5.8331,-5.8047,-5.7997,-5.7997,-5.7997,-5.7997,-5.7997,-5.7997,-5.7997,-5.7997,-5.7997,-5.7997,-5.7997,-5.7997,-5.7997,-5.7941,-5.7831,-5.7042,-5.6235,-5.5449,-5.4638,-5.3885,-5.3185,-5.3185,-5.313,-5.2968,0.0,0.0,-4.8739,-4.708,-4.5732,-4.472,-4.4626,-4.4547,-4.4276,-4.2811,-4.2236,-4.1948,0.0,0.0,0.0,0.0,0.0,0.0,0.0,0.0,0.0,0.0,-2.5439,-2.4604,0.0,0.0,0.0,0.0,0.0,0.0,0.0,0.0,0.0,-2.9207,-2.9078,-2.9495,-3.058,-3.0748,-3.1295,-3.2266,-3.2693,-3.2928,-3.2972,-3.3143,-3.3238,-3.3314,-3.3314,-3.3806,-3.4622,-3.4622,-3.5141,-3.5923,-3.5769,-3.5759,-3.5804,-3.5669,0.0,0.0,-3.5723,-3.6452,-3.7725,-3.9978,-4.2116,-4.4149,-4.5998,-4.6777,-4.7295,-4.8761,-4.9386,-4.9912,-5.1318,-5.1202,-5.0894,-5.1692,-5.0644,-4.9163,-4.8298,-4.6913,-4.5537,-4.4509,-4.3778,-4.3047,-4.2181,-4.3493,-4.5271,-4.6957,-4.9541,-5.2363,-5.5272,-5.6536,-5.7338,0.0,-5.7997,-5.7997,-5.7997,-5.7997,0.0,0.0,0.0,0.0,-5.7997,-5.7997,-5.7997,-5.7997,-5.7997,-5.7685,-5.7024,-5.6198,-5.539,-5.4601,-5.3794,-5.3332,-5.3185,-5.3185,-5.2839,-5.216,0.0,0.0,-4.8524,-4.7014,-4.5989,-4.5294,-4.4786,-4.4181,-4.3504,-4.2625,-4.1914,-4.1271,0.0,0.0,0.0,0.0,0.0,0.0,0.0,-2.5169,-2.6437,-2.8703,-2.8416,-2.7963,-2.7895,-2.7918,-2.8063,0.0,0.0,0.0,0.0,0.0,0.0,0.0,-2.9005,-2.9232,-2.9769,-3.0997,-3.1552,-3.1371,0.0,-3.2878,-3.2194,-3.2194,-3.2049,-3.1765,-3.1765,-3.2362,-3.3365,-3.3365,-3.4201,-3.55,-3.55,-3.5515,-3.5546,0.0,0.0,0.0,-3.5642,-3.6455,-3.771,-3.8944,-4.1363,-4.4253,-4.6457,-4.7115,-4.7422,-4.9102,-4.9548,-4.9858,-5.1453,-5.1318,-5.0894,-5.1692,-5.0298,-4.8394,-4.7086,-4.5836,-4.444,-4.2689,-4.2374,-4.2162,-4.1277,-4.2202,-4.3691,-4.5597,-4.7522,-4.9988,-5.3484,-5.4899,-5.6014,-5.7226,-5.7758,-5.7997,-5.7997,-5.7997,0.0,0.0,0.0,0.0,-5.7997,-5.7997,-5.7997,-5.7997,-5.7593,-5.7189,-5.6804,-5.5592,-5.4785,-5.4399,-5.3592,-5.3185,-5.3185,-5.3185,-5.2766,-5.1958,0.0,0.0,-4.8478,-4.7025,-4.6021,-4.5433,-4.4841,-4.4096,-4.3291,-4.2574,-4.183,-4.1085,0.0,0.0,0.0,0.0,0.0,0.0,0.0,-2.637,-2.7807,-3.026,-3.1207,-3.1432,-3.0761,-2.9828,-2.9251,0.0,0.0,0.0,0.0,0.0,0.0,0.0,0.0,-2.9078,-2.9244,0.0,0.0,0.0,-3.2662,0.0,0.0,0.0,0.0,0.0,0.0,-3.1767,-3.2779,-3.2779,-3.3796,0.0,0.0,-3.5715,0.0,0.0,0.0,0.0,0.0,-3.6833,-3.7878,-3.8438,-4.026,-4.276,-4.5404,-4.6581,-4.7274,-4.8836,-4.9335,-4.9721,-5.1241,-5.1183,-5.0894,-5.1692,-4.9981,-4.7721,-4.622,-4.4932,-4.3412,-4.1227,-4.1162,-4.1316,-4.0631,-4.1011,-4.2209,-4.46,-4.5752,-4.7834,-5.2024,-5.3562,-5.4917,-5.6724,-5.7551,0.0,-5.7997,-5.7997,0.0,0.0,0.0,0.0,0.0,-5.7997,-5.7997,-5.7997,-5.7226,-5.673,-5.6547,-5.5115,-5.4308,-5.4142,-5.35,-5.3185,-5.3185,-5.3185,-5.2674,-5.1701,0.0,0.0,0.0,-4.7137,-4.624,-4.5648,-4.5025,-4.4116,-4.3071,-4.2506,-4.1728,-4.0882,0.0,0.0,0.0,0.0,0.0,0.0,0.0,-2.6793,-2.8753,-3.1718,-3.273,-3.305,-3.2665,-3.1059,-3.0011,0.0,0.0,0.0,0.0,0.0,0.0,0.0,0.0,0.0,0.0,0.0,0.0,0.0,0.0,0.0,0.0,0.0,0.0,0.0,0.0,0.0,0.0,-3.3317,0.0,0.0,0.0,0.0,0.0,0.0,0.0,0.0,0.0,-3.7375,-3.7182,-3.9499,-4.0011,-4.0092,-4.2656,-4.5062,-4.7074,-4.7979,-4.8797,-4.9606,-5.0548,-5.077,-5.0894,-5.1692,-4.9981,-4.7875,-4.699,-4.4932,-4.2912,-4.1893,-4.1104,-4.0593,-4.0516,-4.1184,-4.2476,-4.4652,-4.5684,-4.7813,-5.2394,-5.3475,-5.4666,-5.7046,0.0,0.0,-5.7997,-5.7997,0.0,0.0,0.0,0.0,0.0,-5.7997,-5.7997,-5.7997,-5.7226,-5.6455,-5.5702,-5.484,-5.4032,-5.3295,-5.3243,-5.3185,-5.3185,-5.3185,-5.2362,-5.0912,0.0,0.0,0.0,-4.7591,-4.691,-4.6264,-4.5648,-4.418,-4.2388,-4.232,-4.139,-4.0197,0.0,0.0,0.0,0.0,0.0,0.0,-2.593,-2.7131,-2.9041,-3.251,-3.322,-3.3734,-3.4609,-3.3161,-3.1724,-3.0654,0.0,0.0,0.0,0.0,0.0,0.0,0.0,0.0,0.0,0.0,-3.2522,-3.2834,0.0,0.0,0.0,0.0,0.0,0.0,0.0,0.0,0.0,0.0,0.0,0.0,0.0,0.0,0.0,0.0,0.0,0.0,0.0,0.0,-3.7565,-3.8046,-3.87,-3.94,-3.9873,-4.1777,-4.4201,-4.6047,-4.7201,-4.8182,-4.9548,-5.0308,-5.0654,-5.0452,-4.924,-4.7605,-4.5759,-4.4182,-4.2701,-4.1316,-4.0746,-4.0496,-4.0496,-4.0785,-4.1649,-4.3541,-4.393,-4.5319,-4.9186,-5.0546,-5.2107,-5.4837,-5.6199,0.0,0.0,0.0,0.0,0.0,0.0,0.0,0.0,-5.7997,-5.7776,-5.7299,-5.6492,-5.5684,-5.4876,-5.4087,-5.3537,-5.3185,-5.3185,-5.3185,-5.3167,-5.2711,-5.1867,-5.0765,0.0,0.0,0.0,-4.7635,-4.6999,-4.6336,-4.5732,-4.4181,-4.2286,-4.2286,-4.1382,-4.0096,0.0,0.0,0.0,0.0,0.0,-2.4069,-2.6065,-2.7385,-2.9262,-3.2357,-3.3243,-3.4057,-3.5266,-3.4394,-3.3228,-3.1971,-3.1058,0.0,0.0,0.0,0.0,0.0,0.0,0.0,0.0,0.0,-3.3917,-3.4156,-3.4968,0.0,0.0,0.0,0.0,0.0,0.0,0.0,0.0,0.0,0.0,0.0,0.0,0.0,0.0,0.0,0.0,0.0,0.0,0.0,0.0,0.0,0.0,-3.8854,-3.8488,-3.945,-4.1239,-4.4028,-4.5643,-4.6836,-4.8279,-4.9279,-4.9779,-4.9163,-4.8375,-4.7144,-4.4836,-4.3682,-4.2604,-4.0862,-4.0496,-4.0496,-4.0496,-4.0496,-4.0997,-4.247,-4.2688,-4.3769,-4.6871,-4.8625,-5.0512,-5.3031,0.0,-5.6121,0.0,0.0,0.0,0.0,0.0,0.0,0.0,0.0,-5.7134,-5.6822,-5.5794,-5.4968,-5.4418,-5.361,-5.3185,-5.3185,-5.3185,-5.3096,-5.2839,-5.2252,-5.1426,0.0,0.0,0.0,0.0,-4.7635,-4.6999,-4.6318,-4.5513,-4.3992,-4.2269,-4.2049,-4.117,-4.0096,0.0,0.0,0.0,0.0,0.0,0.0,-2.5389,-2.752,-2.9534,-3.1021,-3.2899,-3.4125,-3.4202,-3.425,-3.431,-3.4372,-3.2529,0.0,0.0,0.0,0.0,0.0,0.0,0.0,0.0,0.0,-3.4192,-3.4986,-3.5862,-3.6266,-3.6266,-3.6266,0.0,0.0,0.0,0.0,0.0,0.0,0.0,0.0,0.0,0.0,0.0,0.0,0.0,0.0,0.0,0.0,0.0,0.0,0.0,0.0,0.0,-3.87,-3.8719,-4.2124,-4.4316,-4.5806,-4.6701,-4.7509,-4.8125,-4.8125,-4.7509,-4.6451,-4.4701,-4.3682,-4.2604,-4.0862,-4.0496,-4.0496,-4.0496,-4.0496,-4.0785,-4.1681,-4.2519,-4.3981,-4.6558,-4.8692,-5.0615,0.0,0.0,-5.4825,0.0,0.0,0.0,0.0,0.0,0.0,0.0,0.0,-5.5978,-5.6785,-5.5262,-5.4418,-5.4399,-5.361,-5.3185,-5.3185,-5.3185,-5.2784,-5.1995,-5.1995,0.0,0.0,0.0,0.0,0.0,-4.7635,-4.6999,-4.6289,-4.4928,-4.3555,-4.2202,-4.1474,-4.073,-4.0096,0.0,0.0,0.0,0.0,0.0,0.0,0.0,-2.664,-2.8146,-3.0176,-3.1222,-3.2508,-3.4409,-3.4418,-3.4687,-3.5622,-3.3574,0.0,0.0,0.0,0.0,0.0,0.0,0.0,0.0,0.0,-3.5899,-3.6707,-3.8098,-3.8469,-3.7936,-3.7936,-3.7221,0.0,0.0,0.0,0.0,0.0,0.0,0.0,0.0,0.0,0.0,0.0,0.0,0.0,0.0,0.0,0.0,0.0,0.0,0.0,0.0,0.0,0.0,-3.9296,-4.1643,-4.4066,-4.4893,-4.6182,-4.699,-4.5797,-4.5316,-4.4682,-4.2989,-4.2393,-4.1893,-4.0746,-4.0496,-4.0496,-4.0496,-4.0496,-4.117,-4.3181,-4.3739,-4.4816,-4.7355,-4.904,0.0,-5.2685,-5.5231,-5.6998,0.0,0.0,0.0,0.0,0.0,0.0,0.0,0.0,-5.4895,-5.5152,-5.4675,-5.4142,-5.3592,-5.3335,-5.3185,-5.3185,-5.2637,-5.2252,-5.1958,-5.0802,0.0,0.0,0.0,0.0,0.0,-4.8094,-4.7084,-4.5599,-4.5164,-4.3603,-4.1525,-4.1288,-4.073,-4.0096,0.0,0.0,0.0,0.0,0.0,0.0,0.0,-2.6471,-2.7621,-2.9041,-3.0248,-3.1721,-3.3739,-3.4051,-3.4695,-3.6178,-3.4596,0.0,0.0,0.0,0.0,0.0,0.0,0.0,-3.4247,-3.5605,-3.6835,-3.7936,-3.9258,-3.979,-3.9625,-3.9625,-3.8762,-3.7184,-3.6637,0.0,0.0,0.0,0.0,0.0,0.0,0.0,0.0,0.0,0.0,0.0,0.0,0.0,0.0,0.0,0.0,0.0,0.0,0.0,0.0,0.0,-3.9258,-4.1489,-4.297,-4.4393,-4.522,-4.4124,-4.3855,-4.3489,-4.2115,-4.1788,-4.1546,-4.0689,-4.0496,-4.0496,-4.0496,-4.0496,-4.1016,-4.2613,-4.3412,-4.4509,-4.6394,0.0,0.0,-5.2821,0.0,0.0,0.0,0.0,0.0,0.0,0.0,0.0,0.0,0.0,-5.3959,-5.3959,-5.3959,-5.372,-5.3185,-5.3185,-5.3059,-5.2747,-5.2234,-5.1665,-5.1061,0.0,0.0,0.0,0.0,0.0,0.0,-4.7744,-4.6645,-4.5214,-4.4395,-4.2905,-4.117,-4.0882,-4.0476,-4.0096,0.0,0.0,0.0,0.0,0.0,0.0,0.0,-2.6843,-2.7739,-2.779,-2.9861,-3.1625,-3.2423,-3.3332,-3.4541,-3.6156,0.0,0.0,0.0,0.0,0.0,0.0,0.0,0.0,-3.4986,-3.5917,-3.7165,-3.8799,-3.9588,-4.0396,-4.1187,-4.1187,-4.0325,-3.8781,-3.8726,-3.7389,0.0,0.0,0.0,0.0,0.0,0.0,0.0,0.0,0.0,0.0,0.0,0.0,0.0,0.0,0.0,0.0,0.0,0.0,0.0,0.0,0.0,0.0,0.0,-4.2124,-4.2816,-4.2758,-4.2739,-4.2527,-4.1712,-4.1519,0.0,-4.0573,-4.0419,-4.0458,-4.0573,-4.0535,-4.0573,-4.0823,-4.2162,-4.3508,0.0,-4.7165,0.0,0.0,0.0,0.0,0.0,0.0,0.0,0.0,0.0,0.0,0.0,0.0,0.0,-5.3112,-5.3115,-5.313,-5.3185,-5.313,-5.2747,-5.1995,-5.1867,-5.1061,-4.961,0.0,0.0,0.0,0.0,0.0,0.0,-4.6785,-4.5828,-4.5007,-4.2946,-4.1776,-4.1086,-4.0367,-4.0096,-4.0096,0.0,0.0,0.0,0.0,0.0,0.0,0.0,0.0,0.0,0.0,-2.9408,-3.086,-3.1608,-3.3495,-3.5151,0.0,0.0,0.0,0.0,0.0,0.0,0.0,0.0,0.0,-3.5004,-3.645,-3.8006,-3.9625,-4.0432,-4.124,-4.2029,-4.2029,-4.1167,-3.9588,-3.8964,-3.8028,0.0,0.0,0.0,0.0,0.0,0.0,0.0,0.0,0.0,0.0,0.0,-3.7172,0.0,0.0,0.0,0.0,0.0,0.0,0.0,0.0,-3.6365,-3.7135,-3.7731,0.0,-4.0027,-3.9373,-3.92,-3.9142,0.0,-3.8892,-3.9027,-3.9496,-3.9573,-3.9977,-4.1258,-4.095,-4.1362,-4.3978,-4.4182,-4.4759,-4.6913,0.0,0.0,-5.4805,0.0,0.0,0.0,0.0,0.0,0.0,0.0,0.0,0.0,0.0,0.0,-5.2307,-5.227,-5.2582,-5.3185,-5.2601,-5.2179,-5.1997,-5.0749,-4.9978,-4.9574,0.0,0.0,0.0,0.0,0.0,0.0,-4.7016,-4.5847,-4.413,-4.3168,-4.2032,-4.0913,-4.0322,-4.0096,-4.0096,0.0,0.0,0.0,0.0,0.0,0.0,0.0,0.0,0.0,0.0,0.0,0.0,0.0,0.0,0.0,0.0,0.0,0.0,0.0,0.0,0.0,0.0,0.0,-3.5771,-3.6138,-3.7404,-3.8836,-4.0451,-4.1258,-4.2066,-4.2837,-4.2837,-4.1992,-4.0377,-3.8836,-3.8102,0.0,0.0,0.0,0.0,0.0,0.0,0.0,0.0,0.0,0.0,-3.5182,-3.5907,0.0,-3.7003,-3.8279,-3.9473,0.0,0.0,0.0,0.0,-3.5808,-3.6154,-3.6154,-3.7969,-3.9746,-3.9258,-3.9142,-3.9142,-3.9142,-3.8546,-3.8123,-3.8604,-3.9015,-3.9592,-4.0489,-4.0765,-4.1517,-4.353,-4.397,0.0,0.0,0.0,-5.3337,0.0,0.0,0.0,0.0,0.0,0.0,0.0,0.0,0.0,0.0,0.0,0.0,0.0,-5.1444,-5.1665,-5.2105,-5.1665,-5.1261,-5.0896,-5.0033,-4.939,-4.8985,0.0,0.0,0.0,0.0,0.0,-4.6526,-4.614,-4.5184,-4.383,-4.3115,-4.2057,-4.0856,-4.0577,-4.0311,-4.0096,0.0,0.0,0.0,0.0,0.0,0.0,0.0,0.0,0.0,0.0,0.0,0.0,0.0,0.0,0.0,0.0,0.0,0.0,0.0,0.0,0.0,0.0,-3.6541,-3.6868,-3.7676,-3.834,-3.9536,-4.1279,-4.1846,-4.2598,-4.3515,-4.3515,-4.2635,-4.1003,-3.8817,-3.819,0.0,0.0,0.0,0.0,0.0,0.0,0.0,0.0,0.0,0.0,0.0,0.0,0.0,-3.6777,-3.7908,-3.8679,-3.7824,0.0,0.0,0.0,0.0,0.0,-3.5808,-3.8093,-4.0334,-4.0008,-4.0131,-4.0285,-4.015,-3.9008,-3.8046,-3.8161,-3.8796,-3.9404,-3.9738,-4.066,-4.1629,-4.2366,0.0,0.0,-4.9747,-5.1572,-5.3288,0.0,0.0,0.0,0.0,0.0,0.0,0.0,0.0,0.0,0.0,0.0,0.0,0.0,-5.0618,-5.0545,-5.0417,-5.0545,-5.027,-4.961,-4.9482,-4.9003,-4.8306,-4.8177,0.0,0.0,0.0,0.0,-4.5663,-4.4984,-4.4364,-4.3768,-4.3003,-4.2021,-4.1018,-4.0926,-4.0552,-4.0096,0.0,0.0,0.0,0.0,0.0,0.0,0.0,0.0,0.0,0.0,0.0,0.0,0.0,0.0,0.0,0.0,0.0,0.0,0.0,0.0,0.0,-3.834,-3.7694,-3.7694,-3.8505,-3.8634,-3.9827,-4.2121,-4.157,-4.2047,-4.3515,-4.3515,-4.2635,-4.104,-3.9992,-3.9221,-3.8689,0.0,0.0,0.0,0.0,0.0,0.0,0.0,0.0,0.0,0.0,0.0,0.0,-3.5229,-3.6627,-3.8136,-3.6155,0.0,0.0,0.0,0.0,0.0,-3.7238,-3.8818,-3.9642,-3.7744,-3.8392,-3.9284,-3.8546,-3.818,-3.82,-3.8957,-3.9207,-3.9857,-4.1676,-4.1856,-4.2589,-4.5192,0.0,-4.8433,0.0,0.0,0.0,0.0,0.0,0.0,0.0,0.0,0.0,0.0,0.0,0.0,0.0,0.0,0.0,0.0,0.0,-4.9426,-4.8691,-4.9407,-4.9721,-4.9592,-4.8838,-4.8434,-4.8288,-4.759,-4.7223,0.0,0.0,0.0,-4.4856,-4.4746,-4.4251,-4.3504,-4.2937,-4.2264,-4.1599,-4.1087,-4.0552,-4.0096,0.0,0.0,0.0,0.0,0.0,0.0,0.0,0.0,0.0,0.0,0.0,0.0,0.0,0.0,0.0,0.0,0.0,0.0,0.0,0.0,-3.8707,-3.8707,-3.834,-3.8524,-3.9331,-3.9772,-4.0763,-4.2304,-4.2378,-4.2782,-4.3478,-4.2598,-4.1809,-4.104,-3.9808,-3.9056,-3.8707,-3.8707,-3.8707,0.0,0.0,0.0,0.0,0.0,0.0,0.0,0.0,0.0,0.0,0.0,-3.5882,-3.6705,-3.5988,0.0,0.0,0.0,0.0,0.0,-3.6442,-3.797,-3.9099,-3.8035,-3.928,-4.0649,-4.025,-3.946,-3.8985,-3.9563,-4.0058,-4.0672,-4.1664,-4.2271,-4.3285,-4.5366,0.0,0.0,0.0,0.0,0.0,0.0,0.0,0.0,0.0,0.0,0.0,0.0,0.0,0.0,0.0,0.0,0.0,0.0,0.0,0.0,-4.8306,-4.8691,-4.8893,-4.8893,-4.8489,-4.8086,-4.7626,-4.7278,-4.6636,0.0,0.0,-4.48,-4.4048,-4.4048,-4.3828,-4.3444,-4.292,-4.2322,-4.1686,-4.0797,-4.0311,-4.0096,0.0,0.0,0.0,0.0,0.0,0.0,0.0,0.0,0.0,0.0,0.0,0.0,0.0,0.0,0.0,0.0,0.0,0.0,0.0,0.0,-3.8505,-3.8689,-3.8707,-3.9166,-4.0157,-4.0598,-4.1405,-4.258,-4.3002,-4.3331,-4.3478,-4.2047,-4.1279,-4.104,-3.9606,-3.8891,-3.8707,-3.8707,-3.8707,0.0,0.0,0.0,0.0,0.0,0.0,0.0,0.0,0.0,0.0,0.0,0.0,0.0,0.0,0.0,0.0,-3.5479,-3.5159,-3.5147,-3.5734,-3.6944,-3.8152,-3.8671,-4.0152,-4.1562,-4.1914,-4.0715,-3.9701,-4.0344,-4.1005,-4.1507,-4.162,-4.297,0.0,-4.555,-4.7543,0.0,0.0,0.0,0.0,0.0,0.0,0.0,0.0,0.0,0.0,0.0,0.0,0.0,0.0,0.0,0.0,0.0,0.0,0.0,-4.8306,-4.8306,-4.8306,-4.8306,-4.8306,-4.7865,-4.7094,-4.6892,-4.603,-4.4691,-4.4507,-4.4066,-4.3515,-4.3515,-4.3515,-4.3444,-4.305,-4.2442,-4.1643,-4.0514,-4.0096,-4.0096,0.0,0.0,0.0,0.0,0.0,0.0,0.0,0.0,0.0,0.0,0.0,0.0,0.0,0.0,0.0,0.0,0.0,0.0,0.0,0.0,-3.7933,-3.867,-3.8707,-3.9441,-4.0967,-4.0341,-4.1111,-4.3423,-4.2708,-4.2763,-4.3478,-4.2616,-4.1827,-4.1058,-4.0194,-3.9405,-3.8707,-3.8707,-3.8707,-3.856,-3.6945,0.0,0.0,0.0,0.0,0.0,0.0,0.0,0.0,0.0,0.0,0.0,0.0,0.0,-3.5448,-3.4919,-3.4178,-3.4074,-3.645,-3.6423,-3.6285,-3.8582,-3.952,-4.0238,-4.1663,-4.0752,-4.0021,-4.1537,-4.1914,-4.2096,-4.2594,-4.4658,-4.6491,-4.7213,0.0,0.0,0.0,0.0,0.0,0.0,0.0,0.0,0.0,0.0,0.0,0.0,0.0,0.0,0.0,0.0,0.0,0.0,0.0,0.0,-4.8306,-4.8306,-4.8306,-4.8306,-4.8306,-4.7865,-4.7076,-4.6342,-4.5516,-4.4672,-4.3901,-4.3551,-4.3515,-4.3515,-4.3515,-4.3497,-4.3444,-4.2772,-4.1643,-4.0514,-4.0096,-4.0096,0.0,0.0,0.0,0.0,0.0,0.0,0.0,0.0,0.0,0.0,0.0,0.0,0.0,0.0,0.0,0.0,0.0,0.0,0.0,-3.6923,-3.7639,-3.7951,-3.8432,-3.8982,-3.9591,-4.0304,-4.1589,-4.3515,-4.3185,-4.3185,-4.3478,-4.2158,-4.1389,-4.104,-3.9753,-3.8982,-3.8707,-3.8707,-3.8707,-3.856,-3.6945,0.0,0.0,0.0,0.0,0.0,0.0,0.0,0.0,0.0,-3.2596,-3.3419,-3.289,-3.3615,-3.4594,-3.4049,-3.3667,-3.3601,-3.4574,-3.5526,-3.6466,-3.7403,-3.8747,-4.0108,-4.1178,-4.1735,-4.2404,-4.3721,-4.3988,-4.3889,-4.3606,-4.4543,-4.5642,-4.6379,0.0,0.0,0.0,0.0,0.0,0.0,0.0,0.0,0.0,0.0,0.0,0.0,0.0,0.0,0.0,0.0,0.0,0.0,0.0,0.0,0.0,-4.6819,-4.6819,-4.6819,-4.7296,-4.6856,-4.559,-4.5296,-4.4709,-4.3938,-4.3626,-4.3515,-4.3515,-4.3515,-4.3515,-4.348,-4.3124,-4.2521,-4.1746,-4.1308,-4.1168,-4.1168,0.0,0.0,0.0,0.0,0.0,0.0,0.0,0.0,0.0,0.0,0.0,0.0,0.0,0.0,0.0,0.0,0.0,0.0,-3.4968,-3.5844,-3.6574,-3.7107,-3.7643,-3.8065,-3.8322,-3.9662,-4.113,-4.2745,-4.3002,-4.2983,-4.2708,-4.1625,-4.1095,-4.104,-3.968,-3.9074,-3.9056,-3.8542,-3.8322,-3.8175,-3.656,-3.5899,0.0,0.0,0.0,0.0,0.0,0.0,0.0,0.0,-3.1549,-3.2193,-3.2087,-3.2813,-3.3628,-3.3261,-3.3326,-3.3532,-3.3532,-3.464,-3.5977,-3.6774,-3.8058,-3.9478,-4.0802,-4.2158,-4.349,-4.477,-4.5039,-4.4904,-4.447,-4.4541,0.0,0.0,0.0,0.0,0.0,0.0,0.0,0.0,0.0,0.0,0.0,0.0,0.0,0.0,0.0,0.0,0.0,0.0,0.0,0.0,0.0,0.0,0.0,-4.5902,-4.5773,-4.5535,-4.6067,-4.5773,-4.4691,-4.4691,-4.4268,-4.3515,-4.3515,-4.3515,-4.3515,-4.3515,-4.3515,-4.3444,-4.292,-4.246,-4.2059,-4.1874,-4.181,-4.181,0.0,0.0,0.0,0.0,0.0,0.0,0.0,0.0,0.0,0.0,0.0,0.0,0.0,0.0,0.0,0.0,0.0,0.0,-3.4876,-3.4247,-3.4541,-3.6193,-3.6303,-3.667,-3.7474,-3.8285,-3.9481,-4.1095,-4.1901,-4.1882,-4.1095,-4.1095,-4.1095,-4.104,-4.0249,-3.9882,-3.9753,-3.8172,-3.7492,-3.7345,-3.5665,-3.5004,-3.4912,0.0,0.0,0.0,0.0,0.0,0.0,0.0,-3.0723,-3.1525,-3.2326,-3.2583,-3.2601,-3.2583,-3.3151,-3.3807,-3.377,-3.3807,-3.4412,-3.6868,-3.7529,-3.8172,-4.0579,-4.1735,-4.2782,-4.4397,-4.4727,-4.4795,-4.5133,-4.491,0.0,0.0,0.0,0.0,0.0,0.0,0.0,0.0,0.0,0.0,0.0,0.0,0.0,0.0,0.0,0.0,0.0,0.0,0.0,0.0,0.0,0.0,0.0,-4.5883,-4.548,-4.4691,-4.4691,-4.4691,-4.4691,-4.4691,-4.425,-4.3515,-4.3515,-4.3515,-4.3515,-4.3515,-4.3515,-4.3444,-4.292,-4.2711,-4.2635,-4.2041,-4.1832,-4.1832,0.0,0.0,0.0,0.0,0.0,0.0,0.0,0.0,0.0,0.0,0.0,0.0,0.0,0.0,0.0,0.0,0.0,0.0,-3.328,-3.3623,-3.4027,-3.4523,-3.6207,-3.6997,-3.6666,-3.7991,-3.9481,-4.1095,-4.1334,-4.1334,-4.1095,-4.1095,-4.049,-3.9441,-3.9753,-3.8946,-3.7367,-3.7456,-3.718,-3.656,-3.5445,-3.5004,-3.4857,0.0,0.0,0.0,0.0,0.0,0.0,0.0,0.0,0.0,-3.0852,-3.2082,-3.322,-3.2082,-3.2724,-3.355,-3.2412,-3.3788,-3.5734,-3.6483,-3.8781,-4.1056,-4.1791,-4.2561,-4.3589,-4.5204,-4.5535,-4.5387,-4.4939,-4.43,0.0,0.0,0.0,0.0,0.0,0.0,0.0,0.0,0.0,0.0,0.0,0.0,0.0,0.0,0.0,0.0,0.0,0.0,0.0,0.0,0.0,0.0,0.0,0.0,-4.4085,-4.3864,-4.3864,-4.3864,-4.3864,-4.3864,-4.3718,-4.3515,-4.3515,-4.3515,-4.3515,-4.3515,-4.3515,-4.3479,-4.3321,-4.3268,-4.3232,-4.3069,-4.3014,-4.3014,0.0,0.0,0.0,0.0,0.0,0.0,0.0,0.0,0.0,0.0,-3.3652,-3.3807,0.0,0.0,0.0,0.0,0.0,0.0,0.0,-3.2761,-3.3128,-3.377,-3.5234,-3.6115,-3.6303,-3.7551,-3.8707,-3.9662,-3.9976,-3.9992,-3.968,-4.0322,-4.012,-3.9203,-4.0029,-3.9203,-3.7239,-3.7088,-3.6541,-3.5701,-3.4857,-3.4509,-3.438,0.0,0.0,0.0,0.0,0.0,0.0,0.0,0.0,0.0,-3.0099,-3.1201,-3.2302,-3.1971,-3.3018,-3.4211,-3.3912,-3.5495,-3.7477,-3.8432,-4.0267,-4.1992,-4.2635,-4.3406,-4.4342,-4.5626,-4.5645,-4.5278,-4.4783,-4.4048,0.0,0.0,0.0,0.0,0.0,0.0,0.0,0.0,0.0,0.0,0.0,0.0,0.0,0.0,0.0,0.0,0.0,0.0,0.0,0.0,0.0,0.0,0.0,0.0,0.0,-4.3515,-4.3515,-4.3515,-4.3515,-4.3515,-4.3515,-4.3515,-4.3515,-4.3515,-4.3515,-4.3515,-4.3515,-4.3515,-4.3515,-4.3515,-4.3515,-4.3515,-4.3515,-4.3515,0.0,0.0,0.0,0.0,0.0,0.0,0.0,0.0,0.0,0.0,-3.3733,-3.3697,0.0,0.0,0.0,0.0,0.0,0.0,0.0,0.0,-3.2058,-3.3513,-3.3862,-3.4798,-3.6486,-3.7162,-3.7456,-3.7382,-3.8193,-3.8175,-3.7437,-3.9053,-3.9698,-3.9606,-4.0506,-3.9884,-3.8157,-3.6688,-3.5532,-3.4619,-3.388,-3.3587,-3.3495,-3.2766,0.0,0.0,0.0,0.0,0.0,0.0,0.0,0.0,-2.9941,-3.0246,-3.0577,-3.1959,-3.3573,-3.5224,-3.6758,-3.7845,-3.9166,-4.1589,-4.1754,-4.1699,-4.3167,-4.4066,-4.4819,-4.5626,-4.5223,-4.4691,-4.4691,0.0,0.0,0.0,0.0,0.0,0.0,0.0,0.0,0.0,0.0,0.0,0.0,0.0,0.0,0.0,0.0,0.0,0.0,0.0,0.0,0.0,0.0,0.0,0.0,0.0,0.0,0.0,-4.3515,-4.3515,-4.3515,-4.3515,-4.3515,-4.3515,-4.3515,-4.3515,-4.3515,-4.3515,-4.3515,-4.3515,-4.3515,-4.3515,-4.3515,-4.3515,-4.3515,-4.3515,0.0,0.0,0.0,0.0,0.0,0.0,0.0,0.0,0.0,0.0,0.0,0.0,0.0,0.0,0.0,0.0,0.0,0.0,0.0,0.0,-3.1562,-3.1911,-3.4376,-3.6523,-3.8157,-3.7716,-3.7199,-3.656,-3.7364,-3.7345,-3.6578,-3.8193,-3.8285,-3.7129,-3.8579,-3.7588,-3.4835,-3.4486,-3.3495,-3.2155,-3.2003,-3.1929,-3.1911,-3.1715,-3.1164,0.0,0.0,0.0,0.0,0.0,0.0,0.0,-2.9941,-3.0632,-3.1091,-3.0797,-3.2302,-3.4137,-3.4504,-3.6152,-3.8355,-4.0763,-4.2176,-4.3057,-4.3423,-4.3626,-4.3993,-4.48,-4.4837,-4.4691,-4.4691,0.0,0.0,0.0,0.0,0.0,0.0,0.0,0.0,0.0,0.0,0.0,0.0,0.0,0.0,0.0,0.0,0.0,0.0,0.0,0.0,0.0,0.0,0.0,-4.3515,-4.3515,-4.3515,0.0,-4.3515,-4.3515,-4.3515,-4.3515,-4.3515,-4.3515,-4.3515,-4.3515,-4.3515,-4.3515,-4.3515,-4.3515,-4.3515,-4.3515,-4.3515,-4.3515,-4.3515,-4.3515,0.0,0.0,0.0,0.0,0.0,0.0,0.0,0.0,0.0,0.0,0.0,0.0,0.0,0.0,0.0,0.0,0.0,0.0,0.0,-3.0944,-3.1745,-3.2522,-3.4963,-3.6505,-3.6912,-3.6927,-3.6523,-3.5665,-3.6101,-3.6303,-3.634,-3.834,-3.8615,-3.7496,-3.8726,-3.7459,-3.4344,-3.3972,-3.2871,-3.1397,-3.1397,-3.1397,-3.136,-3.0962,-3.0577,-3.0155,-2.9769,0.0,0.0,0.0,0.0,0.0,0.0,0.0,-3.032,-3.0668,-3.1935,-3.3568,-3.5128,-3.7088,-3.9237,-4.1644,-4.2873,-4.3515,-4.3515,-4.3515,-4.3608,-4.403,-4.4121,-4.4121,0.0,0.0,0.0,0.0,0.0,0.0,0.0,0.0,0.0,0.0,0.0,0.0,0.0,0.0,0.0,0.0,0.0,0.0,0.0,0.0,0.0,0.0,0.0,0.0,-4.3515,-4.3515,-4.3515,-4.3515,-4.3515,-4.3515,-4.3515,-4.3515,-4.3515,-4.3515,-4.3515,-4.3515,-4.3515,-4.3515,-4.3515,-4.3515,-4.3515,-4.3515,-4.3515,-4.3515,-4.3515,-4.3515,0.0,0.0,0.0,0.0,0.0,0.0,0.0,0.0,0.0,0.0,0.0,0.0,0.0,0.0,0.0,0.0,0.0,0.0,0.0,-3.087,-3.2131,-3.3733,-3.5257,-3.5752,-3.5023,-3.5569,-3.5532,-3.4784,-3.4656,-3.5243,-3.6556,-3.8395,-3.9001,-3.8524,-3.9038,-3.7606,-3.4729,-3.3788,-3.2375,-3.0791,-3.0925,-3.0815,-3.0503,-2.9989,-2.9696,-2.9494,-2.8822,-2.8675,-2.8785,-2.8785,0.0,0.0,0.0,0.0,-2.9225,-3.043,-3.1458,-3.2779,-3.5495,-3.7933,-4.0267,-4.2707,-4.3387,-4.3515,-4.3515,-4.3515,-4.3515,-4.3515,-4.3515,0.0,0.0,0.0,0.0,0.0,0.0,0.0,0.0,0.0,0.0,0.0,0.0,0.0,0.0,0.0,0.0,0.0,0.0,0.0,0.0,0.0,0.0,0.0,0.0,-4.3515,-4.3515,-4.3515,-4.3515,-4.3515,-4.3515,-4.3515,-4.3515,-4.3515,-4.3515,-4.3515,-4.3515,-4.3515,-4.3515,-4.3515,-4.3515,-4.3515,-4.3515,-4.3515,-4.3515,-4.3515,-4.3515,-4.3515,0.0,0.0,0.0,0.0,0.0,0.0,0.0,0.0,0.0,0.0,-3.2063,-3.1549,-3.1549,-3.0228,0.0,0.0,0.0,0.0,-2.9152,0.0,0.0,-3.3733,-3.4674,-3.5133,-3.5004,-3.4431,-3.4082,-3.3972,-3.3261,-3.4449,-3.7327,-3.6945,-3.7107,-3.7639,-3.7037,-3.5734,-3.3862,-3.2357,-3.0387,-2.8338,-2.9042,-2.8491,-2.731,-2.7897,-2.7695,-2.7071,-2.695,-2.7365,-2.7952,-2.7952,-2.8429,0.0,0.0,0.0,0.0,-2.8411,-2.9347,-3.0613,-3.1054,-3.4945,-3.9441,-4.1864,-4.2983,-4.3515,-4.3515,-4.3515,-4.3515,0.0,0.0,0.0,0.0,0.0,0.0,0.0,0.0,0.0,0.0,0.0,0.0,0.0,0.0,0.0,0.0,0.0,0.0,0.0,0.0,0.0,0.0,0.0,-4.3515,-4.3515,-4.3515,0.0,-4.3515,-4.3515,-4.3515,-4.3515,-4.3515,-4.3515,-4.3515,-4.3515,-4.3515,-4.3515,-4.3515,-4.3515,-4.3515,-4.3515,-4.3515,-4.3515,-4.3515,-4.3515,-4.3515,-4.3515,-4.3515,-4.3515,0.0,0.0,0.0,0.0,0.0,0.0,0.0,0.0,0.0,0.0,0.0,-3.0889,-3.136,-2.9971,0.0,0.0,0.0,0.0,-2.9629,-3.0338,0.0,-3.2394,-3.2797,-3.2981,-3.2981,-3.2632,-3.2449,-3.2449,-3.21,-3.3605,-3.6831,-3.6468,-3.7441,-3.946,-3.8193,-3.6468,-3.4344,-3.2265,-3.002,-2.7835,-2.8191,-2.8705,-2.9127,-2.7677,-2.8026,-2.9053,-2.7255,-2.6833,-2.72,-2.764,-2.8044,-2.8338,-2.8338,0.0,0.0,0.0,-2.7952,-2.9457,-3.2142,-3.5078,-3.8157,-4.1479,-4.2561,-4.2947,-4.3387,-4.3515,-4.3515,-4.3515,0.0,0.0,0.0,0.0,0.0,0.0,0.0,0.0,0.0,0.0,0.0,0.0,0.0,0.0,0.0,0.0,0.0,0.0,0.0,0.0,0.0,-4.3515,-4.3515,-4.3515,-4.3515,0.0,-4.3515,-4.3515,-4.3515,-4.3515,-4.3515,-4.3515,-4.3515,-4.3515,-4.3515,-4.3515,-4.3515,-4.3515,-4.3515,-4.3515,-4.3515,-4.3515,-4.3515,-4.3515,-4.3515,-4.3515,-4.3515,-4.3515,0.0,0.0,0.0,0.0,0.0,0.0,0.0,0.0,0.0,0.0,0.0,0.0,-3.1017,0.0,0.0,0.0,0.0,0.0,-2.9255,0.0,0.0,0.0,0.0,-3.1305,-3.1103,-3.0889,-3.0889,-3.1103,-3.0889,-3.2779,-3.6597,-3.6597,-3.8432,-4.1644,-3.9808,-3.7643,-3.5188,-3.2944,-3.0736,-2.8723,-2.8778,-2.9728,-3.0913,-2.9198,-2.9844,-3.1329,-2.8521,-2.7501,-2.7501,-2.7493,-2.7622,-2.775,0.0,0.0,0.0,0.0,0.0,-2.7842,-3.2271,-3.4087,-3.5661,-3.9496,-4.0928,-4.1644,-4.2653,0.0,-4.324,0.0,0.0,0.0,0.0,0.0,0.0,0.0,0.0,0.0,0.0,0.0,0.0,0.0,0.0,0.0,0.0,0.0,0.0,0.0,0.0,0.0,-4.3515,-4.3515,-4.3515,-4.3515,-4.3515,-4.3515,-4.3515,-4.3515,-4.3515,-4.3515,-4.3515,-4.3515,-4.3496,-4.3277,-4.3185,-4.3221,-4.3423,-4.3515,-4.3478,-4.3277,-4.3185,-4.3167,-4.2965,-4.2892,-4.2892,-4.2892,-4.2892,-4.2892,0.0,0.0,0.0,0.0,0.0,0.0,0.0,0.0,0.0,0.0,0.0,0.0,-3.0265,-2.95,-2.8693,-2.7934,0.0,0.0,0.0,0.0,0.0,0.0,0.0,0.0,-3.0283,-2.9519,-2.95,-3.0265,-2.95,-3.199,-3.7437,-3.7437,-3.9567,-4.3276,-4.0907,-3.8487,-3.6119,-3.4394,-3.2724,-3.1231,-3.1494,-3.1053,-3.0528,-3.2903,-3.3274,-3.2307,-3.0632,-3.0008,-2.9677,-2.742,-2.7163,-2.7658,-2.6906,-2.6657,-2.6502,0.0,0.0,0.0,-2.8418,-2.9904,-3.1311,-3.4564,-3.7151,-3.9313,-4.0857,0.0,0.0,0.0,0.0,0.0,0.0,0.0,0.0,0.0,0.0,0.0,0.0,0.0,0.0,0.0,0.0,0.0,0.0,0.0,0.0,0.0,0.0,0.0,-4.3515,-4.3515,-4.3515,-4.3515,-4.3515,-4.3515,-4.3515,-4.3515,-4.3515,-4.3515,-4.3515,-4.3515,-4.3478,-4.2708,-4.2359,-4.2396,-4.3167,-4.3515,-4.3441,-4.2671,-4.2359,-4.2286,-4.1517,-4.1224,-4.1224,-4.1224,-4.1224,-4.1224,0.0,0.0,0.0,0.0,0.0,0.0,0.0,0.0,0.0,0.0,0.0,0.0,0.0,-2.9482,-2.8877,-2.8601,-2.8099,0.0,0.0,0.0,0.0,0.0,0.0,0.0,-2.9445,-2.865,-2.8374,-2.865,-2.8374,-3.0063,-3.3618,-3.4646,-3.6483,-3.8906,-3.9056,-3.8652,-3.7624,-3.4412,-3.2394,-3.1378,-3.1187,-3.2313,-3.3968,-3.252,-3.3851,-3.6101,-3.2894,-3.1421,0.0,-2.9971,-2.92,-2.8345,-2.7024,-2.6602,-2.6337,-2.5016,-2.4787,-2.5448,-2.764,-2.8822,-3.0198,-3.3426,-3.5716,-3.7588,-3.9203,-4.0581,0.0,0.0,0.0,0.0,0.0,0.0,0.0,0.0,0.0,0.0,0.0,0.0,0.0,0.0,0.0,0.0,0.0,0.0,0.0,0.0,0.0,0.0,-4.3515,-4.3515,-4.3515,-4.3515,-4.3002,-4.2488,-4.1974,-4.1974,-4.1974,-4.1974,-4.1974,-4.1974,-4.1956,-4.1645,-4.1534,-4.1535,-4.1827,-4.1974,-4.1937,-4.1662,-4.1534,-4.1515,-4.1205,-4.1095,-4.1095,-4.1095,-4.1095,-4.1095,0.0,0.0,0.0,0.0,0.0,0.0,0.0,0.0,-2.9794,-2.9794,0.0,0.0,0.0,0.0,-2.8895,-2.862,-2.786,-2.7622,-2.8161,-2.7952,0.0,0.0,0.0,0.0,-2.9005,-2.8209,-2.7798,-2.7798,-2.7798,-2.89,-3.1017,-3.2632,-3.4284,-3.5899,-3.6431,-3.7257,-3.8102,-3.511,-3.3366,-3.2562,-3.2164,-3.3735,-3.6135,-3.4639,-3.6168,-3.8744,-3.6028,0.0,0.0,0.0,0.0,-2.9115,-2.7512,-2.6447,-2.5585,-2.4502,-2.4585,-2.5227,-2.6311,-2.7181,-2.8503,-3.1458,-3.3238,-3.489,-3.7331,0.0,0.0,0.0,0.0,0.0,0.0,0.0,0.0,0.0,0.0,0.0,0.0,0.0,0.0,0.0,0.0,0.0,0.0,0.0,0.0,0.0,0.0,0.0,-4.3094,-4.2837,-4.269,-4.269,-4.2176,-4.1644,-4.1113,-4.1095,-4.1095,-4.1095,-4.1095,-4.1095,-4.1095,-4.0836,-4.0708,-4.0689,-4.0398,-4.06,-4.1077,-4.0802,-4.0708,-4.0671,-4.0398,-4.0288,-4.0288,-4.0288,-4.0288,-4.0288,0.0,0.0,0.0,0.0,0.0,0.0,0.0,0.0,-2.9042,-2.9078,0.0,0.0,0.0,0.0,0.0,-2.7945,-2.7145,-2.6657,-2.6657,-2.7365,0.0,0.0,0.0,0.0,-2.9005,-2.8209,-2.7787,-2.775,-2.775,-2.8539,-3.0099,-3.1715,-3.3298,-3.4766,-3.3225,-3.4302,-3.7235,-3.645,-3.5697,-3.4975,-3.4654,-3.5284,-3.668,-3.9507,-4.0345,-3.9976,-3.9974,-3.845,0.0,-3.4504,0.0,0.0,-2.8338,-2.6153,-2.4226,-2.4208,-2.4226,-2.4263,0.0,0.0,0.0,-2.8308,0.0,0.0,-3.5202,0.0,0.0,0.0,0.0,0.0,0.0,0.0,0.0,0.0,0.0,0.0,0.0,0.0,0.0,0.0,0.0,0.0,0.0,0.0,0.0,0.0,0.0,-4.2268,-4.2268,-4.1517,-4.1095,-4.1058,-4.1058,-4.104,-4.1022,-4.1022,-4.1022,-4.1022,-4.1022,-4.1022,-4.1003,-4.0212,-3.9845,-3.9808,-3.9038,-3.9588,-4.0967,-4.0194,-3.9845,-3.979,-3.9001,-3.8707,-3.8707,-3.8707,-3.8707,-3.8707,0.0,0.0,0.0,0.0,0.0,-3.2284,-3.2284,-3.0895,-3.0081,0.0,0.0,0.0,-2.9879,-2.9879,-2.9787,-2.9567,-2.8803,-2.8345,-2.8345,-2.7446,-2.7446,-2.862,-2.8319,-2.8411,-2.8987,-2.8209,-2.7512,-2.6924,-2.6924,-2.6851,-2.677,-2.8374,-2.9677,-3.0675,-3.0803,-3.1366,-3.2192,-3.1971,-3.3078,-3.4879,-3.3546,-3.5114,-3.825,-3.8255,0.0,0.0,0.0,-4.0836,-3.9517,0.0,-3.5701,-3.2986,-2.9035,-2.6549,-2.4952,-2.4373,-2.5016,-2.5676,-2.452,0.0,0.0,0.0,0.0,0.0,0.0,0.0,0.0,0.0,0.0,0.0,0.0,0.0,0.0,0.0,0.0,0.0,0.0,0.0,0.0,0.0,0.0,0.0,0.0,0.0,0.0,0.0,0.0,-4.1425,-4.1425,-4.1224,-4.082,-4.0249,-4.023,-3.9955,-3.9368,-3.9368,-3.9368,-3.9368,-3.9368,-3.9368,-3.9368,-3.9129,-3.9038,-3.9019,-3.8799,-3.8946,-3.935,-3.9129,-3.9038,-3.9019,-3.8799,-3.8707,-3.8707,-3.8707,-3.8707,-3.8707,0.0,0.0,0.0,-3.3807,-3.3421,-3.3096,-3.3096,-3.2027,-3.1366,0.0,0.0,0.0,-3.0705,-3.0999,-3.0925,-3.0265,-2.9757,-2.9225,-2.8528,-2.7622,-2.7365,-2.7959,-2.786,-2.8026,-2.8491,-2.8374,-2.775,-2.6602,-2.6602,-2.6025,-2.4934,-2.6201,-2.7053,-2.753,-2.7989,-2.8374,-2.8686,-2.8338,-3.0246,-3.3524,-3.376,-3.5527,0.0,-3.8518,-3.9936,0.0,0.0,0.0,-4.1003,-4.0414,-3.7885,0.0,0.0,-2.7934,-2.6686,-2.5548,-2.6098,-2.6814,-2.5548,-2.5897,-2.6576,-2.6439,0.0,0.0,0.0,-3.0558,0.0,0.0,0.0,0.0,0.0,0.0,0.0,0.0,0.0,0.0,0.0,0.0,0.0,0.0,0.0,0.0,0.0,0.0,0.0,0.0,-4.1056,-4.0451,-4.0104,-4.0086,-3.9882,-3.9405,-3.9405,-3.9166,-3.8707,-3.8707,-3.8524,-3.8193,-3.8193,-3.801,-3.7698,-3.7698,-3.7698,-3.7716,-3.8046,-3.8193,-3.823,-3.856,-3.8707,-3.8707,-3.8707,-3.8707,-3.8707,-3.8707,-3.8707,-3.8707,0.0,0.0,-3.3715,-3.3899,-3.3935,-3.3972,-3.4064,-3.3311,-3.2803,0.0,-3.2302,-3.1843,-3.1929,-3.2339,-3.2051,-3.0723,-3.0356,-2.9549,-2.8026,-2.778,-2.7346,-2.662,-2.7291,-2.7658,-2.7658,-2.8528,-2.818,-2.6465,-2.6557,-2.5786,-2.4208,-2.4934,-2.5264,-2.5264,-2.5264,-2.5668,-2.63,-2.587,-2.7835,-3.1505,-3.4328,-3.6025,0.0,0.0,-4.0581,-4.0727,-4.2773,-4.258,-4.1425,-4.1882,-3.9022,0.0,0.0,0.0,0.0,-2.7354,-2.7493,-2.7989,-2.7108,-2.6932,-2.7126,-2.7658,0.0,0.0,-2.9347,-2.9806,0.0,0.0,0.0,0.0,0.0,0.0,0.0,0.0,0.0,0.0,0.0,0.0,0.0,0.0,0.0,0.0,0.0,0.0,0.0,-4.0967,-4.0212,-3.9441,-3.8744,-3.8707,-3.8707,-3.8707,-3.8615,-3.8579,-3.8579,-3.8487,-3.8065,-3.7364,-3.7364,-3.6997,-3.6303,-3.6303,-3.6303,-3.634,-3.707,-3.7364,-3.7419,-3.8138,-3.8542,-3.8707,-3.8707,-3.8707,-3.8707,-3.8707,-3.8707,-3.8707,0.0,-3.3293,-3.3243,-3.4546,-3.4766,-3.5004,-3.5716,-3.4523,-3.4045,-3.5404,-3.4821,-3.4564,-3.5275,-3.3697,-3.2729,-3.3073,-3.1329,-2.9787,-2.8822,-2.7537,-2.6759,-2.6602,-2.6759,-2.6833,-2.6833,-2.8253,-2.7886,-2.5631,-2.6282,-2.5786,-2.419,-2.4355,-2.4428,-2.4428,-2.4428,-2.452,-2.4795,-2.6568,-2.8521,-3.0577,-3.213,-3.5076,-3.8671,-3.9986,-4.1195,-4.2335,-4.3194,-4.3313,-4.2745,-4.0965,-3.8872,-3.6446,0.0,0.0,0.0,-2.9189,-2.9567,-3.0375,-2.8932,-2.9005,-2.9219,0.0,0.0,0.0,-2.7482,-2.7299,0.0,0.0,0.0,0.0,0.0,0.0,0.0,0.0,0.0,0.0,0.0,0.0,0.0,0.0,0.0,0.0,0.0,0.0,-4.012,-4.012,-3.9386,-3.8872,-3.8707,-3.8707,-3.8707,-3.8707,-3.8065,-3.7731,-3.7731,-3.7092,-3.6688,-3.6523,-3.6523,-3.645,-3.6303,-3.6303,-3.6303,-3.6303,-3.6468,-3.6523,-3.6556,-3.6688,-3.7533,-3.8707,-3.8707,-3.8707,-3.8707,-3.8707,-3.8707,-3.8707,-3.2375,-3.2926,-3.333,-3.3738,-3.4472,-3.5298,-3.6174,-3.5587,-3.5495,-3.674,-3.6523,-3.6101,-3.5701,-3.4926,-3.4119,-3.3261,-3.1733,-3.0283,-2.9078,-2.7482,-2.6429,-2.6025,-2.5988,-2.619,-2.6583,-2.7391,-2.7207,-2.5988,-2.5988,-2.5383,-2.419,-2.419,-2.4494,-2.502,-2.446,-2.4732,-2.5695,-2.6329,-2.775,-2.9868,-3.3038,0.0,-3.9193,-4.0908,-4.2027,-4.2769,-4.3322,-4.3239,-4.2525,-4.012,-3.8487,0.0,0.0,-3.3793,-3.3408,0.0,-3.1659,-3.2247,-3.0632,0.0,0.0,-2.9292,0.0,0.0,0.0,0.0,-2.7071,0.0,0.0,0.0,0.0,0.0,0.0,0.0,0.0,0.0,0.0,0.0,0.0,0.0,0.0,0.0,0.0,0.0,-3.8704,-3.8704,-3.8322,-3.8102,-3.8102,-3.7716,-3.7679,-3.8083,-3.7327,-3.6905,-3.6905,-3.6486,-3.6083,-3.5646,-3.5646,-3.544,-3.5055,-3.5055,-3.5055,-3.5073,-3.5477,-3.5646,-3.5697,-3.6119,-3.678,-3.7496,-3.7496,-3.7496,-3.7496,-3.7496,-3.7496,-3.7496,-3.1342,-3.232,-3.2999,-3.2656,-3.3793,-3.5059,-3.5917,-3.6046,-3.634,-3.7162,-3.7401,-3.7107,-3.605,-3.6156,-3.5679,-3.4142,-3.2559,-3.1072,-2.9776,-2.8033,-2.6704,-2.5907,-2.5705,-2.5944,-2.6594,-2.6602,-2.6447,-2.6135,-2.565,-2.4989,-2.419,-2.419,-2.4772,-2.5768,-2.4994,-2.5629,-2.7176,-2.6421,-2.7523,-3.016,0.0,-3.6904,-3.8304,-4.0926,-4.194,-4.2032,-4.2754,-4.2616,-4.1717,-3.946,-3.8267,-3.7419,-3.5573,-3.5224,0.0,0.0,0.0,0.0,0.0,0.0,0.0,0.0,0.0,-2.9537,0.0,0.0,0.0,-2.9182,0.0,0.0,0.0,0.0,0.0,0.0,0.0,0.0,0.0,0.0,0.0,0.0,0.0,0.0,0.0,0.0,-3.6923,-3.7235,-3.6978,-3.6923,-3.7254,-3.6652,-3.6597,-3.7254,-3.6468,-3.6046,-3.6046,-3.5899,-3.5477,-3.4766,-3.4766,-3.4417,-3.3807,-3.3807,-3.3807,-3.3844,-3.4491,-3.4766,-3.4821,-3.5532,-3.5826,-3.5844,-3.6156,-3.6303,-3.6303,-3.6303,-3.6303,-3.6303,-3.1109,-3.0962,-3.1035,-3.2362,-3.3348,-3.4211,-3.5023,-3.5151,-3.5463,-3.6321,-3.707,-3.797,-3.9203,-3.7514,-3.7037,-3.8909,-3.5018,-3.2381,-3.2197,-3.0014,-2.8363,-2.7559,-2.6833,-2.6521,-2.6602,-2.6602,-2.5897,-2.4465,-2.5099,-2.4989,-2.419,-2.419,-2.4647,-2.5478,-2.6059,-2.6848,-2.775,-2.8333,-3.0165,0.0,-3.4042,-3.4489,0.0,-3.7952,-3.9161,-3.9344,-4.084,-4.1297,-4.0967,0.0,-3.8634,-3.8157,0.0,-3.6028,-3.6758,-3.4357,0.0,0.0,0.0,0.0,0.0,0.0,-3.1733,0.0,0.0,0.0,-2.84,-2.7244,0.0,0.0,0.0,0.0,0.0,0.0,0.0,0.0,0.0,0.0,0.0,0.0,0.0,0.0,0.0,0.0,0.0,-3.6321,-3.5055,-3.4871,-3.6358,-3.634,-3.634,-3.6431,-3.5591,-3.5151,-3.5151,-3.4449,-3.4027,-3.3935,-3.3935,-3.3899,-3.3807,-3.3807,-3.3807,-3.3807,-3.3899,-3.3935,-3.3935,-3.4045,-3.4082,-3.4229,-3.5716,-3.6303,-3.6303,-3.6303,-3.6303,-3.6303,-2.9787,-3.0485,-3.0962,-3.1182,-3.1861,-3.2834,-3.4119,-3.5922,-3.711,-3.7015,-3.8098,-3.8964,-3.9184,-3.8303,-3.8102,-3.9129,-3.6468,-3.4527,0.0,0.0,-3.0026,-2.9237,-2.797,-2.7291,-2.7291,-2.6374,-2.5576,-2.4897,-2.4768,-2.453,-2.419,-2.419,-2.4978,-2.6388,-2.6534,-2.7938,-3.0184,-2.9362,-2.9936,0.0,0.0,0.0,0.0,-3.7603,-3.9836,-4.0104,-4.0341,-4.0396,-4.0157,0.0,-3.7679,0.0,0.0,0.0,0.0,0.0,0.0,0.0,0.0,0.0,0.0,0.0,0.0,0.0,-2.9714,0.0,-2.8374,0.0,0.0,0.0,0.0,0.0,0.0,0.0,0.0,0.0,0.0,0.0,0.0,0.0,0.0,0.0,0.0,0.0,0.0,0.0,0.0,-3.3623,-3.4798,-3.4853,-3.5055,-3.5518,-3.4729,-3.4289,-3.4289,-3.3972,-3.3807,-3.3807,-3.3807,-3.3807,-3.3807,-3.3807,-3.3807,-3.3807,-3.3807,-3.3807,-3.3807,-3.3807,-3.3807,-3.3862,-3.4578,-3.4853,-3.4853,-3.4853,-3.4853,-3.4853,-2.884,-2.9953,-3.0558,-2.9971,-3.054,-3.1678,-3.3513,-3.6009,-3.7643,-3.7529,-3.8521,-3.9258,-3.935,-3.9166,-3.9294,-3.9955,-3.834,-3.6927,0.0,0.0,-3.2137,-3.1537,-2.9549,-2.8558,-2.8789,-2.6788,-2.5613,-2.5393,-2.4585,-2.419,-2.419,-2.419,-2.5067,-2.6651,-2.7061,-2.8955,-3.1769,0.0,-3.0961,-3.2009,-3.2369,-3.2437,-3.2798,-3.7437,-3.9715,-4.0361,-3.9772,-3.957,-3.935,-3.797,-3.7107,0.0,-3.707,0.0,0.0,0.0,0.0,0.0,-3.4082,0.0,0.0,0.0,0.0,0.0,0.0,0.0,0.0,0.0,0.0,0.0,0.0,0.0,0.0,-2.6649,0.0,0.0,0.0,0.0,0.0,0.0,0.0,0.0,0.0,0.0,0.0,0.0,0.0,0.0,-3.3385,-3.3476,-3.383,-3.4656,-3.41,-3.3807,-3.3807,-3.3807,-3.3807,-3.3807,-3.3807,-3.3807,-3.3807,-3.3807,-3.3807,-3.3788,-3.3568,-3.3605,-3.377,-3.3568,-3.3605,-3.3807,-3.3807,-3.3807,-3.3807,-3.3807,-3.3807,-3.3807,-2.884,-2.9042,-2.9078,-2.9042,-2.9702,-3.1035,-3.344,-3.4546,-3.5683,-3.729,-3.7547,0.0,0.0,0.0,0.0,0.0,0.0,-3.9441,-3.8634,0.0,-3.4876,-3.4857,-3.1812,-3.0485,0.0,-2.8172,-2.6172,-2.5393,-2.4585,-2.419,-2.419,-2.419,-2.4649,-2.5566,-2.7886,-2.9849,-3.1518,-3.3018,-3.4739,-3.6433,-3.5676,-3.6287,-3.7564,0.0,-3.7408,-3.8781,-3.8762,0.0,0.0,-3.7786,-3.7474,0.0,0.0,0.0,0.0,0.0,0.0,0.0,0.0,0.0,0.0,-3.087,0.0,0.0,0.0,0.0,-2.8987,0.0,0.0,0.0,0.0,-2.8319,-2.7512,-2.6741,-2.6602,0.0,0.0,0.0,0.0,0.0,0.0,0.0,0.0,0.0,0.0,0.0,0.0,0.0,-3.2472,-3.2638,-3.3005,-3.3807,-3.3807,-3.3807,-3.3807,-3.3807,-3.3807,-3.3807,-3.3807,-3.3807,-3.3807,-3.3807,-3.3807,-3.3752,-3.2968,-3.3091,-3.3733,-3.2949,-3.3096,-3.3807,-3.3807,-3.3807,-3.3807,-3.3807,-3.3807,-3.3807,-2.884,-2.9005,-2.9005,-2.9005,-2.9225,-3.0216,-3.2651,-3.5073,-3.7037,0.0,0.0,0.0,0.0,-4.1644,-4.2029,0.0,0.0,-4.1148,-4.0325,-3.8508,0.0,0.0,-3.4821,-3.3243,0.0,0.0,0.0,-2.699,-2.565,-2.5283,-2.5768,-2.4704,-2.4905,-2.6245,-2.7603,-2.9696,0.0,0.0,0.0,0.0,0.0,-3.6465,-3.8394,0.0,0.0,-3.8707,-3.8707,-3.8707,0.0,-3.8395,-3.7951,-3.7547,-3.7808,-3.6945,-3.5862,-3.5862,-3.5275,0.0,0.0,0.0,-3.4142,-3.2252,0.0,0.0,0.0,0.0,0.0,0.0,0.0,0.0,0.0,-2.8338,-2.7714,-2.7438,-2.6502,-2.5613,0.0,0.0,0.0,0.0,0.0,0.0,0.0,0.0,0.0,0.0,0.0,0.0,0.0,-3.1513,-3.2173,-3.2968,-3.2485,-3.2467,-3.2999,-3.2485,-3.2485,-3.2999,-3.2467,-3.2485,-3.2986,-3.2449,-3.2223,-3.2192,-3.1916,-3.1953,-3.2241,-3.2491,-3.2748,-3.3073,-3.3587,-3.3807,-3.3807,-3.3807,-3.3807,-3.3807,-2.895,-2.9005,-2.9005,-2.9005,-2.9721,-3.0895,-3.2761,0.0,0.0,0.0,-4.0286,0.0,-4.2213,0.0,-4.2616,0.0,-4.302,-4.2268,-4.1168,-4.0123,0.0,-3.9148,-3.7055,0.0,0.0,0.0,0.0,0.0,-2.7045,-2.6374,-2.6565,-2.5254,-2.5181,-2.6227,-2.731,-2.9274,-3.1812,-3.2968,-3.4399,0.0,0.0,-3.7261,0.0,0.0,-3.8707,0.0,0.0,-3.8707,-3.8707,-3.8707,-3.8358,-3.797,-3.8193,-3.7184,-3.5881,-3.5862,-3.5073,-3.4174,-3.388,-3.4192,0.0,0.0,-3.177,0.0,-2.9372,0.0,0.0,0.0,0.0,0.0,0.0,0.0,-2.7798,-2.7798,-2.6458,-2.5301,0.0,0.0,0.0,0.0,0.0,0.0,0.0,0.0,-2.5521,-2.6843,0.0,0.0,0.0,0.0,-3.1329,-3.2155,-3.1659,-3.1654,-3.2173,-3.1659,-3.1659,-3.2173,-3.1654,-3.1659,-3.2155,-3.1641,-3.1397,-3.1378,-3.1103,-3.114,-3.1415,-3.1659,-3.2087,-3.2656,-3.3183,-3.355,-3.3807,-3.3807,-3.3807,-3.3807,-2.9207,-2.9115,-2.9189,0.0,-3.1041,0.0,0.0,0.0,-3.8909,0.0,-4.0634,-4.1462,-4.2268,-4.2359,-4.2671,-4.3441,-4.3515,-4.2837,-4.1315,-4.1168,0.0,0.0,-3.8539,-3.7658,-3.7621,0.0,0.0,0.0,0.0,-2.7402,-2.6649,-2.5797,-2.5393,-2.5466,-2.7045,-2.865,-3.0411,-3.3555,-3.5899,-3.7566,-3.8377,-3.8707,-3.8707,-3.8707,0.0,-3.8707,-3.8707,-3.8707,-3.8707,-3.8707,-3.867,-3.8505,-3.7749,-3.7437,-3.707,-3.5463,-3.4968,-3.4766,-3.4009,-3.3807,-3.3421,-3.1911,0.0,0.0,0.0,0.0,-3.0246,0.0,0.0,0.0,0.0,0.0,-2.789,-2.7816,-2.6458,-2.5117,-2.43,0.0,0.0,0.0,0.0,0.0,0.0,-2.419,-2.453,-2.5338,-2.6098,-2.7226,0.0,0.0,0.0,-3.1268,-3.1286,-3.1305,-3.1342,-3.1305,-3.1305,-3.1342,-3.1305,-3.1305,-3.1342,-3.1305,-3.1286,-3.125,-3.0467,-3.0577,-3.1231,-3.0503,-3.1097,-3.2491,-3.2528,-3.3018,-3.3697,-3.377,-3.377,-3.3752,-2.9934,-3.0858,-3.1684,0.0,-3.1696,-3.2375,0.0,0.0,0.0,0.0,-4.113,-4.2304,-4.3094,-4.3185,-4.3277,-4.3478,-4.3515,0.0,0.0,0.0,0.0,-4.256,-4.1038,-3.99,-3.931,-3.6083,0.0,-3.1977,0.0,-2.7688,-2.7457,-2.6054,-2.5393,-2.5429,-2.6465,-2.8136,-3.0338,-3.2362,-3.4871,-3.7566,-3.8377,-3.8707,0.0,0.0,-3.8707,-3.8707,-3.8707,-3.8707,-3.8707,-3.8707,-3.8303,-3.7768,-3.7566,-3.6633,-3.5555,-3.5133,-3.4582,-3.4064,-3.3862,-3.3807,-3.3697,-3.3293,-3.2265,-3.1286,0.0,0.0,0.0,0.0,0.0,0.0,0.0,0.0,0.0,-2.8,-2.6458,-2.5117,-2.43,0.0,0.0,0.0,0.0,0.0,0.0,0.0,-2.453,-2.5338,0.0,0.0,0.0,0.0,0.0,-2.9592,-2.961,-2.9898,-3.0503,-2.9916,-2.9922,-3.0503,-2.9898,-2.9934,-3.0485,-2.9886,-2.961,-2.9592,-2.939,-2.9427,-2.9647,-3.0044,-3.0448,-3.0889,-3.1476,-3.1825,-3.2155,-3.3348,-3.3421,-3.2986,-3.1256,0.0,0.0,-3.4156,0.0,0.0,-3.5826,0.0,0.0,-3.968,-4.0983,0.0,-4.2396,-4.3075,-4.3515,-4.3515,-4.3515,0.0,-4.3002,0.0,0.0,-4.2965,-4.2121,-4.1258,-4.0451,-3.7588,0.0,-3.3128,0.0,-2.8484,-2.775,-2.6146,-2.5393,-2.5429,-2.6245,-2.7548,-2.9329,-3.199,-3.4614,-3.7052,-3.7845,0.0,0.0,-3.8579,-3.8707,-3.8707,-3.8707,-3.8707,-3.8707,-3.8707,-3.8175,-3.7437,-3.7088,-3.6083,-3.4931,-3.4582,-3.4156,-3.3807,-3.3807,-3.3807,-3.3807,-3.3807,-3.3109,-3.2357,-3.2008,-3.1916,-3.1806,0.0,0.0,0.0,0.0,0.0,0.0,-2.7082,-2.598,-2.5117,0.0,0.0,0.0,0.0,0.0,0.0,0.0,0.0,0.0,0.0,0.0,0.0,0.0,0.0,0.0,0.0,-2.8822,-2.9225,-2.9666,-2.9225,-2.9225,-2.9666,-2.9225,-2.9244,-2.9647,-2.9207,-2.9005,-2.9005,-2.9005,-2.9005,-2.9042,-2.9482,-2.9879,-3.0283,-3.1091,-3.1195,-3.1017,-3.2284,-3.2687,-3.2711,-3.2748,0.0,0.0,0.0,0.0,0.0,0.0,-3.8469,0.0,-3.9955,0.0,-4.1407,-4.1407,-4.2653,-4.3515,-4.3515,0.0,-4.3185,-4.2506,-4.3112,-4.3185,-4.2488,-4.2451,-4.2029,-4.1113,-3.8836,-3.6391,0.0,0.0,-2.931,-2.7603,-2.609,-2.5338,-2.5283,-2.608,-2.7071,0.0,-3.2173,-3.4761,-3.6358,-3.718,-3.7566,-3.7731,-3.8432,-3.8707,-3.8707,-3.8707,-3.8707,-3.8689,-3.8579,-3.801,-3.7199,-3.6376,-3.5536,-3.4711,-3.4009,-3.3807,-3.3807,-3.3807,-3.3807,-3.3807,-3.3807,-3.3807,-3.3623,-3.2913,-3.2748,-3.2748,-3.2748,-3.2192,0.0,0.0,0.0,0.0,-2.6072,0.0,0.0,0.0,0.0,0.0,0.0,0.0,0.0,0.0,0.0,0.0,0.0,0.0,0.0,0.0,0.0,0.0,0.0,-2.8429,0.0,-2.9005,0.0,-2.9005,-2.9005,-2.9005,-2.9005,-2.9005,-2.9005,-2.9005,-2.9005,-2.9005,-2.9005,-2.9005,-2.9005,-2.9409,-3.0118,-3.0797,-3.065,-3.0136,-3.0944,-3.1696,-3.2417,-3.3587,0.0,0.0,0.0,0.0,-3.9533,-4.0359,-4.0029,-3.9974,-4.0765,-4.2176,-4.3075,-4.3075,-4.3331,-4.3515,-4.3515,-4.3515,0.0,0.0,0.0,0.0,-4.3313,-4.3277,-4.2598,-4.1132,-3.9386,-3.6945,0.0,0.0,-2.9035,-2.6796,-2.5833,-2.5044,-2.4456,-2.5246,-2.7174,-2.9953,-3.2669,0.0,-3.6358,-3.718,-3.7915,-3.8505,-3.8652,-3.8707,-3.8707,-3.8707,-3.8707,-3.8597,-3.7933,-3.718,-3.6358,-3.55,-3.4674,-3.399,-3.3844,-3.3807,-3.3807,-3.3807,-3.3807,-3.3807,-3.3807,-3.3807,-3.3752,-3.3623,-3.3587,-3.3587,-3.3587,-3.3476,-3.3256,-3.2876,0.0,0.0,0.0,0.0,0.0,0.0,0.0,0.0,0.0,0.0,0.0,0.0,0.0,0.0,0.0,0.0,0.0,0.0,0.0,0.0,0.0,0.0,0.0,0.0,0.0,0.0,-2.9005,-2.9005,-2.9005,-2.9005,-2.9005,-2.9005,-2.9005,-2.9005,-2.9005,-2.9005,-2.9005,-2.9078,-2.9225,-2.9372,-2.9335,-2.9317,-3.0118,-3.0503,-3.0834,-3.6964,0.0,0.0,0.0,0.0,0.0,0.0,-4.1754,0.0,-4.115,-4.1772,-4.2268,-4.2268,-4.3002,-4.3515,-4.3515,-4.3515,-4.3515,-4.3515,-4.3515,-4.3515,-4.3515,-4.3515,0.0,-4.1132,-3.9937,-3.7514,-3.3807,0.0,0.0,-2.6583,-2.5778,-2.497,-2.4263,-2.5907,-2.8202,0.0,0.0,0.0,-3.5752,-3.6997,-3.7731,-3.812,-3.8542,-3.8707,-3.8707,-3.8707,-3.8707,-3.8579,-3.7768,-3.6978,-3.6156,-3.5261,-3.4454,-3.3807,-3.3807,-3.3807,-3.3807,-3.3807,-3.3807,-3.3807,-3.3807,-3.3807,-3.3807,-3.3807,-3.3807,-3.3807,-3.3807,-3.3807,-3.355,-3.2748,-3.0968,0.0,0.0,0.0,0.0,0.0,0.0,0.0,0.0,0.0,0.0,0.0,0.0,0.0,0.0,0.0,0.0,0.0,0.0,0.0,0.0,0.0,0.0,0.0,0.0,0.0,-2.9005,-2.9005,-2.9005,-2.9005,-2.9005,-2.9005,-2.9005,-2.9005,-2.9005,-2.9005,-2.9005,-2.9005,-2.9005,-2.9005,-2.9005,-2.906,-2.9427,-2.9831,-3.0375,0.0,-3.9662,0.0,0.0,-4.0598,0.0,-4.2103,-4.2983,-4.3039,-4.1791,-4.1625,-4.1625,-4.1625,-4.2745,-4.3515,-4.3515,-4.3515,-4.3515,-4.3515,-4.3515,-4.3515,-4.3515,-4.3515,-4.2745,-4.1132,-4.0487,-3.8157,0.0,0.0,0.0,0.0,-2.6098,-2.5411,0.0,0.0,0.0,0.0,0.0,-3.4376,-3.5408,-3.689,-3.7603,-3.7823,-3.8469,-3.8707,-3.8689,-3.8505,-3.8432,-3.8285,-3.7294,-3.667,-3.6119,-3.5059,-3.4307,-3.3807,-3.3807,-3.3807,-3.3807,-3.3807,-3.3807,-3.3807,-3.3807,-3.3807,-3.3807,-3.3807,-3.3678,-3.3532,-3.3532,-3.3403,-3.3091,-3.2467,-3.1182,0.0,0.0,0.0,0.0,0.0,0.0,0.0,0.0,0.0,0.0,0.0,0.0,0.0,0.0,0.0,0.0,-2.419,-2.4805,0.0,0.0,0.0,0.0,-2.7798,0.0,-2.9005,0.0,-2.9005,-2.9005,-2.9005,-2.9005,-2.9005,-2.9005,-2.9005,-2.9005,-2.9005,-2.9005,-2.9005,-2.9005,-2.9005,-2.9005,-2.9005,-2.9005,-2.939,-3.0044,0.0,0.0,0.0,0.0,0.0,0.0,0.0,-4.2983,-4.346,-4.3313,-4.3277,-4.3277,-4.3277,-4.3423,-4.3515,-4.3515,-4.3515,-4.3515,-4.3515,-4.3515,-4.3515,-4.3515,-4.3515,-4.2745,-4.1132,-4.1022,-3.8985,0.0,0.0,0.0,0.0,0.0,0.0,0.0,0.0,0.0,0.0,-3.3109,-3.4724,-3.6266,-3.7144,-3.7951,-3.8597,-3.867,-3.8707,-3.8597,-3.7878,-3.7621,-3.7382,-3.5775,-3.5701,-3.6009,-3.4412,-3.3862,-3.3807,-3.3807,-3.3807,-3.3807,-3.3807,-3.3807,-3.3807,-3.3807,-3.3807,-3.3807,-3.3807,-3.3238,-3.2711,-3.2711,-3.2137,-3.1599,-3.1525,-3.0797,-2.9696,0.0,0.0,0.0,0.0,0.0,-2.6565,-2.6502,0.0,0.0,0.0,0.0,0.0,0.0,0.0,0.0,0.0,-2.4263,0.0,-2.5374,0.0,-2.7053,-2.7787,-2.8601,0.0,-2.9005,-2.9005,-2.9005,-2.9005,-2.9005,-2.9005,-2.9005,-2.9005,-2.9005,-2.9005,-2.9005,-2.9005,-2.9005,-2.9005,-2.9005,-2.9005,-2.9005,-2.906,-2.9115,0.0,0.0,0.0,0.0,0.0,0.0,0.0,-4.3277,-4.3515,-4.3515,-4.3515,-4.3515,-4.3515,-4.3515,-4.3515,-4.3515,-4.3515,-4.3515,-4.3515,-4.3515,-4.3515,-4.3515,-4.3515,-4.2745,-4.1132,-4.1095,-3.9352,0.0,0.0,0.0,0.0,0.0,0.0,0.0,0.0,-3.1788,-3.2981,-3.5124,-3.6409,-3.7088,-3.79,-3.8414,-3.8707,-3.8707,-3.8707,-3.867,-3.834,-3.8212,-3.8046,-3.689,-3.6064,-3.5316,-3.4156,-3.3807,-3.3807,-3.3807,-3.3807,-3.3807,-3.3807,-3.3807,-3.3807,-3.3807,-3.3807,-3.3678,-3.3201,-3.2821,-3.2454,-3.1971,-3.1237,-3.0834,-3.1323,-3.0356,-2.9427,0.0,0.0,0.0,0.0,0.0,0.0,-2.6667,0.0,-2.5081,0.0,0.0,0.0,0.0,0.0,0.0,0.0,0.0,0.0,-2.4677,0.0,-2.6521,-2.6366,-2.8117,-2.8767,-2.8282,-2.8767,-2.9005,-2.9005,-2.9005,-2.9005,-2.9005,-2.9005,-2.9005,-2.9005,-2.9005,-2.9005,-2.9005,-2.9005,-2.9005,-2.9005,-2.9005,-2.9005,-2.9005,-4.3515,0.0,-4.2158,0.0,-4.2561,-4.2194,-4.3331,-4.3515,-4.3515,-4.3515,-4.3515,-4.3515,-4.3515,-4.3515,-4.3515,-4.3515,-4.3515,-4.3515,-4.3515,-4.3515,-4.3515,-4.3515,-4.3276,0.0,-4.1132,-4.0873,-3.9405,-3.6652,-3.5807,0.0,0.0,0.0,0.0,0.0,-3.2803,-3.3757,-3.4669,-3.6666,-3.7492,-3.7566,-3.8377,-3.8707,-3.8707,-3.8707,-3.8707,-3.867,-3.8432,-3.834,-3.8212,-3.7419,-3.6358,-3.5243,-3.4399,-3.4156,-3.4119,-3.3862,-3.3807,-3.3807,-3.3807,-3.3807,-3.3807,-3.3807,-3.3807,-3.3587,-3.2784,-3.2417,-3.2027,-3.1201,-3.0411,-3.0099,-3.0889,-2.9934,-2.9115,0.0,0.0,0.0,0.0,0.0,0.0,0.0,-2.5676,-2.4824,-2.4263,0.0,0.0,0.0,0.0,0.0,0.0,0.0,0.0,0.0,0.0,0.0,0.0,0.0,-2.8712,-2.8154,-2.873,-2.9005,-2.9005,-2.9005,-2.9005,-2.9005,-2.9005,-2.9005,-2.9005,-2.9005,-2.9005,-2.9005,-2.9005,-2.9005,-2.9005,-2.9005,-2.9005,-2.9005,-4.3515,-4.3478,-4.3478,-4.3515,-4.3478,-4.3478,-4.3515,-4.3515,-4.3515,-4.3515,-4.3515,-4.3515,-4.3515,-4.3515,-4.3515,-4.3515,-4.3515,-4.3515,-4.3515,-4.3515,-4.3515,0.0,0.0,-4.1937,-4.1113,-4.0322,-3.9126,-3.7492,0.0,0.0,-3.4949,0.0,0.0,-3.4949,-3.4954,-3.5445,-3.6321,-3.7144,-3.7492,-3.7566,-3.8377,-3.8707,-3.8707,-3.8707,-3.8707,-3.8597,-3.7804,-3.7511,-3.7382,-3.6578,-3.6303,-3.6138,-3.5261,-3.4986,-3.4839,-3.4027,-3.3807,-3.3807,-3.3807,-3.3807,-3.3807,-3.3807,-3.3807,-3.3587,-3.2784,-3.199,-3.1195,-3.0375,-2.9574,-2.9262,-3.0081,-2.9537,-2.873,-2.7952,0.0,0.0,0.0,0.0,0.0,0.0,-2.5199,-2.4208,-2.419,0.0,0.0,0.0,0.0,0.0,0.0,0.0,0.0,-2.419,-2.5768,0.0,-2.6594,-2.8198,-2.9005,-2.8987,-2.9005,-2.9005,-2.9005,-2.9005,-2.9005,-2.9005,-2.9005,-2.9005,-2.9005,-2.9005,-2.9005,-2.9005,-2.9005,-2.9005,-2.9005,-2.9005,-2.9005,-2.9005,-4.3515,-4.3515,-4.3515,-4.3515,-4.3515,-4.3515,-4.3515,-4.3515,-4.3515,-4.3515,-4.3515,-4.3515,-4.3515,-4.3515,-4.3515,0.0,-4.3515,-4.3515,0.0,-4.3515,-4.3515,-4.3515,-4.324,-4.2488,-4.1132,-4.0838,-3.9937,-3.8322,0.0,0.0,0.0,-3.5624,-3.5642,-3.5917,-3.645,-3.6868,-3.718,-3.7973,-3.8322,-3.834,-3.8597,-3.8707,-3.8707,-3.8707,-3.8707,-3.867,-3.8414,-3.8322,-3.8285,-3.8028,-3.7936,-3.779,-3.6964,-3.5917,-3.4949,-3.4692,-3.4215,-3.3807,-3.3807,-3.3807,-3.3807,-3.3807,-3.3807,-3.344,-3.2082,-3.0742,-2.9684,-2.9427,-2.9189,-2.9078,-2.9335,-2.917,-2.8932,-2.8656,0.0,0.0,0.0,0.0,0.0,0.0,-2.5181,-2.419,0.0,-2.419,0.0,0.0,0.0,0.0,0.0,0.0,0.0,0.0,-2.5768,0.0,-2.5797,-2.7923,-2.8712,-2.8191,-2.873,-2.9005,-2.9005,-2.9005,-2.9005,-2.9005,-2.9005,-2.9005,-2.9005,-2.9005,-2.9005,-2.9005,-2.9005,-2.9005,-2.9005,-2.9005,-2.9005,-2.9005,-4.3515,-4.3515,-4.3515,-4.3515,-4.3515,-4.3515,-4.3515,-4.3515,-4.3515,-4.3515,-4.3515,-4.3515,-4.3515,-4.3515,0.0,-4.3515,-4.3515,0.0,-4.3515,-4.3515,-4.3515,-4.3515,-4.3221,-4.258,-4.1572,0.0,0.0,-3.9148,-3.834,-3.7679,-3.7202,-3.7202,-3.7202,-3.7221,-3.7716,-3.7936,-3.7988,-3.8487,-3.8707,-3.8707,-3.8707,-3.8707,-3.8707,-3.8707,-3.8707,-3.8707,-3.8707,-3.8707,-3.8707,-3.8707,-3.8707,-3.856,-3.7749,-3.678,-3.5811,-3.5188,-3.4637,-3.4192,-3.388,-3.3807,-3.3807,-3.3807,-3.3807,-3.3385,-3.1782,-3.0393,-2.9354,-2.906,-2.9005,-2.9005,-2.9005,-2.9005,-2.9005,-2.9005,0.0,-2.8895,-2.8583,0.0,0.0,0.0,0.0,0.0,0.0,-2.4924,0.0,0.0,0.0,0.0,0.0,0.0,0.0,-2.419,-2.5768,0.0,-2.587,-2.7941,-2.8748,-2.8264,-2.8767,-2.9005,-2.9005,-2.9005,-2.9005,-2.9005,-2.9005,-2.9005,-2.9005,-2.9005,-2.9005,-2.9005,-2.9005,-2.9005,-2.9005,-2.9005,-2.9005,-2.9005,-4.3515,-4.3515,0.0,0.0,-4.3515,0.0,-4.3515,-4.3515,-4.3515,-4.3515,-4.3515,-4.3515,-4.3515,-4.3515,-4.3515,-4.3515,0.0,0.0,0.0,-4.3515,-4.3515,-4.3515,-4.2782,0.0,-4.2304,-4.0781,-3.9918,-3.9808,-3.9074,-3.8707,-3.8707,-3.8707,-3.8707,-3.8707,-3.8707,-3.8707,-3.8707,-3.8707,-3.8707,-3.8707,-3.8707,-3.8707,-3.8707,-3.8707,-3.8707,-3.8707,-3.8707,-3.8707,-3.8707,-3.8707,-3.8707,-3.8579,-3.7823,-3.7584,-3.7235,-3.55,-3.5004,-3.4821,-3.4027,-3.3807,-3.3807,-3.3807,-3.3752,-3.333,-3.1819,-3.0852,-3.0063,-2.9244,-2.9078,-2.9078,-2.9005,-2.9005,-2.9005,-2.9005,-2.895,-2.8656,-2.7908,0.0,0.0,0.0,0.0,0.0,0.0,-2.6098,-2.6227,0.0,0.0,0.0,0.0,0.0,0.0,-2.4281,-2.5841,-2.6675,-2.6675,-2.8216,-2.9005,-2.9005,-2.9005,-2.9005,-2.9005,-2.9005,-2.9005,-2.9005,-2.9005,-2.9005,-2.9005,-2.9005,-2.9005,-2.9005,-2.9005,-2.9005,-2.9005,-2.9005,-2.9005,-2.9005,0.0,0.0,-4.3515,-4.3515,-4.3515,-4.3515,-4.3515,-4.3515,-4.3515,-4.3515,-4.3515,-4.3515,-4.3515,-4.3515,-4.3515,-4.3515,-4.3515,-4.3515,-4.3515,-4.3515,-4.3515,-4.3515,-4.3331,-4.2928,-4.2304,-4.1332,-4.0212,-3.8982,-3.8799,-3.8707,-3.8707,-3.8707,-3.8707,-3.8707,-3.8707,-3.8707,-3.8707,-3.8707,-3.8707,-3.8707,-3.8707,-3.8707,-3.8707,-3.8707,-3.8707,-3.8707,-3.8707,-3.8707,-3.8707,-3.8707,-3.8707,-3.867,-3.8487,-3.8414,-3.7973,-3.5665,-3.5004,-3.4821,-3.4027,-3.3807,-3.3807,-3.3807,-3.3348,-3.2784,-3.2412,-3.1696,-3.0889,-3.0081,-2.9922,-2.9721,-2.9115,-2.9005,-2.9005,-2.9005,-2.8473,-2.8026,-2.7835,0.0,0.0,0.0,-2.5778,-2.5631,-2.6264,-2.5933,-2.587,0.0,0.0,0.0,0.0,0.0,-2.575,-2.5136,-2.6678,-2.7512,-2.7512,-2.8491,-2.9005,-2.9005,-2.9005,-2.9005,-2.9005,-2.9005,-2.9005,-2.9005,-2.9005,-2.9005,-2.9005,-2.9005,-2.9005,-2.9005,-2.9005,-2.9005,-2.9005,-2.9005,-2.9005,-2.9005,-4.3515,-4.3515,-4.3515,-4.3515,-4.3515,-4.3515,-4.3515,-4.3515,-4.3515,-4.3515,-4.3515,-4.3515,-4.3515,-4.3515,-4.3515,-4.3515,-4.3515,-4.3515,-4.3515,-4.3515,-4.3515,-4.3515,-4.3515,-4.3313,-4.2855,-4.2066,-4.1038,-3.9808,-3.9074,-3.8891,-3.9239,-3.8872,-3.8707,-3.8707,-3.8707,-3.8707,-3.8707,-3.8707,-3.8707,-3.8707,-3.8707,-3.8707,-3.8707,-3.8707,-3.8707,-3.8707,-3.8707,-3.8707,-3.8707,-3.8707,-3.8707,-3.8634,-3.8267,-3.8395,-3.8303,-3.6211,-3.5591,-3.533,-3.4137,-3.3807,-3.3807,-3.3807,-3.3476,-3.3041,-3.2674,-3.2265,-3.1715,-3.0907,-3.0742,-3.0503,-2.9702,-2.9537,-2.9427,-2.906,-2.862,-2.8099,-2.7346,-2.6825,0.0,-2.608,-2.6329,-2.6678,-2.7108,-2.709,-2.7071,-2.7145,0.0,0.0,-2.598,-2.6704,-2.6612,-2.5429,-2.6953,-2.7798,-2.7798,-2.8601,-2.9005,-2.9005,-2.9005,-2.9005,-2.9005,-2.9005,-2.9005,-2.9005,-2.9005,-2.9005,-2.9005,-2.9005,-2.9005,-2.9005,-2.9005,-2.9005,-2.9005,-2.9005,-2.9005,-2.9005,-4.3515,-4.3515,-4.3515,-4.3515,-4.3515,-4.3515,-4.3515,-4.3515,-4.3515,-4.3515,-4.3515,-4.3515,-4.3515,-4.3515,-4.3515,-4.3515,-4.3515,-4.3515,-4.3515,-4.3515,-4.3515,-4.3515,-4.3515,-4.3515,-4.3515,-4.2708,-4.1919,-4.1095,-3.9719,-3.935,-3.9882,-3.9203,-3.8817,-3.8707,-3.8707,-3.8707,-3.8707,-3.8707,-3.8707,-3.8707,-3.8707,-3.8707,-3.8707,-3.8707,-3.8707,-3.8707,-3.8707,-3.8707,-3.8707,-3.8707,-3.8707,-3.8579,-3.7915,-3.8138,-3.8414,-3.6909,-3.6395,-3.5954,-3.4394,-3.3899,-3.3807,-3.3807,-3.3807,-3.3623,-3.2931,-3.2784,-3.2546,-3.1751,-3.1568,-3.1292,-3.0375,-3.021,-2.9898,-2.8968,-2.8822,-2.8253,-2.6649,0.0,0.0,-2.5742,-2.6898,-2.7842,-2.797,-2.8491,-2.8583,-2.8026,-2.786,0.0,0.0,-2.753,-2.7302,-2.5815,-2.721,-2.797,-2.797,-2.8656,-2.9005,-2.9005,-2.9005,-2.9005,-2.9005,-2.9005,-2.9005,-2.9005,-2.9005,-2.9005,-2.9005,-2.9005,-2.9005,-2.9005,-2.9005,-2.9005,-2.9005,-2.9005,-2.9005,-2.9005,-4.3515,-4.3515,-4.3515,-4.3515,-4.3515,-4.3515,-4.3515,-4.3515,-4.3515,-4.3515,-4.3515,-4.3515,-4.3515,-4.3515,-4.3515,-4.3515,-4.3515,-4.3515,-4.3515,-4.3515,-4.3515,-4.3515,-4.3515,-4.3515,-4.3515,-4.2708,-4.1919,-4.1095,-4.0838,-4.0451,-3.99,-3.9772,-3.935,-3.8707,-3.8707,-3.8707,-3.8707,-3.8707,-3.8707,-3.8707,-3.8707,-3.8707,-3.8707,-3.8707,-3.8707,-3.8707,-3.8707,-3.8707,-3.8707,-3.8707,-3.8707,-3.8689,-3.856,-3.8597,-3.8524,-3.7603,-3.6831,-3.6083,-3.5078,-3.4307,-3.3807,-3.3807,-3.3807,-3.377,-3.3642,-3.3605,-3.3385,-3.2583,-3.2399,-3.1971,-3.0467,-3.021,-2.9714,-2.8227,-2.7989,-2.742,0.0,0.0,-2.6686,-2.6447,-2.7236,-2.8062,-2.8748,-2.8319,-2.8227,-2.8767,-2.8172,-2.7761,-2.7622,-2.8381,-2.8393,-2.7467,-2.8326,-2.8803,-2.8803,-2.8932,-2.9005,-2.9005,-2.9005,-2.9005,-2.9005,-2.9005,-2.9005,-2.9005,-2.9005,-2.9005,-2.9005,-2.9005,-2.9005,-2.9005,-2.9005,-2.9005,-2.9005,-2.9005,-2.9005,-2.9005,-4.3756,-4.3612,-4.3515,-4.3515,-4.3515,-4.3515,-4.3515,-4.3515,-4.3515,-4.3515,-4.3515,-4.3515,-4.3515,-4.3515,-4.3515,-4.3515,-4.3515,-4.3515,-4.3515,-4.3515,-4.3515,-4.3515,-4.3515,-4.3515,-4.3515,-4.2708,-4.2323,-4.2396,-4.1517,-4.113,-4.1185,-4.0744,-4.012,-3.935,-3.935,-3.9111,-3.8707,-3.8707,-3.8946,-3.9313,-3.8872,-3.8964,-3.9294,-3.8872,-3.8707,-3.8707,-3.8707,-3.8707,-3.8707,-3.8707,-3.8707,-3.8707,-3.8707,-3.8707,-3.8634,-3.8248,-3.6945,-3.5408,-3.4582,-3.4082,-3.3807,-3.3807,-3.3807,-3.3807,-3.3807,-3.3807,-3.3697,-3.333,-3.3256,-3.2889,-3.1715,-3.1146,-3.0467,-2.9274,-2.8723,0.0,0.0,-2.7383,-2.7721,-2.7291,-2.7952,-2.8583,-2.8968,-2.8656,-2.8601,-2.8968,-2.8656,-2.8448,-2.8448,-2.8803,-2.8822,-2.8466,-2.8803,-2.9005,-2.9005,-2.9005,-2.9005,-2.9005,-2.9005,-2.9005,-2.9005,-2.9005,-2.9005,-2.9005,-2.9005,-2.9005,-2.9005,-2.9005,-2.9005,-2.9005,-2.9005,-2.9005,-2.9005,-2.9005,-2.9005,-2.9005,-4.4132,-4.3927,-4.3728,-4.3629,-4.3631,-4.3597,-4.3513,-4.3515,-4.3515,-4.3515,-4.3515,-4.3515,-4.3515,-4.3515,-4.3515,-4.3515,-4.3515,-4.3515,-4.3515,-4.3515,-4.3515,-4.3515,-4.3515,-4.3515,-4.3515,-4.2892,-4.2873,-4.3515,-4.2268,-4.1882,-4.2286,-4.168,-4.0946,-4.0175,-3.9974,-3.9551,-3.8964,-3.8781,-3.9166,-3.9827,-3.9019,-3.9184,-3.9808,-3.9019,-3.8707,-3.8707,-3.8707,-3.8707,-3.8707,-3.8707,-3.8707,-3.8707,-3.8707,-3.8707,-3.8707,-3.8707,-3.7077,-3.5114,-3.4302,-3.3935,-3.3807,-3.3807,-3.3807,-3.3807,-3.3807,-3.3807,-3.3807,-3.3807,-3.3807,-3.355,-3.2748,-3.1935,-3.1085,-3.0081,0.0,0.0,0.0,-2.8363,-2.8693,-2.7897,-2.851,-2.9005,-2.9005,-2.9005,-2.9005,-2.9005,-2.9005,-2.8932,-2.873,-2.8712,-2.8712,-2.8712,-2.8895,-2.9005,-2.9005,-2.9005,-2.9005,-2.9005,-2.9005,-2.9005,-2.9005,-2.9005,-2.9005,-2.9005,-2.9005,-2.9005,-2.9005,-2.9005,-2.9005,-2.9005,-2.9005,-2.9005,-2.9005,-2.9005,-2.9005,-2.9005,-4.4553,-4.4527,-4.4406,-4.4031,-4.3971,-4.3849,-4.3548,-4.3515,-4.3515,-4.3515,-4.3515,-4.3515,-4.3515,-4.3515,-4.3515,-4.3515,-4.3515,-4.3515,-4.3515,-4.3515,-4.3515,-4.3515,-4.3515,-4.3515,-4.3515,-4.3441,-4.3441,-4.3515,-4.3386,-4.2965,-4.2304,-4.2249,-4.1791,-4.0967,-4.023,-3.9863,-3.9753,-3.9019,-3.9166,-3.9827,-3.9019,-3.9184,-3.9808,-3.9019,-3.8707,-3.8707,-3.8707,-3.8707,-3.8707,-3.8707,-3.8707,-3.8707,-3.8707,-3.8707,-3.8707,-3.8707,-3.7514,-3.6028,-3.5151,-3.4362,-3.3807,-3.3807,-3.3807,-3.3807,-3.3807,-3.3807,-3.3807,-3.3807,-3.3807,-3.355,-3.2748,-3.1935,-3.0889,-2.9335,0.0,0.0,-2.6914,-2.8014,-2.8693,-2.7897,-2.851,-2.9005,-2.9005,-2.9005,-2.9005,-2.9005,-2.9005,-2.8675,-2.7934,-2.7879,-2.7879,-2.7879,-2.8601,-2.9005,-2.9005,-2.9005,-2.9005,-2.9005,-2.9005,-2.9005,-2.9005,-2.9005,-2.9005,-2.9005,-2.9005,-2.9005,-2.9005,-2.9005,-2.9005,-2.9005,-2.9005,-2.9005,-2.9005,-2.9005,-2.9005,-2.9005,-4.4908,-4.4732,-4.4553,-4.4406,-4.4359,-4.4252,-4.3865,-4.382,-4.3742,-4.3531,-4.3515,-4.3515,-4.3515,-4.3515,-4.3515,-4.3515,-4.3515,-4.3597,-4.3804,-4.382,-4.3726,-4.3515,-4.3515,-4.3515,-4.3515,-4.3515,-4.3515,-4.3515,-4.3515,-4.3332,-4.3039,-4.3039,-4.2598,-4.1809,-4.1001,-4.0377,-3.9845,-3.9038,-3.9166,-3.9827,-3.9019,-3.9184,-3.9808,-3.9019,-3.8707,-3.8707,-3.8707,-3.8707,-3.8707,-3.8707,-3.8707,-3.8707,-3.8707,-3.8707,-3.8707,-3.8707,-3.7551,-3.6229,-3.5899,-3.4816,-3.3807,-3.3807,-3.3807,-3.3807,-3.3807,-3.3807,-3.3807,-3.3807,-3.3807,-3.3715,-3.3403,-3.2284,-3.1213,-3.0595,0.0,-2.8835,-2.8392,-2.8857,-2.918,-2.9007,-2.9259,-2.9436,-2.9436,-2.9322,-2.9246,-2.9246,-2.9089,-2.8877,-2.8565,-2.8528,-2.8528,-2.8528,-2.884,-2.9005,-2.9005,-2.9005,-2.9005,-2.9005,-2.9005,-2.9005,-2.9005,-2.9005,-2.9005,-2.9005,-2.9005,-2.9005,-2.9005,-2.9005,-2.9005,-2.9005,-2.9005,-2.9005,-2.9005,-2.9005,-2.9005,-2.9005,-4.5253,-4.5074,-4.4884,-4.4788,-4.4763,-4.4631,-4.4247,-4.419,-4.4106,-4.3868,-4.3855,-4.3855,-4.3855,-4.3855,-4.3855,-4.3855,-4.3855,-4.3927,-4.4161,-4.419,-4.4091,-4.3871,-4.3855,-4.3855,-4.3855,-4.3855,-4.3855,-4.3855,-4.3855,-4.3855,-4.3855,-4.3855,-4.3479,-4.2795,-4.1744,-4.0891,-4.0212,-3.9148,-3.9166,-3.9845,-3.9294,-3.9551,-4.0212,-3.9662,-3.9313,-3.9074,-3.9074,-3.8909,-3.8707,-3.8707,-3.8707,-3.8707,-3.8707,-3.8707,-3.8707,-3.8707,-3.7551,-3.6303,-3.6303,-3.5073,-3.3807,-3.3807,-3.3807,-3.3807,-3.3807,-3.3807,-3.3807,-3.3807,-3.3807,-3.3742,-3.3576,-3.2435,-3.1456,-3.1261,-3.0098,-2.9272,-2.9465,-2.9494,-2.9551,-2.9687,-2.9634,-2.9607,-2.9607,-2.9395,-2.9267,-2.9267,-2.91,-2.8895,-2.8638,-2.862,-2.862,-2.862,-2.8877,-2.9005,-2.9005,-2.9005,-2.9005,-2.9005,-2.9005,-2.9005,-2.9005,-2.9005,-2.9005,-2.9005,-2.9005,-2.9005,-2.9005,-2.9005,-2.9005,-2.9005,-2.9005,-2.9005,-2.9005,-2.9005,-2.9005,-2.9005,-4.5594,-4.5594,-4.5495,-4.515,-4.5096,-4.4988,-4.4663,-4.4593,-4.4593,-4.4593,-4.4593,-4.4593,-4.4593,-4.4593,-4.4593,-4.4593,-4.4593,-4.4593,-4.4593,-4.4612,-4.4624,-4.4624,-4.4593,-4.4593,-4.4593,-4.4593,-4.4593,-4.4593,-4.4593,-4.4612,-4.4612,-4.4612,-4.4373,-4.3927,-4.2298,-4.1408,-4.1003,-3.9405,-3.9166,-3.9916,-3.99,-4.0377,-4.1095,-4.1095,-4.0598,-3.99,-3.99,-3.9386,-3.8707,-3.8707,-3.8707,-3.8707,-3.8707,-3.8707,-3.8707,-3.8707,-3.7551,-3.6303,-3.6303,-3.5092,-3.3807,-3.3807,-3.3807,-3.3807,-3.3807,-3.3788,-3.3788,-3.3788,-3.382,-3.3637,-3.3108,-3.2341,-3.16,-3.0998,-3.0224,-2.9705,-2.9705,-2.9705,-2.9705,-2.9705,-2.9532,-2.9412,-2.9394,-2.9167,-2.9005,-2.9005,-2.9005,-2.8668,-2.7853,-2.7816,-2.7816,-2.7816,-2.8594,-2.9005,-2.9005,-2.9005,-2.9005,-2.9005,-2.9005,-2.9005,-2.8987,-2.8987,-2.8987,-2.8987,-2.8987,-2.8987,-2.8987,-2.9005,-2.9005,-2.9005,-2.9005,-2.9005,-2.9005,-2.9005,-2.9005,-2.9005,-4.5594,-4.5594,-4.5568,-4.5476,-4.5448,-4.5342,-4.4988,-4.4943,-4.4872,-4.4618,-4.4593,-4.4593,-4.4593,-4.4593,-4.4593,-4.4593,-4.4593,-4.4695,-4.4931,-4.5161,-4.5293,-4.5293,-4.4842,-4.4593,-4.4593,-4.4593,-4.4593,-4.4593,-4.4593,-4.446,-4.4175,-4.4175,-4.3986,-4.3572,-4.1968,-4.1501,-4.1809,-3.9625,-3.9496,-4.0689,-4.012,-4.0377,-4.1095,-4.1095,-4.0598,-3.99,-3.99,-3.9386,-3.8707,-3.8707,-3.8707,-3.8707,-3.8707,-3.8707,-3.8707,-3.8707,-3.7955,-3.7144,-3.7144,-3.5917,-3.4509,-3.3935,-3.3807,-3.3807,-3.3807,-3.3948,-3.4093,-3.4093,-3.4272,-3.4199,-3.3427,-3.2613,-3.1826,-3.1035,-3.0224,-2.9756,-2.9893,-2.9788,-2.9746,-2.9893,-2.972,-2.9661,-2.9804,-2.9494,-2.9343,-2.9485,-2.9355,-2.9241,-2.9148,-2.912,-2.912,-2.912,-2.9373,-2.9485,-2.9485,-2.9152,-2.9005,-2.9005,-2.9005,-2.8693,-2.8154,-2.8154,-2.786,-2.7354,-2.7915,-2.8154,-2.8209,-2.8767,-2.9005,-2.9005,-2.9005,-2.9005,-2.9005,-2.9005,-2.9005,-2.9005,-4.5594,-4.5594,-4.5594,-4.5594,-4.5594,-4.5522,-4.5332,-4.5302,-4.5232,-4.5022,-4.5,-4.5,-4.5,-4.5,-4.5,-4.5,-4.5,-4.5085,-4.5273,-4.5495,-4.5594,-4.5594,-4.5203,-4.5,-4.5,-4.5,-4.5,-4.5,-4.5,-4.4877,-4.4632,-4.4632,-4.4382,-4.3875,-4.2556,-4.1909,-4.1735,-4.0286,-4.0029,-4.0653,-4.0781,-4.1148,-4.1625,-4.1937,-4.135,-4.0377,-4.0377,-3.9662,-3.8707,-3.8707,-3.8707,-3.8707,-3.8707,-3.8707,-3.8707,-3.8707,-3.8221,-3.7669,-3.7669,-3.6779,-3.5671,-3.4841,-3.4297,-3.3961,-3.3961,-3.4189,-3.4401,-3.4401,-3.4561,-3.4479,-3.3696,-3.3155,-3.247,-3.1388,-3.0803,-3.0411,-3.0194,-3.0059,-3.0022,-3.0143,-2.9966,-2.9869,-2.9991,-2.9713,-2.9561,-2.9696,-2.9589,-2.957,-2.9696,-2.9705,-2.9705,-2.9705,-2.9616,-2.9579,-2.9579,-2.9185,-2.9044,-2.9149,-2.8816,-2.8504,-2.8246,-2.7622,-2.7236,-2.7108,-2.7585,-2.7798,-2.786,-2.8675,-2.9005,-2.9005,-2.9005,-2.9005,-2.9005,-2.9005,-2.9005,-2.9005,-4.5594,-4.5594,-4.5594,-4.5594,-4.5594,-4.5594,-4.5594,-4.5594,-4.5594,-4.5594,-4.5594,-4.5594,-4.5594,-4.5594,-4.5594,-4.5594,-4.5594,-4.5594,-4.5594,-4.5594,-4.5594,-4.5594,-4.5594,-4.5594,-4.5594,-4.5594,-4.5594,-4.5594,-4.5594,-4.5586,-4.554,-4.5482,-4.5145,-4.4555,-4.3611,-4.2506,-4.1344,-4.1215,-4.0795,-4.0341,-4.1735,-4.2341,-4.2488,-4.3222,-4.2543,-4.1203,-4.1162,-4.0136,-3.8799,-3.8753,-3.8765,-3.8777,-3.8777,-3.8777,-3.8777,-3.8777,-3.8433,-3.8046,-3.8046,-3.7681,-3.7125,-3.631,-3.5251,-3.4363,-3.4265,-3.4508,-3.4753,-3.4753,-3.4744,-3.4586,-3.3952,-3.384,-3.336,-3.1917,-3.1698,-3.141,-3.0519,-3.0373,-3.0361,-3.0361,-3.0129,-2.9984,-2.9999,-2.9837,-2.9731,-2.9731,-2.9731,-2.9739,-2.9765,-2.9765,-2.9756,-2.9731,-2.9561,-2.9444,-2.9424,-2.9181,-2.9123,-2.926,-2.8452,-2.8283,-2.8638,-2.7244,-2.6961,-2.7596,-2.7732,-2.7798,-2.786,-2.8675,-2.9005,-2.9005,-2.9005,-2.9005,-2.9005,-2.9005,-2.9005,-2.9005,-4.5594,-4.5594,-4.5594,-4.5594,-4.5594,-4.5594,-4.5594,-4.5594,-4.5594,-4.5594,-4.5594,-4.5594,-4.5594,-4.5594,-4.5594,-4.5594,-4.5594,-4.5594,-4.5594,-4.5594,-4.5594,-4.5594,-4.5594,-4.5594,-4.5594,-4.5594,-4.5594,-4.5594,-4.5594,-4.5476,-4.5192,-4.4513,-4.4349,-4.4536,-4.3033,-4.2742,-4.3284,-4.2032,-4.1964,-4.2707,-4.2415,-4.2671,-4.3259,-4.3441,-4.2892,-4.1989,-4.1622,-4.068,-3.958,-3.9137,-3.9184,-3.9396,-3.9396,-3.9396,-3.9396,-3.9396,-3.9313,-3.9223,-3.9223,-3.8697,-3.8085,-3.7904,-3.6848,-3.5609,-3.4785,-3.4813,-3.5008,-3.5008,-3.5182,-3.5085,-3.4253,-3.4107,-3.3582,-3.1962,-3.1698,-3.141,-3.0519,-3.0215,-3.0082,-3.0082,-2.9893,-2.9829,-2.9991,-2.9962,-2.9939,-2.9939,-2.9939,-3.0025,-3.0228,-3.026,-3.0155,-2.9947,-2.9893,-2.9788,-2.9644,-2.957,-2.908,-2.8143,-2.7959,-2.7264,-2.6201,-2.6465,-2.6355,-2.598,-2.7247,-2.7798,-2.786,-2.8675,-2.9005,-2.9005,-2.9005,-2.9005,-2.9005,-2.9005,-2.9005,-2.9005,-4.5594,-4.5594,-4.5594,-4.5594,-4.5594,-4.5594,-4.5594,-4.5594,-4.5594,-4.5594,-4.5594,-4.5594,-4.5594,-4.5594,-4.5594,-4.5594,-4.5594,-4.5594,-4.5594,-4.5594,-4.5594,-4.5594,-4.5594,-4.5594,-4.5594,-4.5594,-4.5594,-4.5594,-4.5594,-4.5504,-4.5332,-4.4873,-4.473,-4.4811,-4.3919,-4.3574,-4.3652,-4.3216,-4.318,-4.3405,-4.3405,-4.3647,-4.402,-4.402,-4.3517,-4.269,-4.2057,-4.095,-3.9713,-3.9432,-3.9469,-3.9599,-3.9599,-3.9599,-3.9599,-3.9599,-3.9701,-3.9829,-3.9829,-3.9611,-3.93,-3.8937,-3.7959,-3.6818,-3.5723,-3.5372,-3.5289,-3.5289,-3.5391,-3.5365,-3.4911,-3.4814,-3.4257,-3.2545,-3.2275,-3.1833,-3.0577,-3.0273,-3.0196,-3.0196,-3.0095,-3.0092,-3.0182,-3.0196,-3.0196,-3.0196,-3.0196,-3.0254,-3.0398,-3.0404,-3.0343,-3.0196,-3.0068,-2.9764,-2.9276,-2.9568,-2.8772,-2.6935,-2.7237,-2.7282,-2.709,-2.6355,-2.6219,-2.6586,-2.7431,-2.7798,-2.786,-2.8675,-2.9005,-2.9005,-2.9005,-2.9005,-2.9005,-2.9005,-2.9005,-2.9005,-4.5594,-4.5594,-4.5594,-4.5594,-4.5594,-4.5594,-4.5594,-4.5594,-4.5594,-4.5594,-4.5594,-4.5594,-4.5594,-4.5594,-4.5594,-4.5594,-4.5594,-4.5594,-4.5594,-4.5594,-4.5594,-4.5594,-4.5594,-4.5594,-4.5594,-4.5594,-4.5594,-4.5594,-4.5594,-4.5594,-4.5594,-4.546,-4.5313,-4.5171,-4.5038,-4.4467,-4.3654,-4.438,-4.4241,-4.3586,-4.431,-4.4593,-4.4593,-4.4593,-4.414,-4.3416,-4.266,-4.1358,-3.9984,-3.9909,-3.9826,-3.9757,-3.9757,-3.9757,-3.9757,-3.9757,-3.9963,-4.0167,-4.0167,-4.0339,-4.0342,-3.9669,-3.8738,-3.7759,-3.6818,-3.6025,-3.55,-3.55,-3.55,-3.55,-3.55,-3.55,-3.4981,-3.3372,-3.3122,-3.2545,-3.0865,-3.0615,-3.0577,-3.0423,-3.0404,-3.0404,-3.0404,-3.0404,-3.0404,-3.0404,-3.0404,-3.0404,-3.0404,-3.0404,-3.0373,-3.0323,-3.0122,-2.9668,-2.8965,-2.9458,-2.8678,-2.6645,-2.7003,-2.7623,-2.8422,-2.6375,-2.6274,-2.7706,-2.7811,-2.7877,-2.7975,-2.8776,-2.9093,-2.9067,-2.9104,-2.9078,-2.9005,-2.9005,-2.9005,-2.9005,-4.5594,-4.5594,-4.5594,-4.5594,-4.5594,-4.5594,-4.5594,-4.5594,-4.5594,-4.5594,-4.5594,-4.5594,-4.5594,-4.5594,-4.5594,-4.5594,-4.5594,-4.5594,-4.5594,-4.5594,-4.5594,-4.5594,-4.5594,-4.5594,-4.5594,-4.5594,-4.5594,-4.5594,-4.5594,-4.5594,-4.5575,-4.4816,-4.4837,-4.5503,-4.4734,-4.4576,-4.487,-4.4984,-4.4796,-4.4423,-4.4555,-4.4593,-4.4593,-4.4593,-4.4536,-4.4348,-4.3787,-4.2679,-4.1468,-4.116,-4.0759,-4.0389,-4.0389,-4.0389,-4.0389,-4.0389,-4.0414,-4.0449,-4.0449,-4.0473,-4.0477,-4.0362,-3.9161,-3.7962,-3.7805,-3.6582,-3.55,-3.55,-3.55,-3.55,-3.55,-3.55,-3.5173,-3.418,-3.4013,-3.343,-3.1756,-3.1525,-3.1231,-3.05,-3.0404,-3.0404,-3.0404,-3.0404,-3.0404,-3.0404,-3.0404,-3.0404,-3.0404,-3.0404,-3.0279,-3.0068,-3.0013,-2.9859,-2.9578,-2.9666,-2.9535,-2.9187,-2.8592,-2.7625,-2.64,-2.589,-2.6243,-2.7305,-2.7821,-2.8166,-2.8395,-2.925,-2.9494,-2.9353,-2.9542,-2.9357,-2.9005,-2.9005,-2.9005,-2.9005,-4.5594,-4.5594,-4.5594,-4.5594,-4.5594,-4.5594,-4.5594,-4.5594,-4.5594,-4.5594,-4.5594,-4.5594,-4.5594,-4.5594,-4.5594,-4.5594,-4.5594,-4.5594,-4.5594,-4.5594,-4.5594,-4.5594,-4.5594,-4.5594,-4.5594,-4.5594,-4.5594,-4.5594,-4.5594,-4.5594,-4.5594,-4.521,-4.5229,-4.5575,-4.521,-4.5167,-4.539,-4.539,-4.5283,-4.5161,-4.5161,-4.5161,-4.5161,-4.5161,-4.5161,-4.5057,-4.4346,-4.3106,-4.178,-4.1622,-4.1108,-4.0496,-4.0496,-4.0496,-4.0496,-4.0496,-4.0496,-4.0496,-4.0496,-4.0496,-4.0496,-4.0496,-3.9611,-3.8604,-3.8104,-3.7046,-3.6038,-3.5596,-3.55,-3.55,-3.55,-3.55,-3.5212,-3.434,-3.4205,-3.3782,-3.2545,-3.1987,-3.1391,-3.05,-3.0404,-3.0404,-3.0404,-3.0404,-3.0404,-3.0404,-3.0404,-3.0404,-3.0404,-3.0404,-3.0349,-3.0235,-3.0215,-2.9953,-2.9374,-2.9851,-2.9615,-2.8699,-2.8796,-2.831,-2.7328,-2.6779,-2.7031,-2.7886,-2.8142,-2.8592,-2.9149,-2.9535,-2.9643,-2.9561,-2.9533,-2.9304,-2.9005,-2.9005,-2.9005,-2.9005]},{"header":{"parameterUnit":"m.s-1","parameterCategory":1,"la1":30.6,"la2":28.766,"lo1":-90.7593,"lo2":-88.6598,"dy":0.0162,"dx":0.0183,"nx":116,"ny":114,"refTime":"2024-05-31T18:00:00:Z","depth":0,"parameterNumber":3,"parameterNumberName":"V-component_of_WINDS"},"data":[0.0,0.0,0.0,0.0,0.0,0.0,0.0,0.0,0.0,0.0,0.0,0.0,0.0,0.0,0.0,0.0,0.0,0.0,0.0,0.0,0.0,0.0,0.0,0.0,0.0,0.0,0.0,0.0,0.0,0.0,0.0,0.0,0.0,0.0,0.0,0.0,0.0,0.0,0.0,0.0,0.0,0.0,0.0,0.0,0.0,0.0,0.0,0.0,0.0,0.0,0.0,0.0,0.0,0.0,0.0,0.0,0.0,0.0,0.0,0.0,0.0,0.0,0.0,0.0,0.0,0.0,0.0,0.0,0.0,0.0,0.0,0.0,0.0,0.0,0.0,0.0,0.0,0.0,0.0,0.0,0.0,0.0,0.0,0.0,0.0,0.0,0.0,0.0,0.0,0.0,0.0,0.0,0.0,0.0,0.0,0.0,0.0,0.0,0.0,0.0,0.0,0.0,0.0,0.0,0.0,0.0,0.0,0.0,0.0,0.0,0.0,0.0,0.0,0.0,0.0,0.0,0.0,0.0,0.0,0.0,0.0,0.0,0.0,0.0,0.0,0.0,0.0,0.0,0.0,0.0,0.0,0.0,0.0,0.0,0.0,0.0,0.0,0.0,0.0,0.0,0.0,0.0,0.0,0.0,0.0,0.0,0.0,0.0,0.0,0.0,0.0,0.0,0.0,0.0,0.0,0.0,0.0,0.0,0.0,0.0,0.0,0.0,0.0,0.0,0.0,0.0,0.0,0.0,0.0,0.0,0.0,0.0,0.0,0.0,0.0,0.0,0.0,0.0,0.0,0.0,0.0,0.0,0.0,0.0,0.0,0.0,0.0,0.0,0.0,0.0,0.0,0.0,0.0,0.0,0.0,0.0,0.0,0.0,0.0,0.0,0.0,0.0,0.0,0.0,0.0,0.0,0.0,0.0,0.0,0.0,0.0,0.0,0.0,0.0,0.0,0.0,0.0,0.0,0.0,0.0,0.0,0.0,0.0,0.0,0.0,0.0,0.0,0.0,0.0,0.0,0.0,0.0,0.0,0.0,0.0,0.0,0.0,0.0,0.0,0.0,0.0,0.0,0.0,0.0,0.0,0.0,0.0,0.0,0.0,0.0,0.0,0.0,0.0,0.0,0.0,0.0,0.0,0.0,0.0,0.0,0.0,0.0,0.0,0.0,0.0,0.0,0.0,0.0,0.0,0.0,0.0,0.0,0.0,0.0,0.0,0.0,0.0,0.0,0.0,0.0,0.0,0.0,0.0,0.0,0.0,0.0,0.0,0.0,0.0,0.0,0.0,0.0,0.0,0.0,0.0,0.0,0.0,0.0,0.0,0.0,0.0,0.0,0.0,0.0,0.0,0.0,0.0,0.0,0.0,0.0,0.0,0.0,0.0,0.0,0.0,0.0,0.0,0.0,0.0,0.0,0.0,0.0,0.0,0.0,0.0,0.0,0.0,0.0,0.0,0.0,0.0,0.0,0.0,0.0,0.0,0.0,0.0,0.0,0.0,0.0,0.0,0.0,0.0,0.0,0.0,0.0,0.0,0.0,0.0,0.0,0.0,0.0,0.0,0.0,0.0,0.0,0.0,0.0,0.0,0.0,0.0,0.0,0.0,0.0,0.0,0.0,0.0,0.0,0.0,0.0,0.0,0.0,0.0,0.0,0.0,0.0,0.0,0.0,0.0,0.0,0.0,0.0,0.0,0.0,0.0,0.0,0.0,0.0,0.0,0.0,0.0,0.0,0.0,0.0,0.0,0.0,0.0,0.0,0.0,0.0,0.0,0.0,0.0,0.0,0.0,0.0,0.0,0.0,0.0,0.0,0.0,0.0,0.0,0.0,0.0,0.0,0.0,0.0,0.0,0.0,0.0,0.0,0.0,0.0,0.0,0.0,0.0,0.0,0.0,0.0,0.0,0.0,0.0,0.0,0.0,0.0,0.0,0.0,0.0,0.0,0.0,0.0,0.0,0.0,0.0,0.0,0.0,0.0,0.0,0.0,0.0,0.0,0.0,0.0,0.0,0.0,0.0,0.0,0.0,0.0,0.0,0.0,0.0,0.0,0.0,0.0,0.0,0.0,0.0,0.0,0.0,0.0,0.0,0.0,0.0,0.0,0.0,0.0,0.0,0.0,0.0,0.0,0.0,0.0,0.0,0.0,0.0,0.0,0.0,0.0,0.0,0.0,0.0,0.0,0.0,0.0,0.0,0.0,0.0,0.0,0.0,0.0,0.0,0.0,0.0,0.0,0.0,0.0,0.0,0.0,0.0,0.0,0.0,0.0,0.0,0.0,0.0,0.0,0.0,0.0,0.0,0.0,0.0,0.0,0.0,0.0,0.0,0.0,0.0,0.0,0.0,0.0,0.0,0.0,0.0,0.0,0.0,0.0,0.0,0.0,0.0,0.0,0.0,0.0,0.0,0.0,0.0,0.0,0.0,0.0,0.0,0.0,0.0,0.0,0.0,0.0,0.0,0.0,0.0,0.0,0.0,0.0,0.0,0.0,0.0,0.0,0.0,0.0,0.0,0.0,0.0,0.0,0.0,0.0,0.0,0.0,0.0,0.0,0.0,0.0,0.0,0.0,0.0,0.0,0.0,0.0,0.0,0.0,0.0,0.0,0.0,0.0,0.0,0.0,0.0,0.0,0.0,0.0,0.0,0.0,0.0,0.0,0.0,0.0,0.0,0.0,0.0,0.0,0.0,0.0,0.0,0.0,0.0,0.0,0.0,0.0,0.0,0.0,0.0,0.0,0.0,0.0,0.0,0.0,0.0,0.0,0.0,0.0,0.0,0.0,0.0,0.0,0.0,0.0,0.0,0.0,0.0,0.0,0.0,0.0,0.0,0.0,0.0,0.0,0.0,0.0,0.0,0.0,0.0,0.0,0.0,0.0,0.0,0.0,0.0,0.0,0.0,0.0,0.0,0.0,0.0,0.0,0.0,0.0,0.0,0.0,0.0,0.0,0.0,0.0,0.0,0.0,0.0,0.0,0.0,0.0,0.0,0.0,0.0,0.0,0.0,0.0,0.0,0.0,0.0,0.0,0.0,0.0,0.0,0.0,0.0,0.0,0.0,0.0,0.0,0.0,0.0,0.0,0.0,0.0,0.0,0.0,0.0,0.0,0.0,0.0,0.0,0.0,0.0,0.0,0.0,0.0,0.0,0.0,0.0,0.0,0.0,0.0,0.0,0.0,0.0,0.0,0.0,0.0,0.0,0.0,0.0,0.0,0.0,0.0,0.0,0.0,0.0,0.0,0.0,0.0,0.0,0.0,0.0,0.0,0.0,0.0,0.0,0.0,0.0,0.0,0.0,0.0,0.0,0.0,0.0,0.0,0.0,0.0,0.0,0.0,0.0,0.0,0.0,0.0,0.0,0.0,0.0,0.0,0.0,0.0,0.0,0.0,0.0,0.0,0.0,0.0,0.0,0.0,0.0,0.0,0.0,0.0,0.0,0.0,0.0,0.0,0.0,0.0,0.0,0.0,0.0,0.0,0.0,0.0,0.0,0.0,0.0,0.0,0.0,0.0,0.0,0.0,0.0,0.0,0.0,0.0,0.0,0.0,0.0,0.0,0.0,0.0,0.0,0.0,0.0,0.0,0.0,0.0,0.0,0.0,0.0,0.0,0.0,0.0,0.0,0.0,0.0,0.0,0.0,0.0,0.0,0.0,0.0,0.0,0.0,0.0,0.0,0.0,0.0,0.0,0.0,0.0,0.0,0.0,0.0,0.0,0.0,0.0,0.0,0.0,0.0,0.0,0.0,0.0,0.0,0.0,0.0,0.0,0.0,0.0,0.0,0.0,0.0,0.0,0.0,0.0,0.0,0.0,0.0,0.0,0.0,0.0,0.0,0.0,0.0,0.0,0.0,0.0,0.0,0.0,0.0,0.0,0.0,0.0,0.0,0.0,0.0,0.0,0.0,0.0,0.0,0.0,0.0,0.0,0.0,0.0,0.0,0.0,0.0,0.0,0.0,0.0,0.0,0.0,0.0,0.0,0.0,0.0,0.0,0.0,0.0,0.0,0.0,0.0,0.0,0.0,0.0,0.0,0.0,0.0,0.0,0.0,0.0,0.0,0.0,0.0,0.0,0.0,0.0,0.0,0.0,0.0,0.0,0.0,0.0,0.0,0.0,0.0,0.0,0.0,0.0,0.0,0.0,0.0,0.0,0.0,0.0,0.0,0.0,0.0,0.0,0.0,0.0,0.0,0.0,0.0,0.0,0.0,0.0,0.0,0.0,0.0,0.0,0.0,0.0,0.0,0.0,0.0,0.0,0.0,0.0,0.0,0.0,0.0,0.0,0.0,0.0,0.0,0.0,0.0,0.0,0.0,0.0,0.0,0.0,0.0,0.0,0.0,0.0,0.0,0.0,0.0,0.0,0.0,0.0,0.0,0.0,0.0,0.0,0.0,0.0,0.0,0.0,0.0,0.0,0.0,0.0,0.0,0.0,0.0,0.0,0.0,0.0,0.0,0.0,0.0,0.0,0.0,0.0,0.0,0.0,0.0,0.0,0.0,0.0,0.0,0.0,0.0,0.0,0.0,0.0,0.0,0.0,0.0,0.0,0.0,0.0,0.0,0.0,0.0,0.0,0.0,0.0,0.0,0.0,0.0,0.0,0.0,0.0,0.0,0.0,0.0,0.0,0.0,0.0,0.0,0.0,0.0,0.0,0.0,0.0,0.0,0.0,0.0,0.0,0.0,0.0,0.0,0.0,0.0,0.0,0.0,0.0,0.0,0.0,0.0,0.0,0.0,0.0,0.0,0.0,0.0,0.0,0.0,0.0,0.0,0.0,0.0,0.0,0.0,0.0,0.0,0.0,0.0,0.0,0.0,0.0,0.0,0.0,0.0,0.0,0.0,0.0,0.0,0.0,0.0,0.0,0.0,0.0,0.0,0.0,0.0,0.0,0.0,0.0,0.0,0.0,0.0,0.0,0.0,0.0,0.0,0.0,0.0,0.0,0.0,0.0,0.0,0.0,0.0,0.0,0.0,0.0,0.0,0.0,0.0,0.0,0.0,0.0,0.0,0.0,0.0,0.0,0.0,0.0,0.0,0.0,0.0,0.0,0.0,0.0,0.0,0.0,0.0,0.0,0.0,0.0,0.0,0.0,0.0,0.0,0.0,0.0,0.0,0.0,0.0,0.0,0.0,0.0,0.0,0.0,0.0,0.0,0.0,0.0,0.0,0.0,0.0,0.0,0.0,0.0,0.0,0.0,0.0,0.0,0.0,0.0,0.0,0.0,0.0,0.0,0.0,0.0,0.0,0.0,0.0,0.0,0.0,0.0,0.0,0.0,0.0,0.0,0.0,0.0,0.0,0.0,0.0,0.0,0.0,0.0,0.0,0.0,0.0,0.0,0.0,0.0,0.0,0.0,0.0,0.0,0.0,0.0,0.0,0.0,0.0,0.0,0.0,0.0,0.0,0.0,0.0,0.0,0.0,0.0,0.0,0.0,0.0,0.0,0.0,0.0,0.0,0.0,0.0,0.0,0.0,0.0,0.0,0.0,0.0,0.0,0.0,0.0,0.0,0.0,0.0,0.0,0.0,0.0,0.0,0.0,0.0,0.0,0.0,0.0,0.0,0.0,0.0,0.0,0.0,0.0,0.0,0.0,0.0,0.0,0.0,0.0,0.0,0.0,0.0,0.0,0.0,0.0,0.0,0.0,0.0,0.0,0.0,0.0,0.0,0.0,0.0,0.0,0.0,0.0,0.0,0.0,0.0,0.0,0.0,0.0,0.0,0.0,0.0,0.0,0.0,0.0,0.0,0.0,0.0,0.0,0.0,0.0,0.0,0.0,0.0,0.0,0.0,0.0,0.0,0.0,0.0,0.0,0.0,0.0,0.0,0.0,0.0,0.0,0.0,0.0,0.0,0.0,0.0,0.0,0.0,0.0,0.0,0.0,0.0,0.0,0.0,0.0,0.0,0.0,0.0,0.0,0.0,0.0,0.0,0.0,0.0,0.0,0.0,0.0,0.0,0.0,0.0,0.0,0.0,0.0,0.0,0.0,0.0,0.0,0.0,0.0,0.0,0.0,0.0,0.0,0.0,0.0,0.0,0.0,0.0,0.0,0.0,0.0,0.0,0.0,0.0,0.0,0.0,-1.2744,0.0,0.0,0.0,0.0,0.0,0.0,0.0,0.0,0.0,0.0,0.0,0.0,0.0,0.0,0.0,0.0,0.0,0.0,0.0,0.0,0.0,0.0,0.0,0.0,-1.2448,-1.1985,-1.1593,-1.0695,-0.9947,-0.9528,0.0,0.0,0.0,0.0,0.0,-0.6036,-0.5034,-0.4563,-0.468,-0.468,-0.4468,-0.403,-0.3876,-0.2866,-0.1174,0.0,0.0,0.0,0.0,0.0,0.0,0.0,0.0,0.0,0.0,0.0,0.0,0.0,0.0,0.0,0.0,0.0,0.0,0.0,0.0,0.0,0.0,0.0,0.0,0.0,0.0,0.0,0.0,0.0,0.0,0.0,0.0,0.0,0.0,0.0,0.0,0.0,0.0,0.0,0.0,0.0,0.0,0.0,0.0,0.0,0.0,0.0,0.0,0.0,0.0,0.0,0.0,0.0,0.0,0.0,0.0,0.0,0.0,0.0,0.0,0.0,0.0,0.0,0.0,0.0,0.0,0.0,0.0,0.0,0.0,0.0,-1.3247,0.0,0.0,0.0,0.0,0.0,0.0,0.0,0.0,0.0,0.0,0.0,0.0,0.0,0.0,0.0,0.0,0.0,0.0,0.0,0.0,0.0,-1.2034,-1.2915,-1.2802,-1.2394,-1.1644,-1.1061,-1.0367,-0.946,-0.9072,0.0,0.0,0.0,-0.6669,-0.6421,-0.5309,-0.478,-0.4887,-0.4992,-0.4944,-0.4742,-0.4447,-0.3478,-0.1878,-0.094,0.0,0.0,0.0,0.0,0.0,0.0,0.0,0.0,0.0,0.0,0.0,0.0,0.0,0.0,0.0,0.0,0.0,0.0,0.0,0.0,0.0,0.0,0.0,0.0,0.0,0.0,0.0,0.0,0.0,0.0,0.0,0.0,0.0,0.0,0.0,0.0,0.0,0.0,0.0,0.0,0.0,0.0,0.0,0.0,0.0,0.0,0.0,0.0,0.0,0.0,0.0,0.0,0.0,0.0,0.0,0.0,0.0,0.0,0.0,0.0,0.0,0.0,0.0,0.0,0.0,-1.6132,-1.6079,-1.6059,-1.5985,-1.4679,-1.4326,-1.4596,0.0,0.0,0.0,0.0,0.0,0.0,0.0,0.0,0.0,0.0,0.0,0.0,0.0,0.0,0.0,0.0,0.0,0.0,0.0,0.0,-1.2447,-1.333,-1.339,-1.3176,-1.2734,-1.2077,-1.1257,-1.0221,-0.9522,0.0,-0.7895,-0.767,-0.6961,-0.5678,-0.5623,-0.5381,-0.4887,-0.5433,-0.5711,-0.5788,-0.5133,-0.4675,-0.4375,-0.3199,-0.22,-0.1388,0.0,0.0,0.0,0.0,0.0,0.0,0.0,0.0,0.0,0.0,0.0,0.0,0.0,0.0,0.0,0.0,0.0,0.0,0.0,0.0,0.0,0.0,0.0,0.0,0.0,0.0,0.0,0.0,0.0,0.0,0.0,0.0,0.0,0.0,0.0,0.0,0.0,0.0,0.0,0.0,0.0,-0.6601,-0.7876,0.0,0.0,0.0,0.0,0.0,0.0,0.0,0.0,0.0,0.0,0.0,0.0,0.0,0.0,-1.6413,-1.6921,-1.7215,-1.7295,-1.7569,-1.7575,-1.7341,-1.7139,-1.7032,-1.7005,-1.65,0.0,-1.5251,-1.4881,0.0,0.0,0.0,0.0,0.0,0.0,0.0,0.0,0.0,0.0,0.0,0.0,0.0,0.0,0.0,0.0,0.0,0.0,0.0,0.0,0.0,-1.4365,-1.4601,-1.3699,-1.3532,-1.2854,-1.135,-1.0275,-0.9354,-0.8568,-0.761,-0.6829,-0.6309,-0.5632,-0.5362,-0.5508,-0.6057,-0.6383,-0.6492,-0.6105,-0.5944,-0.5991,-0.5378,-0.3843,-0.1706,-0.172,0.0,0.0,0.0,0.0,0.0,0.0,0.0,0.0,0.0,0.0,0.0,0.0,0.0,0.0,0.0,0.0,0.0,0.0,0.0,0.0,0.0,0.0,0.0,0.0,0.0,0.0,0.0,0.0,0.0,0.0,0.0,0.0,0.0,0.0,0.0,0.0,0.0,0.0,0.0,-0.6084,-0.6762,-0.7488,-0.7072,-0.713,0.0,0.0,0.0,0.0,0.0,0.0,0.0,0.0,0.0,-1.5925,-1.6353,-1.6854,-1.7435,-1.7709,-1.7929,-1.8096,-1.823,-1.8223,-1.809,-1.7963,-1.7809,-1.7649,-1.7515,-1.7048,-1.6368,-1.5531,-1.4977,-1.4556,0.0,0.0,0.0,0.0,0.0,0.0,0.0,0.0,0.0,0.0,0.0,0.0,0.0,0.0,0.0,0.0,0.0,0.0,-1.3779,-1.5195,-1.5733,-1.4756,-1.4675,-1.3997,-1.2396,-1.0904,-0.9857,-0.9351,-0.7948,-0.7072,-0.6899,-0.5747,-0.5457,-0.6161,-0.6576,-0.6837,-0.6937,-0.6865,-0.6875,-0.6933,-0.6865,-0.5103,-0.2218,-0.2188,-0.1337,0.0,0.0,0.0,0.0,0.0,0.0,0.0,0.0,0.0,0.0,0.0,0.0,0.0,0.0,0.0,0.0,0.0,0.0,0.0,0.0,0.0,0.0,0.0,0.0,0.0,0.0,0.0,0.0,0.0,0.0,0.0,0.0,0.0,0.0,0.0,0.0,0.0,0.0,-0.6844,-0.7537,-0.7617,-0.8125,-0.8466,0.0,0.0,0.0,0.0,0.0,0.0,-1.5032,-1.5879,-1.6593,-1.7027,-1.7408,-1.7809,-1.8243,-1.8337,-1.8497,-1.8711,-1.8711,-1.8711,-1.8711,-1.8637,-1.8484,-1.8209,-1.8055,-1.7789,-1.7301,-1.6266,-1.5758,-1.5591,-1.5164,-1.6124,0.0,-1.8482,-1.9743,-2.1261,0.0,0.0,0.0,0.0,0.0,0.0,0.0,0.0,0.0,0.0,0.0,-1.3789,-1.4629,-1.5557,-1.6088,-1.6017,-1.5188,-1.4216,-1.3112,-1.1213,-0.998,-0.9673,-0.903,-0.8118,-0.6927,-0.6143,-0.6054,-0.6668,-0.6834,-0.6947,-0.7085,-0.7078,-0.7078,-0.7085,-0.7078,-0.5703,-0.3326,-0.3235,-0.1983,0.0,0.0,0.0,0.0,0.0,0.0,0.0,0.0,0.0,0.0,0.0,0.0,0.0,0.0,0.0,0.0,0.0,0.0,0.0,0.0,0.0,0.0,0.0,0.0,0.0,0.0,0.0,0.0,0.0,0.0,0.0,0.0,0.0,0.0,0.0,0.0,0.0,0.0,0.0,0.0,-0.9638,-1.1111,0.0,0.0,0.0,0.0,-1.3826,-1.4518,-1.5032,-1.5348,-1.6961,-1.7882,-1.7949,-1.8524,-1.8844,-1.8878,-1.9158,-1.937,-1.9325,-1.9325,-1.9325,-1.9312,-1.9032,-1.8891,-1.8844,-1.8235,-1.7975,-1.7902,-1.7321,-1.6784,-1.6338,-1.7174,-1.807,-1.8974,-2.0297,-2.1446,-2.248,0.0,0.0,0.0,0.0,0.0,-1.4339,-1.4244,-1.4035,-1.3749,-1.3273,-1.3866,-1.4551,-1.5127,-1.6699,-1.7707,-1.7712,-1.6728,-1.5695,-1.4659,-1.2145,-1.0635,-1.0528,-0.9332,-0.825,-0.7322,-0.6618,-0.6434,-0.6848,-0.695,-0.7098,-0.7288,-0.7288,-0.7343,-0.7388,-0.6498,-0.523,-0.3635,-0.3546,-0.2126,0.0,0.0,0.0,0.0,0.0,0.0,0.0,0.0,0.0,0.0,0.0,0.0,0.0,0.0,0.0,0.0,0.0,0.0,0.0,0.0,0.0,0.0,0.0,0.0,0.0,0.0,0.0,0.0,0.0,0.0,0.0,0.0,0.0,0.0,0.0,0.0,0.0,0.0,0.0,0.0,-1.1369,-1.1666,0.0,-1.3456,-1.4072,-1.4527,-1.5031,-1.6221,-1.6967,-1.7064,-1.8242,-1.8891,-1.8885,-1.9459,-1.9766,-1.9766,-1.9686,-1.9646,-1.9646,-1.9459,-1.9424,-1.9424,-1.9259,-1.9105,-1.8911,-1.8641,-1.8335,-1.8009,-1.7809,-1.7375,-1.6958,-1.7952,-1.9035,-2.0107,-2.1219,-2.2326,-2.332,0.0,0.0,0.0,0.0,-1.4614,-1.4446,-1.4742,-1.4601,-1.4294,-1.3776,-1.4512,-1.5276,-1.5771,-1.7486,-1.8715,-1.9007,-1.761,-1.6438,-1.5786,-1.2836,-1.1096,-1.0995,-0.9699,-0.8646,-0.798,-0.7407,-0.7105,-0.6957,-0.7051,-0.7149,-0.7292,-0.7292,-0.7346,-0.7398,-0.6507,-0.523,-0.3718,-0.3629,-0.2195,0.0,0.0,0.0,0.0,0.0,0.0,0.0,0.0,0.0,0.0,0.0,0.0,0.0,0.0,0.0,0.0,0.0,0.0,0.0,0.0,0.0,0.0,0.0,0.0,0.0,0.0,0.0,0.0,0.0,0.0,0.0,0.0,0.0,0.0,0.0,0.0,0.0,0.0,0.0,-1.0801,-1.1962,-1.3082,-1.398,-1.4593,-1.5802,-1.6652,-1.6893,-1.7867,-1.8531,-1.8575,-1.9285,-1.9659,-1.9659,-2.0034,-2.0173,-2.0173,-2.004,-1.99,-1.98,-1.9606,-1.9459,-1.9424,-1.9424,-1.9259,-1.9065,-1.8965,-1.8637,-1.817,-1.8029,-1.7749,-1.7416,-1.8404,-1.9595,-2.0855,-2.179,-2.2841,-2.3721,0.0,0.0,0.0,-1.4695,-1.4896,-1.5261,-1.6303,-1.5952,-1.5496,-1.53,-1.5514,-1.5942,-1.6643,-1.7847,-1.8939,-1.9834,-1.773,-1.6392,-1.6392,-1.3263,-1.1303,-1.1035,-1.0171,-0.9467,-0.8932,-0.8551,-0.7934,-0.7102,-0.7109,-0.7112,-0.7115,-0.7115,-0.7119,-0.7125,-0.7078,-0.5795,-0.3593,-0.3565,-0.2188,0.0,0.0,0.0,0.0,0.0,0.0,0.0,0.0,0.0,0.0,0.0,0.0,0.0,0.0,0.0,0.0,0.0,0.0,0.0,0.0,0.0,0.0,0.0,0.0,0.0,0.0,0.0,0.0,0.0,0.0,0.0,0.0,0.0,0.0,0.0,0.0,0.0,-0.9592,-1.2655,-1.4014,-1.1628,-1.5551,-1.7955,-1.6694,-1.7794,-1.8784,-1.9352,-1.9392,-1.9519,-1.98,-2.0087,-2.0247,-2.0247,-2.0193,-2.0261,-2.0261,-2.0193,-2.01,-1.9813,-1.9806,-1.9646,-1.9424,-1.9424,-1.9424,-1.9352,-1.9065,-1.8771,-1.8484,-1.8129,-1.7883,-1.772,-1.8687,-1.9903,-2.1122,-2.2139,-2.3028,-2.373,0.0,0.0,-1.3566,-1.4695,-1.4896,-1.5109,-1.575,-1.5332,-1.4889,-1.4671,-1.5134,-1.591,-1.7093,-1.8032,-1.8939,-1.9834,-1.7489,-1.5943,-1.5943,-1.3103,-1.1483,-1.1658,-1.0507,-0.9846,-0.9841,-0.8268,-0.7416,-0.7309,-0.7421,-0.7526,-0.7628,-0.7628,-0.7638,-0.7694,-0.6719,-0.5427,-0.3847,-0.2869,-0.1494,0.0,0.0,0.0,0.0,0.0,0.0,0.0,0.0,0.0,0.0,0.0,0.0,0.0,0.0,0.0,0.0,0.0,0.0,0.0,0.0,0.0,0.0,0.0,0.0,0.0,0.0,0.0,0.0,0.0,0.0,0.0,0.0,0.0,0.0,0.0,0.0,-1.1659,-1.1727,-1.2135,-1.3466,-1.6138,-1.721,-1.7997,-1.8836,-1.9384,-1.982,-1.9987,-1.9993,-2.0034,-2.0107,-2.0394,-2.0555,-2.0555,-2.0762,-2.0869,-2.0869,-2.0661,-2.0408,-2.0107,-1.99,-1.9646,-1.9424,-1.9424,-1.9424,-1.9366,-1.9279,-1.9078,-1.8784,-1.849,-1.819,-1.8097,-2.0128,-2.12,-2.1753,-2.3666,-2.4137,-2.3769,0.0,-1.3584,-1.3923,-1.5047,-1.5236,-1.531,-1.5557,-1.5298,-1.4991,-1.4746,-1.5341,-1.6208,-1.7269,-1.8135,-1.8802,-1.9299,-1.7168,-1.5677,-1.5369,-1.3001,-1.1911,-1.2585,-1.1851,-1.115,-1.0469,-0.9416,-0.8408,-0.7465,-0.7556,-0.7641,-0.7723,-0.7723,-0.777,-0.7758,-0.6425,-0.5143,-0.3811,-0.2473,-0.1152,0.0,0.0,0.0,0.0,0.0,0.0,0.0,0.0,0.0,0.0,0.0,0.0,0.0,0.0,0.0,0.0,0.0,0.0,0.0,0.0,0.0,0.0,0.0,0.0,0.0,0.0,0.0,0.0,0.0,0.0,0.0,0.0,0.0,0.0,0.0,-1.2546,-1.3778,-1.4184,-1.4342,-1.5283,-1.7478,-1.8137,-1.88,-1.9847,-2.0134,-2.0287,-2.0408,-2.0421,-2.0421,-2.0421,-2.0702,-2.0855,-2.0855,-2.1022,-2.1109,-2.1109,-2.0942,-2.0708,-2.0414,-2.012,-1.9826,-1.9546,-1.9419,-1.9424,0.0,-1.9424,-1.9199,-1.8905,-1.8611,-1.8317,0.0,0.0,0.0,0.0,0.0,-2.4803,-2.4268,0.0,-1.4191,-1.4513,-1.5517,-1.5693,-1.5682,-1.5604,-1.5543,-1.5395,-1.5136,-1.5749,-1.6494,-1.7233,-1.7978,-1.8387,-1.8379,-1.6723,-1.5336,-1.4533,-1.2977,-1.2552,-1.3606,-1.3589,-1.2699,-1.089,-1.1024,-0.9981,-0.7624,-0.7641,-0.7648,-0.7648,-0.7648,-0.7648,-0.7601,-0.6395,-0.5108,-0.3722,-0.2555,-0.1257,0.0,0.0,0.0,0.0,0.0,0.0,0.0,0.0,0.0,0.0,0.0,0.0,0.0,0.0,0.0,0.0,0.0,0.0,0.0,0.0,0.0,0.0,0.0,0.0,0.0,0.0,0.0,0.0,0.0,0.0,0.0,0.0,0.0,0.0,0.0,-1.3634,-1.5844,-1.6628,-1.782,-1.8229,-1.715,-1.8718,-1.996,-2.0254,-2.0253,-2.0441,-2.0702,-2.0728,-2.0728,-2.0728,0.0,0.0,0.0,0.0,-2.1109,-2.1109,-2.1109,-2.0962,-2.0675,-2.0374,-2.008,-1.9786,-1.9499,-1.9424,-1.9424,-1.9424,-1.9219,-1.8951,-1.8624,-1.8345,-1.8178,-1.8099,-1.9723,-2.2424,-2.4429,-2.5165,0.0,0.0,-1.4752,-1.4947,-1.558,-1.5693,-1.5682,-1.5604,-1.5186,-1.4915,-1.5085,-1.51,-1.5546,-1.6719,-1.697,-1.7067,-1.6978,-1.5618,-1.4308,-1.325,-1.3221,-1.3473,-1.3981,-1.3523,-1.2625,-1.1217,-1.0454,-0.9331,-0.777,-0.7892,-0.7904,-0.7904,-0.7904,-0.7904,-0.7904,-0.7655,-0.622,-0.3944,-0.3682,-0.2175,0.0,0.0,0.0,0.0,0.0,0.0,0.0,0.0,0.0,0.0,0.0,0.0,0.0,0.0,0.0,0.0,0.0,0.0,0.0,0.0,0.0,0.0,0.0,0.0,0.0,0.0,0.0,0.0,0.0,0.0,0.0,0.0,0.0,0.0,-1.4071,-1.5487,-1.6783,-1.8207,-1.8867,-1.9241,-1.9227,-1.9747,-2.0261,-2.0561,-2.0802,-2.0962,-2.1022,-2.1029,-2.1029,-2.1029,-2.1082,0.0,-2.1109,-2.1109,-2.1109,-2.1109,-2.1109,-2.0962,-2.0675,0.0,0.0,-1.9786,-1.9499,-1.9424,-1.9424,-1.9424,-1.9332,-1.9239,-1.8711,-1.8801,-1.9413,-2.0459,-2.2567,-2.4962,-2.5431,-2.5381,-2.5037,-1.5663,-1.5467,-1.5475,-1.6007,-1.6107,-1.5886,-1.5241,-1.4903,-1.4602,-1.4323,-1.4377,-1.4785,-1.5664,-1.5635,-1.5458,-1.5205,-1.393,-1.3066,-1.2831,-1.3173,-1.3754,-1.4539,-1.3748,-1.2759,-1.1611,-1.0477,-0.9231,-0.7877,-0.7951,-0.7988,-0.7988,-0.7988,-0.7988,-0.7988,-0.7285,-0.5874,-0.3966,-0.3265,-0.1852,0.0,0.0,0.0,0.0,0.0,0.0,0.0,0.0,0.0,0.0,0.0,0.0,0.0,0.0,0.0,0.0,0.0,0.0,0.0,0.0,0.0,0.0,0.0,0.0,0.0,0.0,0.0,0.0,0.0,0.0,-0.8035,0.0,0.0,-1.2753,-1.4625,-1.648,-1.8051,-1.8984,-1.9272,-1.9472,-1.9766,-2.0054,-2.0347,-2.0648,-2.0942,-2.1109,-2.1109,-2.1109,-2.1109,-2.1109,-2.1109,-2.1109,-2.1109,-2.1109,-2.1109,-2.1109,-2.1109,-2.1036,-2.0889,-2.0448,-2.0154,-2.0,-1.9566,-1.9424,-1.9424,-1.9424,-1.9424,-1.9435,-1.9487,-1.9966,-2.0794,-2.2156,-2.3534,-2.4766,-2.543,-2.5547,-2.5312,-1.6434,-1.6137,-1.5953,-1.6284,-1.6337,-1.592,-1.4721,-1.4525,-1.4279,-1.3599,-1.3773,-1.4153,-1.4609,-1.4345,-1.3945,-1.3455,-1.2373,-1.2016,-1.2735,-1.3146,-1.3854,-1.4961,-1.4016,-1.2998,-1.1945,-1.0632,-0.9361,-0.7988,-0.7988,-0.7988,-0.7988,-0.7988,-0.7988,-0.7939,-0.6883,-0.5625,-0.4318,-0.2966,-0.1611,-0.0353,-0.0099,0.0,0.0,0.0,0.0,0.0,0.0,0.0,0.0,0.0,0.0,0.0,0.0,0.0,0.0,0.0,0.0,0.0,0.0,0.0,0.0,0.0,0.0,0.0,0.0,-0.7166,-0.7365,-0.7746,-0.8126,-0.8584,-0.9118,-1.1815,-1.4133,-1.4793,-1.7277,-1.9239,-1.9426,-1.9511,-1.9539,-1.9773,-2.0054,-2.0347,-2.0648,-2.0942,-2.1109,-2.1109,-2.1109,-2.1109,-2.1109,-2.1109,-2.1109,-2.1109,-2.1109,-2.1109,-2.1109,-2.1109,-2.1109,-2.1102,-2.0514,-2.0173,-2.0153,-1.9633,-1.9424,-1.9424,-1.9424,-1.9299,-1.9273,-2.013,-2.0945,-2.1853,-2.3176,-2.384,-2.4205,-2.5274,-2.5635,-2.5498,0.0,-1.645,-1.6262,-1.5786,-1.5698,-1.5298,-1.4097,-1.3909,-1.3803,-1.3549,-1.3545,-1.3714,-1.4133,-1.3615,-1.2911,-1.2088,-1.1677,-1.1829,-1.2723,-1.3568,-1.4282,-1.4981,-1.4247,-1.3219,-1.1945,-1.0632,-0.9361,-0.7988,-0.7988,-0.7988,-0.7988,-0.7988,-0.7988,-0.7988,-0.7839,-0.7033,-0.5677,-0.4368,-0.3015,-0.1661,-0.0503,0.0,0.0,0.0,0.0,0.0,0.0,0.0,0.0,0.0,0.0,0.0,0.0,0.0,0.0,0.0,0.0,-0.0284,-0.1604,-0.3613,-0.5635,-0.6763,-0.7183,-0.7484,0.0,-0.8014,-0.8012,-0.8496,-0.8733,-0.9292,-1.0723,-1.3011,-1.5146,-1.6499,-1.8586,-2.0007,-1.978,-1.9753,-1.9766,-1.98,-2.0054,-2.0347,-2.0648,-2.0942,-2.1109,-2.1109,-2.1109,-2.1109,-2.1109,-2.1109,-2.1109,-2.1109,-2.1109,-2.1109,-2.1109,-2.1109,-2.1109,-2.1102,-2.0514,-2.0173,-2.0153,-1.9633,-1.9424,-1.9424,-1.9424,-1.9072,-1.8689,-1.995,-2.0945,-2.1853,-2.3176,-2.4452,-2.5479,-2.5635,-2.5488,-2.5078,0.0,-1.65,-1.6315,-1.5698,-1.561,-1.5309,-1.4434,-1.4027,-1.3638,-1.3214,-1.3145,-1.3213,-1.3389,-1.2415,-1.1437,-1.0658,-1.0796,-1.1369,-1.2455,-1.3327,-1.4168,-1.4975,-1.3409,-1.2331,-1.1896,-0.9899,-0.8577,-0.7988,-0.7988,-0.7988,-0.7988,-0.7988,-0.7988,-0.7988,-0.7988,-0.7235,-0.5979,-0.5425,-0.3919,-0.1962,-0.141,-0.069,0.0,0.0,0.0,0.0,0.0,0.0,0.0,0.0,0.0,0.0,0.0,0.0,0.0,0.0,0.0,-0.0472,-0.2581,-0.4858,-0.6809,-0.7439,-0.778,-0.8009,-0.8262,-0.8353,-0.8509,-0.8784,-0.9032,-0.9688,-1.138,-1.3327,-1.5235,0.0,-1.8775,-1.994,-1.982,-1.98,-1.974,-1.9573,-1.9806,-2.016,-2.0635,-2.0782,-2.0929,-2.1096,-2.1109,-2.1109,-2.1109,-2.1109,-2.1109,-2.1109,-2.1109,-2.1109,-2.1109,-2.1109,-2.1109,-2.1102,-2.0514,-2.0173,-2.0153,-1.9633,-1.9424,-1.9424,-1.9424,-1.9038,-1.865,-2.0777,-2.1683,-2.1904,-2.4048,-2.5226,-2.5693,-2.5693,-2.5567,-2.5361,0.0,-1.65,-1.6358,-1.593,-1.5565,-1.5141,-1.4537,-1.3944,-1.3396,-1.2954,-1.2905,-1.2749,-1.2363,-1.1409,-1.0491,-0.977,-1.0177,-1.0968,-1.2104,-1.3026,-1.3881,-1.4727,-1.2675,-1.1582,-1.1801,-0.9284,-0.7988,-0.7988,-0.7988,-0.7988,-0.7988,-0.7988,-0.7988,-0.7988,-0.7988,-0.7484,-0.6531,-0.6179,-0.4872,-0.3015,-0.2301,-0.1421,-0.0523,-0.0141,0.0,0.0,0.0,0.0,0.0,0.0,0.0,0.0,0.0,0.0,0.0,0.0,-0.0481,-0.1533,-0.3843,-0.5958,-0.7634,-0.7911,-0.8218,-0.8391,-0.8391,-0.8587,-0.8815,-0.8967,-0.9171,-0.9878,-1.1533,-1.3407,-1.5266,-1.7123,-1.8883,-2.0013,-1.9927,-1.992,-1.978,-1.947,-1.9553,-1.988,-2.0388,-2.0581,-2.0795,-2.1089,-2.1109,-2.1109,-2.1109,-2.1109,-2.1109,-2.1109,-2.1109,-2.1109,-2.1109,-2.1109,-2.1109,-2.1102,-2.0514,-2.0173,-2.0153,-1.9633,-1.9424,-1.9424,-1.9424,-1.9038,-1.8705,-2.1372,-2.2155,-2.1954,-2.4658,-2.5693,-2.5693,-2.5693,-2.5615,-2.5459,0.0,0.0,-1.6488,-1.6479,-1.55,-1.4514,-1.3909,-1.331,-1.2929,-1.2905,-1.2905,-1.2387,-1.1023,-1.0838,-1.0491,-0.977,-0.996,-1.0628,-1.1839,-1.2726,-1.3494,-1.4088,-1.2444,-1.1502,-1.1512,-0.9221,-0.7988,-0.7988,-0.7988,-0.7988,-0.7988,-0.7988,-0.7988,-0.7988,-0.7988,-0.7988,-0.7839,-0.6531,-0.5929,-0.5667,-0.3054,-0.1984,-0.1802,-0.0502,0.0,0.0,0.0,0.0,0.0,0.0,0.0,0.0,0.0,0.0,0.0,0.0,-0.1748,-0.3962,-0.5194,-0.6733,-0.7971,-0.7985,-0.837,-0.8696,-0.8696,-0.8818,-0.8974,-0.9173,-0.921,-0.9653,-1.1228,-1.3304,-1.538,-1.7123,-1.9267,-2.0548,-2.0261,-2.0221,-2.0007,-1.9432,-1.943,-1.9499,0.0,-2.0341,-2.0795,-2.1089,-2.1109,-2.1109,-2.1109,-2.1109,-2.1109,-2.1109,-2.1109,-2.1109,-2.1109,-2.1109,-2.1109,-2.1102,-2.0514,-2.0173,-2.0153,-1.9633,-1.9424,-1.9424,-1.9424,-1.9038,-1.8705,-2.1372,-2.2155,-2.1954,-2.4658,-2.5693,-2.5693,-2.5693,-2.5459,-2.5135,0.0,0.0,0.0,-1.65,-1.55,-1.4629,-1.4422,-1.3549,-1.2905,-1.2905,-1.2905,0.0,0.0,0.0,0.0,0.0,-0.9804,-1.0448,-1.1236,-1.2118,-1.2879,-1.348,-1.1759,-1.0835,-1.1025,-0.8879,-0.7746,-0.7746,-0.7746,-0.7746,-0.775,-0.7845,-0.7889,-0.7892,-0.7944,-0.7988,-0.7985,-0.7435,-0.6752,-0.5812,-0.3933,-0.2725,-0.1851,-0.0509,0.0,0.0,0.0,0.0,0.0,0.0,0.0,0.0,0.0,0.0,0.0,0.0,-0.187,-0.4063,-0.454,-0.6406,-0.8241,-0.8435,-0.8598,-0.8737,-0.8838,-0.8848,-0.8898,-0.9001,-0.9011,-0.9464,-1.1052,-1.2161,-1.3815,-1.6908,-1.8203,-1.9216,-2.0385,-2.0528,-2.0307,-1.9726,-1.9659,0.0,0.0,0.0,0.0,-2.0782,-2.0822,-2.0909,-2.1096,-2.1109,-2.1109,-2.1109,-2.1109,-2.1109,-2.1109,-2.1109,-2.1109,-2.1102,-2.0514,-2.0034,-1.9653,-1.9459,-1.9424,-1.9424,-1.9424,-1.958,-1.9975,-2.1733,-2.2684,-2.3226,-2.502,-2.5693,-2.5693,-2.5693,-2.5449,-2.5077,0.0,0.0,0.0,0.0,0.0,0.0,0.0,0.0,0.0,0.0,0.0,0.0,0.0,0.0,0.0,0.0,0.0,-1.01,-1.0795,-1.1463,-1.2151,-1.2852,-1.1381,-1.0537,-1.0494,-0.8673,-0.7639,-0.7434,-0.7434,-0.7492,-0.76,-0.7692,-0.7736,-0.774,-0.7838,-0.7833,-0.7826,-0.7777,-0.7305,-0.6431,-0.4955,-0.3671,-0.2503,-0.1121,-0.034,0.0,0.0,0.0,0.0,0.0,0.0,0.0,0.0,0.0,-0.0162,-0.1078,-0.2624,-0.4249,-0.5264,-0.6916,-0.8404,-0.8648,-0.875,-0.8818,-0.8861,-0.8841,-0.8804,-0.8804,-0.8815,-0.9255,-1.0795,-1.1695,-1.3072,-1.5781,-1.6942,-1.8016,-1.9513,-1.9715,-1.9798,-1.9953,-1.9953,-1.9953,0.0,0.0,0.0,-2.0641,-2.0775,-2.0909,-2.1096,-2.1109,-2.1109,-2.1109,-2.1109,-2.1109,-2.1109,-2.1109,-2.1002,-2.0788,-2.0414,-1.9927,-1.9424,-1.9424,-1.9424,-1.9417,-1.9259,-1.9696,-2.0599,-2.1812,-2.2877,-2.384,-2.5177,-2.5693,-2.5674,-2.5557,-2.5312,-2.5077,0.0,0.0,0.0,0.0,0.0,0.0,0.0,0.0,0.0,0.0,0.0,0.0,0.0,0.0,0.0,0.0,0.0,0.0,-1.0512,-1.0854,-1.1363,-1.2198,-1.131,-1.0477,-0.9863,-0.8625,-0.7697,-0.7071,-0.7071,-0.7223,-0.7553,-0.756,-0.7567,-0.7567,-0.7573,-0.7577,-0.7573,-0.7567,-0.757,-0.7456,-0.5975,-0.4721,-0.3631,-0.2166,-0.0922,0.0,0.0,0.0,0.0,0.0,0.0,0.0,0.0,0.0,-0.0507,-0.2977,-0.3842,-0.4576,-0.7206,-0.8231,-0.854,-0.8686,-0.8832,-0.8881,-0.8871,-0.8815,-0.8706,-0.8689,-0.857,-0.8929,-1.0298,0.0,-1.3133,-1.3948,-1.5635,-1.7114,-1.7935,-1.817,-1.8746,0.0,0.0,0.0,0.0,0.0,0.0,-2.0655,0.0,-2.1096,-2.1109,-2.1109,-2.1109,-2.1109,-2.1109,-2.1109,-2.1109,-2.1096,-2.0802,-2.0173,-2.0221,-1.9913,-1.9424,-1.9424,-1.9424,-1.9352,-1.9052,-1.957,-2.0693,-2.1679,-2.2766,-2.3949,-2.5226,-2.5693,-2.5635,-2.5234,-2.5106,-2.5077,0.0,0.0,0.0,0.0,0.0,0.0,0.0,0.0,0.0,0.0,0.0,0.0,0.0,0.0,0.0,0.0,0.0,0.0,-1.0214,-1.0708,-1.1089,-1.1316,-1.0659,-0.9974,-0.9332,-0.8365,-0.7512,-0.6814,-0.6814,-0.6851,-0.6932,-0.7044,-0.7055,-0.7061,-0.7166,-0.7213,-0.7206,-0.7098,-0.7115,-0.7097,-0.5634,-0.4475,-0.3479,-0.2105,-0.0934,0.0,0.0,0.0,0.0,0.0,0.0,0.0,0.0,0.0,-0.0325,-0.209,-0.3463,-0.4745,-0.6569,-0.7917,-0.8832,-0.8814,-0.8854,-0.8854,-0.8794,-0.8737,-0.8648,-0.8428,-0.835,-0.8405,-0.8513,-1.0108,-1.1977,-1.3697,-1.5782,0.0,-1.9723,-2.0171,0.0,-2.0533,0.0,-2.0474,-2.0193,-2.0434,0.0,0.0,-2.0742,-2.0882,-2.1096,-2.1109,-2.1109,-2.1109,-2.1109,-2.1109,-2.1109,-2.0895,-2.0601,-2.0227,-2.0013,-1.972,-1.9424,-1.9424,-1.9424,-1.9352,-1.9052,-2.0057,-2.1977,-2.2055,-2.3344,-2.5226,-2.5586,-2.5693,-2.5635,-2.5234,-2.4863,-2.4541,0.0,0.0,0.0,0.0,0.0,0.0,0.0,0.0,0.0,0.0,0.0,0.0,0.0,0.0,0.0,0.0,0.0,0.0,0.0,-1.0428,-1.0722,-1.0982,-1.0564,-1.0025,-0.9391,-0.8995,-0.8192,-0.6885,-0.718,-0.7086,-0.6603,-0.6756,-0.6793,-0.6732,-0.681,-0.6848,-0.6841,-0.6763,-0.6814,0.0,0.0,-0.503,-0.407,-0.328,-0.228,-0.1292,-0.0862,-0.0787,-0.0871,-0.0892,-0.0833,-0.0816,-0.085,-0.0931,-0.1256,-0.2683,-0.4215,-0.5797,-0.7268,-0.8262,-0.8898,-0.9018,-0.8933,-0.8798,-0.8645,-0.8564,-0.8431,-0.813,-0.8069,-0.7997,-0.7763,-0.9661,-1.155,-1.2505,0.0,0.0,-1.9227,-1.9751,-2.0201,0.0,-2.0869,0.0,-2.0635,-2.0768,-2.0869,0.0,-2.0869,-2.0935,-2.1102,-2.1109,-2.1109,-2.1109,-2.1109,-2.1109,-2.1109,-2.0822,-2.0528,-2.0227,-1.994,-1.9646,-1.9424,-1.9424,-1.9424,-1.9345,0.0,-2.0149,-2.2495,-2.2075,-2.3438,-2.5693,-2.5693,-2.5693,-2.5615,-2.5019,-2.4629,-2.4326,0.0,0.0,0.0,0.0,0.0,0.0,0.0,0.0,0.0,0.0,0.0,0.0,0.0,0.0,0.0,0.0,0.0,0.0,0.0,0.0,-1.0401,-1.0915,-1.0727,-1.0303,-0.9677,-0.9901,-0.9123,-0.7291,-0.7929,-0.7708,-0.6734,-0.6878,-0.679,-0.658,-0.658,-0.6512,-0.6453,-0.6453,-0.6502,-0.663,-0.6538,-0.5842,-0.4863,0.0,-0.4021,-0.2968,-0.2113,-0.204,-0.2373,-0.2438,-0.2311,-0.2094,-0.2268,-0.2362,-0.2737,-0.4135,-0.558,-0.7051,-0.853,-0.8898,-0.8974,-0.9173,-0.893,-0.8669,-0.8516,-0.8357,-0.816,-0.7872,-0.7797,-0.774,-0.7597,-0.9738,-1.1487,-1.1413,-1.3975,-1.6511,-1.8022,-1.853,-1.9376,-2.0912,-2.1109,-2.1109,-2.1109,-2.1109,-2.1109,-2.1109,-2.1109,-2.1109,-2.1109,-2.1109,-2.1109,-2.1109,-2.1109,-2.1089,-2.1049,-2.0762,-2.0468,-2.0113,-1.9887,-1.9613,-1.9424,-1.9424,-1.9403,-1.9279,0.0,0.0,-2.2147,-2.1829,-2.3176,-2.543,-2.5635,-2.5654,-2.5499,-2.4717,-2.4385,-2.4219,0.0,0.0,0.0,0.0,0.0,0.0,0.0,0.0,0.0,0.0,-1.4687,-1.3463,0.0,0.0,0.0,0.0,0.0,0.0,0.0,0.0,0.0,-1.0667,-1.062,-1.0264,-0.9532,-0.9584,-0.9122,-0.8157,-0.8303,-0.8248,-0.8068,-0.811,-0.7712,-0.7005,-0.7005,-0.6648,-0.6105,-0.6105,-0.6196,-0.6375,-0.6347,-0.5704,-0.4714,-0.4696,0.0,0.0,-0.289,-0.351,-0.4465,-0.4864,-0.438,-0.362,-0.3772,-0.3835,-0.419,-0.5771,-0.6447,-0.707,-0.8703,-0.9028,-0.8974,-0.9173,-0.893,-0.8669,-0.8516,-0.8272,-0.7978,-0.7848,-0.7719,-0.759,-0.7438,-0.9096,-1.0973,-1.2582,-1.4851,-1.7204,-1.9505,-2.009,-2.0516,0.0,-2.1109,-2.1109,-2.1109,-2.1109,0.0,0.0,0.0,0.0,-2.1109,-2.1109,-2.1109,-2.1109,-2.1109,-2.0995,-2.0755,-2.0454,-2.016,-1.9873,-1.9579,-1.9477,-1.9424,-1.9424,-1.9232,-1.8985,0.0,0.0,-2.0597,-2.1364,-2.2617,-2.4146,-2.5274,-2.5508,-2.5117,-2.4609,-2.4199,-2.3828,0.0,0.0,0.0,0.0,0.0,0.0,0.0,-1.4531,-1.5264,-1.6613,-1.6406,-1.5381,-1.338,-1.3056,-1.2311,0.0,0.0,0.0,0.0,0.0,0.0,0.0,-1.0593,-1.0424,-1.0069,-1.0522,-1.0214,-0.907,0.0,-0.9272,-0.8514,-0.8438,-0.8139,-0.7663,-0.7663,-0.7249,-0.6561,-0.6561,-0.6455,-0.63,-0.63,-0.5983,-0.555,0.0,0.0,0.0,-0.3943,-0.4395,-0.5048,-0.5257,-0.5583,-0.5777,-0.5293,-0.5212,-0.5455,-0.6355,-0.7129,-0.7952,-0.8957,-0.9049,-0.8974,-0.9173,-0.8869,-0.8533,-0.8303,-0.8082,-0.7786,-0.7479,-0.7472,-0.7434,-0.7278,-0.8586,-1.0187,-1.1527,-1.3964,-1.6363,-1.8286,-1.9508,-2.0388,-2.0828,-2.1022,-2.1109,-2.1109,-2.1109,0.0,0.0,0.0,0.0,-2.1109,-2.1109,-2.1109,-2.1109,-2.0962,-2.0815,-2.0675,-2.0234,-1.994,-1.98,-1.9506,-1.9424,-1.9424,-1.9424,-1.9205,-1.8911,0.0,0.0,-2.0204,-2.1245,-2.2508,-2.384,-2.5177,-2.5459,-2.5057,-2.458,-2.415,-2.3721,0.0,0.0,0.0,0.0,0.0,0.0,0.0,-1.5225,-1.6055,-1.7471,-1.8018,-1.7423,-1.5211,-1.4227,-1.2909,0.0,0.0,0.0,0.0,0.0,0.0,0.0,0.0,-1.062,-1.068,0.0,0.0,0.0,-1.0652,0.0,0.0,0.0,0.0,0.0,0.0,-0.8216,-0.753,-0.753,-0.7183,0.0,0.0,-0.6539,0.0,0.0,0.0,0.0,0.0,-0.5259,-0.5408,-0.5488,-0.6377,-0.73,-0.6583,-0.6495,-0.6749,-0.6864,-0.7759,-0.8767,-0.9035,-0.9025,-0.8974,-0.9173,-0.8869,-0.8414,-0.815,-0.7923,-0.7655,-0.7223,-0.7258,-0.7285,-0.7119,-0.8065,-0.9213,-1.0245,-1.2473,-1.4624,-1.6278,-1.8117,-1.9515,-2.0087,-2.0734,0.0,-2.1109,-2.1109,0.0,0.0,0.0,0.0,0.0,-2.1109,-2.1109,-2.1109,-2.0828,-2.0648,-2.0581,-2.006,-1.9766,-1.9706,-1.9472,-1.9424,-1.9424,-1.9424,-1.9172,-1.8818,0.0,0.0,0.0,-2.0802,-2.2055,-2.3384,-2.4766,-2.515,-2.493,-2.4541,-2.4092,-2.3603,0.0,0.0,0.0,0.0,0.0,0.0,0.0,-1.5508,-1.6643,-1.8266,-1.8896,-1.8651,-1.7277,-1.5401,-1.3362,0.0,0.0,0.0,0.0,0.0,0.0,0.0,0.0,0.0,0.0,0.0,0.0,0.0,0.0,0.0,0.0,0.0,0.0,0.0,0.0,0.0,0.0,-0.8927,0.0,0.0,0.0,0.0,0.0,0.0,0.0,0.0,0.0,-0.6464,-0.6431,-0.6787,-0.692,-0.7024,-0.733,-0.7743,-0.8142,-0.8298,-0.8495,-0.8747,-0.8913,-0.8895,-0.8974,-0.9173,-0.8869,-0.8442,-0.8286,-0.7923,-0.7567,-0.7387,-0.7248,-0.7112,-0.7098,-0.7355,-0.8208,-1.0104,-1.0757,-1.1921,-1.4469,-1.6413,-1.7828,-1.8467,0.0,0.0,-2.1109,-2.1109,0.0,0.0,0.0,0.0,0.0,-2.1109,-2.1109,-2.1109,-2.0828,-2.0548,-2.0274,-1.996,-1.9666,-1.9464,-1.9379,-1.9424,-1.9424,-1.9424,-1.9058,-1.8531,0.0,0.0,0.0,-1.9228,-2.0641,-2.2005,-2.3384,-2.4113,-2.4473,-2.4434,-2.3896,-2.3149,0.0,0.0,0.0,0.0,0.0,0.0,-1.4971,-1.5703,-1.6809,-1.8769,-1.918,-1.8747,-1.7255,-1.6039,-1.4458,-1.2346,0.0,0.0,0.0,0.0,0.0,0.0,0.0,0.0,0.0,0.0,-1.1837,-1.1951,0.0,0.0,0.0,0.0,0.0,0.0,0.0,0.0,0.0,0.0,0.0,0.0,0.0,0.0,0.0,0.0,0.0,0.0,0.0,0.0,-0.6624,-0.6709,-0.6824,-0.6903,-0.7031,-0.7366,-0.7794,-0.8119,-0.8323,-0.8496,-0.8737,-0.8814,-0.8875,-0.8896,-0.8682,-0.8394,-0.8069,-0.779,-0.7529,-0.7285,-0.7139,-0.7095,-0.7095,-0.7146,-0.7531,-0.8562,-0.9388,-1.0515,-1.2149,-1.3899,-1.5744,-1.7553,-1.8668,0.0,0.0,0.0,0.0,0.0,0.0,0.0,0.0,-2.1109,-2.1029,-2.0855,-2.0561,-2.0267,-1.9973,-1.9686,-1.9486,-1.9424,-1.9424,-1.9424,-1.9417,-1.9185,-1.8878,-1.8477,0.0,0.0,0.0,-1.9065,-2.0436,-2.1853,-2.3176,-2.3988,-2.4414,-2.4414,-2.3832,-2.3091,0.0,0.0,0.0,0.0,0.0,-1.3896,-1.5049,-1.5811,-1.6894,-1.8682,-1.8904,-1.8443,-1.7248,-1.6175,-1.4924,-1.3406,-1.1961,0.0,0.0,0.0,0.0,0.0,0.0,0.0,0.0,0.0,-1.2345,-1.2432,-1.277,0.0,0.0,0.0,0.0,0.0,0.0,0.0,0.0,0.0,0.0,0.0,0.0,0.0,0.0,0.0,0.0,0.0,0.0,0.0,0.0,0.0,0.0,-0.6851,-0.6787,-0.6956,-0.7272,-0.7763,-0.8048,-0.8258,-0.8513,-0.8689,-0.8777,-0.8669,-0.853,-0.8313,-0.7906,-0.7702,-0.7512,-0.7159,-0.7095,-0.7095,-0.7095,-0.7095,-0.7183,-0.7489,-0.8346,-0.9204,-1.0016,-1.173,-1.3653,-1.5583,0.0,-1.7964,0.0,0.0,0.0,0.0,0.0,0.0,0.0,0.0,-2.0795,-2.0681,-2.0307,-2.0007,-1.9806,-1.9512,-1.9424,-1.9424,-1.9424,-1.9325,-1.9232,-1.9018,-1.8718,0.0,0.0,0.0,0.0,-1.9065,-2.0436,-2.1845,-2.3003,-2.3886,-2.4404,-2.4277,-2.3769,-2.3091,0.0,0.0,0.0,0.0,0.0,0.0,-1.4658,-1.5889,-1.7009,-1.791,-1.7956,-1.7859,-1.771,-1.5744,-1.4343,-1.4194,-1.2487,0.0,0.0,0.0,0.0,0.0,0.0,0.0,0.0,0.0,-1.2445,-1.2777,-1.3053,-1.32,-1.32,-1.32,0.0,0.0,0.0,0.0,0.0,0.0,0.0,0.0,0.0,0.0,0.0,0.0,0.0,0.0,0.0,0.0,0.0,0.0,0.0,0.0,0.0,-0.6824,-0.6827,-0.7428,-0.7814,-0.8025,-0.8235,-0.8377,-0.8486,-0.8486,-0.8377,-0.8191,-0.7882,-0.7702,-0.7512,-0.7159,-0.7095,-0.7095,-0.7095,-0.7095,-0.7146,-0.735,-0.7545,-0.7804,-0.8262,-1.0183,-1.1627,0.0,0.0,-1.585,0.0,0.0,0.0,0.0,0.0,0.0,0.0,0.0,-2.0374,-2.0668,-2.0114,-1.9806,-1.98,-1.9512,-1.9424,-1.9424,-1.9424,-1.9212,-1.8925,-1.8925,0.0,0.0,0.0,0.0,0.0,-1.9065,-2.0436,-2.1769,-2.2646,-2.3587,-2.4365,-2.3945,-2.3516,-2.3091,0.0,0.0,0.0,0.0,0.0,0.0,0.0,-1.5381,-1.625,-1.7422,-1.6952,-1.6564,-1.6643,-1.5324,-1.4147,-1.3585,-1.2428,0.0,0.0,0.0,0.0,0.0,0.0,0.0,0.0,0.0,-1.3066,-1.336,-1.382,-1.4001,-1.3808,-1.3808,-1.3547,0.0,0.0,0.0,0.0,0.0,0.0,0.0,0.0,0.0,0.0,0.0,0.0,0.0,0.0,0.0,0.0,0.0,0.0,0.0,0.0,0.0,0.0,-0.6929,-0.7343,-0.777,-0.7916,-0.8143,-0.8286,-0.8075,-0.7991,-0.7879,-0.758,-0.7475,-0.7387,-0.7139,-0.7095,-0.7095,-0.7095,-0.7095,-0.7213,-0.7614,-0.7712,-0.7902,-0.835,-1.0144,0.0,-1.3687,-1.7018,-1.9418,0.0,0.0,0.0,0.0,0.0,0.0,0.0,0.0,-1.998,-2.0074,-1.99,-1.9706,-1.9506,-1.9412,-1.9424,-1.9424,-1.9158,-1.9018,-1.8911,-1.849,0.0,0.0,0.0,0.0,0.0,-1.8042,-1.9383,-2.1263,-2.1542,-2.2577,-2.3975,-2.3838,-2.3516,-2.3091,0.0,0.0,0.0,0.0,0.0,0.0,0.0,-1.5283,-1.5947,-1.6809,-1.5999,-1.5471,-1.5733,-1.4454,-1.3492,-1.3213,-1.2592,0.0,0.0,0.0,0.0,0.0,0.0,0.0,-1.2465,-1.2959,-1.3407,-1.3808,-1.4289,-1.4482,-1.4422,-1.4422,-1.4108,-1.3534,-1.338,0.0,0.0,0.0,0.0,0.0,0.0,0.0,0.0,0.0,0.0,0.0,0.0,0.0,0.0,0.0,0.0,0.0,0.0,0.0,0.0,0.0,-0.6922,-0.7316,-0.7577,-0.7828,-0.7974,-0.778,-0.7733,-0.7668,-0.7473,-0.7415,-0.7326,-0.7129,-0.7095,-0.7095,-0.7095,-0.7095,-0.7186,-0.7466,-0.7655,-0.7848,-0.818,0.0,0.0,-1.4463,0.0,0.0,0.0,0.0,0.0,0.0,0.0,0.0,0.0,0.0,-1.9639,-1.9639,-1.9639,-1.9553,-1.9424,-1.9424,-1.9312,-1.9199,-1.9011,-1.8804,-1.8522,0.0,0.0,0.0,0.0,0.0,0.0,-1.8029,-1.9321,-2.1024,-2.1294,-2.2395,-2.3769,-2.3603,-2.3369,-2.3091,0.0,0.0,0.0,0.0,0.0,0.0,0.0,-1.5537,-1.6056,-1.6085,-1.5133,-1.4579,-1.4947,-1.3382,-1.2572,-1.316,0.0,0.0,0.0,0.0,0.0,0.0,0.0,0.0,-1.2777,-1.3073,-1.3527,-1.4122,-1.4409,-1.4703,-1.5042,-1.5042,-1.4727,-1.4115,-1.4095,-1.3655,0.0,0.0,0.0,0.0,0.0,0.0,0.0,0.0,0.0,0.0,0.0,0.0,0.0,0.0,0.0,0.0,0.0,0.0,0.0,0.0,0.0,0.0,0.0,-0.7428,-0.755,-0.7539,-0.7536,-0.7499,-0.7402,-0.7368,0.0,-0.7109,-0.7082,-0.7088,-0.7109,-0.7102,-0.7109,-0.7152,-0.7434,-0.7672,0.0,-0.9757,0.0,0.0,0.0,0.0,0.0,0.0,0.0,0.0,0.0,0.0,0.0,0.0,0.0,-1.9397,-1.9332,-1.9403,-1.9424,-1.9403,-1.9199,-1.8925,-1.8878,-1.8522,-1.7995,0.0,0.0,0.0,0.0,0.0,0.0,-1.8665,-1.9749,-2.0868,-2.1588,-2.2565,-2.3602,-2.3247,-2.3091,-2.3091,0.0,0.0,0.0,0.0,0.0,0.0,0.0,0.0,0.0,0.0,-1.4903,-1.4186,-1.4571,-1.3448,-1.2837,0.0,0.0,0.0,0.0,0.0,0.0,0.0,0.0,0.0,-1.2784,-1.3267,-1.3786,-1.4422,-1.4716,-1.501,-1.5297,-1.5297,-1.4983,-1.4409,-1.4182,-1.3841,0.0,0.0,0.0,0.0,0.0,0.0,0.0,0.0,0.0,0.0,0.0,-0.8113,0.0,0.0,0.0,0.0,0.0,0.0,0.0,0.0,-0.6453,-0.659,-0.6695,0.0,-0.7058,-0.6943,-0.6912,-0.6902,0.0,-0.6858,-0.6881,-0.692,-0.6933,-0.7004,-0.7275,-0.7221,-0.7247,-0.7705,-0.779,-0.7892,-0.8272,0.0,0.0,-1.4685,0.0,0.0,0.0,0.0,0.0,0.0,0.0,0.0,0.0,0.0,0.0,-1.9038,-1.9025,-1.9138,-1.9424,-1.9145,-1.8991,-1.8861,-1.8408,-1.8129,-1.7982,0.0,0.0,0.0,0.0,0.0,0.0,-1.7579,-1.8117,-1.8903,-1.9958,-2.1014,-2.1983,-2.2813,-2.3091,-2.3091,0.0,0.0,0.0,0.0,0.0,0.0,0.0,0.0,0.0,0.0,0.0,0.0,0.0,0.0,0.0,0.0,0.0,0.0,0.0,0.0,0.0,0.0,0.0,-1.3019,-1.3153,-1.3614,-1.4135,-1.4723,-1.5017,-1.5311,-1.5591,-1.5591,-1.5284,-1.4696,-1.4135,-1.3868,0.0,0.0,0.0,0.0,0.0,0.0,0.0,0.0,0.0,0.0,-0.9881,-0.937,0.0,-0.7781,-0.7484,-0.7584,0.0,0.0,0.0,0.0,-0.6354,-0.6416,-0.6416,-0.6695,-0.6964,-0.6922,-0.6902,-0.6902,-0.6902,-0.6797,-0.6722,-0.6807,-0.6836,-0.6937,-0.7139,-0.7693,-0.8023,-0.7773,-0.8298,0.0,0.0,0.0,-1.2682,0.0,0.0,0.0,0.0,0.0,0.0,0.0,0.0,0.0,0.0,0.0,0.0,0.0,-1.8724,-1.8804,-1.8965,-1.8804,-1.8657,-1.8462,-1.8149,-1.7916,-1.7829,0.0,0.0,0.0,0.0,0.0,-1.6934,-1.6851,-1.7288,-1.8155,-1.8691,-1.9891,-2.1382,-2.2031,-2.2633,-2.3091,0.0,0.0,0.0,0.0,0.0,0.0,0.0,0.0,0.0,0.0,0.0,0.0,0.0,0.0,0.0,0.0,0.0,0.0,0.0,0.0,0.0,0.0,-1.33,-1.3373,-1.3666,-1.3955,-1.4439,-1.5075,-1.5231,-1.5504,-1.5784,-1.5784,-1.5518,-1.4975,-1.4128,-1.3853,0.0,0.0,0.0,0.0,0.0,0.0,0.0,0.0,0.0,0.0,0.0,0.0,0.0,-0.8957,-0.8491,-0.8442,-0.7267,0.0,0.0,0.0,0.0,0.0,-0.6354,-0.6888,-0.7339,-0.7054,-0.7031,-0.7058,-0.7034,-0.6878,-0.6709,-0.6729,-0.6841,-0.6992,-0.7231,-0.8226,-0.8754,-0.7948,0.0,0.0,-1.0858,-1.1197,-1.2119,0.0,0.0,0.0,0.0,0.0,0.0,0.0,0.0,0.0,0.0,0.0,0.0,0.0,-1.8424,-1.8397,-1.835,-1.8397,-1.8297,-1.7995,-1.7949,-1.7836,-1.7582,-1.7535,0.0,0.0,0.0,0.0,-1.662,-1.6373,-1.6863,-1.7739,-1.7702,-1.9039,-2.1069,-2.1248,-2.2076,-2.3091,0.0,0.0,0.0,0.0,0.0,0.0,0.0,0.0,0.0,0.0,0.0,0.0,0.0,0.0,0.0,0.0,0.0,0.0,0.0,0.0,0.0,-1.3955,-1.3673,-1.3673,-1.4015,-1.4062,-1.4496,-1.5331,-1.513,-1.5304,-1.5784,-1.5784,-1.5518,-1.4988,-1.4556,-1.4275,-1.4082,0.0,0.0,0.0,0.0,0.0,0.0,0.0,0.0,0.0,0.0,0.0,0.0,-0.9563,-0.9472,-0.9641,-0.8098,0.0,0.0,0.0,0.0,0.0,-0.6566,-0.7677,-0.8426,-0.6953,-0.677,-0.6883,-0.6797,-0.6732,-0.6736,-0.6825,-0.6869,-0.7342,-0.8811,-0.8326,-0.8134,-0.9554,0.0,-0.8867,0.0,0.0,0.0,0.0,0.0,0.0,0.0,0.0,0.0,0.0,0.0,0.0,0.0,0.0,0.0,0.0,0.0,-1.7989,-1.7722,-1.7983,-1.8035,-1.7989,-1.7776,-1.7629,-1.7575,-1.738,-1.7246,0.0,0.0,0.0,-1.6382,-1.6342,-1.6216,-1.6265,-1.7293,-1.8542,-1.9898,-2.0935,-2.2076,-2.3091,0.0,0.0,0.0,0.0,0.0,0.0,0.0,0.0,0.0,0.0,0.0,0.0,0.0,0.0,0.0,0.0,0.0,0.0,0.0,0.0,-1.4088,-1.4088,-1.3955,-1.4021,-1.4315,-1.4476,-1.4836,-1.5398,-1.5424,-1.5571,-1.5771,-1.5504,-1.5217,-1.4988,-1.4489,-1.4215,-1.4088,-1.4088,-1.4088,0.0,0.0,0.0,0.0,0.0,0.0,0.0,0.0,0.0,0.0,0.0,-1.0416,-1.0309,-0.8474,0.0,0.0,0.0,0.0,0.0,-0.6467,-0.7639,-0.8713,-0.7998,-0.8618,-0.9385,-0.9292,-0.9155,-0.8866,-0.8229,-0.815,-0.846,-0.9237,-0.9565,-1.0292,-1.2103,0.0,0.0,0.0,0.0,0.0,0.0,0.0,0.0,0.0,0.0,0.0,0.0,0.0,0.0,0.0,0.0,0.0,0.0,0.0,0.0,-1.7582,-1.7722,-1.7796,-1.7796,-1.7649,-1.7502,-1.7393,-1.7266,-1.7032,0.0,0.0,-1.6306,-1.6032,-1.6032,-1.5952,-1.592,-1.7178,-1.8457,-1.9716,-2.1578,-2.2633,-2.3091,0.0,0.0,0.0,0.0,0.0,0.0,0.0,0.0,0.0,0.0,0.0,0.0,0.0,0.0,0.0,0.0,0.0,0.0,0.0,0.0,-1.4015,-1.4082,-1.4088,-1.4255,-1.4616,-1.4776,-1.507,-1.5498,-1.5651,-1.5718,-1.5771,-1.5304,-1.5075,-1.4988,-1.4416,-1.4155,-1.4088,-1.4088,-1.4088,0.0,0.0,0.0,0.0,0.0,0.0,0.0,0.0,0.0,0.0,0.0,0.0,0.0,0.0,0.0,0.0,-0.7339,-0.6954,-0.6912,-0.7067,-0.8148,-0.9336,-0.9597,-1.0431,-1.1282,-1.1476,-1.1196,-1.0684,-0.9826,-0.975,-0.9917,-1.0281,-1.1463,0.0,-1.3331,-1.2351,0.0,0.0,0.0,0.0,0.0,0.0,0.0,0.0,0.0,0.0,0.0,0.0,0.0,0.0,0.0,0.0,0.0,0.0,0.0,-1.7582,-1.7582,-1.7582,-1.7582,-1.7582,-1.7481,-1.7199,-1.7125,-1.6811,-1.6321,-1.6199,-1.6039,-1.5784,-1.5784,-1.5784,-1.592,-1.685,-1.818,-1.9807,-2.2227,-2.3091,-2.3091,0.0,0.0,0.0,0.0,0.0,0.0,0.0,0.0,0.0,0.0,0.0,0.0,0.0,0.0,0.0,0.0,0.0,0.0,0.0,0.0,-1.376,-1.4075,-1.4088,-1.4355,-1.4961,-1.4683,-1.4963,-1.5751,-1.5545,-1.5565,-1.5771,-1.5511,-1.5224,-1.4995,-1.4629,-1.4342,-1.4088,-1.4088,-1.4088,-1.4035,-1.3447,0.0,0.0,0.0,0.0,0.0,0.0,0.0,0.0,0.0,0.0,0.0,0.0,0.0,-1.0711,-0.9438,-0.8879,-0.8733,-0.9299,-1.0229,-1.118,-1.175,-1.1192,-1.0641,-1.1359,-1.1062,-1.077,-1.1227,-1.1329,-1.1773,-1.3124,-1.392,-1.3661,-1.1335,0.0,0.0,0.0,0.0,0.0,0.0,0.0,0.0,0.0,0.0,0.0,0.0,0.0,0.0,0.0,0.0,0.0,0.0,0.0,0.0,-1.7582,-1.7582,-1.7582,-1.7582,-1.7582,-1.7481,-1.7192,-1.6867,-1.6567,-1.6259,-1.5979,-1.5798,-1.5784,-1.5784,-1.5784,-1.5832,-1.592,-1.739,-1.9807,-2.2227,-2.3091,-2.3091,0.0,0.0,0.0,0.0,0.0,0.0,0.0,0.0,0.0,0.0,0.0,0.0,0.0,0.0,0.0,0.0,0.0,0.0,0.0,-1.3393,-1.3653,-1.3766,-1.3988,-1.4188,-1.4459,-1.4669,-1.5137,-1.5784,-1.5718,-1.5718,-1.5771,-1.5344,-1.5115,-1.4988,-1.4469,-1.4188,-1.4088,-1.4088,-1.4088,-1.4035,-1.3447,0.0,0.0,0.0,0.0,0.0,0.0,0.0,0.0,0.0,-1.1864,-1.1999,-1.0647,-1.0558,-1.07,-0.9363,-0.8903,-0.8846,-0.9062,-1.0313,-1.1585,-1.1793,-1.2403,-1.308,-1.3579,-1.3762,-1.3727,-1.3315,-1.3239,-1.3366,-1.3749,-1.485,-1.5382,-1.4568,0.0,0.0,0.0,0.0,0.0,0.0,0.0,0.0,0.0,0.0,0.0,0.0,0.0,0.0,0.0,0.0,0.0,0.0,0.0,0.0,0.0,-1.7041,-1.7041,-1.7041,-1.7273,-1.7112,-1.665,-1.6486,-1.6273,-1.5992,-1.5879,-1.5784,-1.5784,-1.5784,-1.5784,-1.5879,-1.6662,-1.7994,-1.9633,-2.0539,-2.0863,-2.0863,0.0,0.0,0.0,0.0,0.0,0.0,0.0,0.0,0.0,0.0,0.0,0.0,0.0,0.0,0.0,0.0,0.0,0.0,-1.277,-1.3046,-1.3267,-1.346,-1.3701,-1.3854,-1.3948,-1.4436,-1.497,-1.5558,-1.5651,-1.5645,-1.5545,-1.515,-1.5008,-1.4988,-1.4442,-1.4222,-1.4215,-1.4028,-1.3948,-1.3895,-1.3307,-1.3066,0.0,0.0,0.0,0.0,0.0,0.0,0.0,0.0,-1.1483,-1.1598,-1.0775,-1.082,-1.0967,-1.005,-0.9832,-0.9893,-0.9893,-1.088,-1.1951,-1.2215,-1.3291,-1.4369,-1.4901,-1.5344,-1.5507,-1.5034,-1.4906,-1.4753,-1.4128,-1.5282,0.0,0.0,0.0,0.0,0.0,0.0,0.0,0.0,0.0,0.0,0.0,0.0,0.0,0.0,0.0,0.0,0.0,0.0,0.0,0.0,0.0,0.0,0.0,-1.6707,-1.666,-1.6573,-1.6824,-1.6717,-1.6321,-1.6321,-1.6112,-1.5784,-1.5784,-1.5784,-1.5784,-1.5784,-1.5784,-1.592,-1.7178,-1.8187,-1.9001,-1.936,-1.9497,-1.9497,0.0,0.0,0.0,0.0,0.0,0.0,0.0,0.0,0.0,0.0,0.0,0.0,0.0,0.0,0.0,0.0,0.0,0.0,-1.2737,-1.2465,-1.2572,-1.3173,-1.3213,-1.3347,-1.3593,-1.3935,-1.4419,-1.5008,-1.5251,-1.5244,-1.5008,-1.5008,-1.5008,-1.4988,-1.4649,-1.4516,-1.4469,-1.3846,-1.36,-1.3547,-1.3025,-1.2784,-1.275,0.0,0.0,0.0,0.0,0.0,0.0,0.0,-1.1182,-1.1435,-1.1806,-1.1899,-1.1906,-1.1899,-1.2107,-1.2305,-1.2291,-1.2305,-1.2525,-1.3373,-1.3613,-1.3846,-1.477,-1.519,-1.5571,-1.6159,-1.6279,-1.5918,-1.4556,-1.5409,0.0,0.0,0.0,0.0,0.0,0.0,0.0,0.0,0.0,0.0,0.0,0.0,0.0,0.0,0.0,0.0,0.0,0.0,0.0,0.0,0.0,0.0,0.0,-1.67,-1.6553,-1.6321,-1.6321,-1.6321,-1.6321,-1.6321,-1.6106,-1.5784,-1.5784,-1.5784,-1.5784,-1.5784,-1.5784,-1.592,-1.7178,-1.7692,-1.7824,-1.8993,-1.9451,-1.9451,0.0,0.0,0.0,0.0,0.0,0.0,0.0,0.0,0.0,0.0,0.0,0.0,0.0,0.0,0.0,0.0,0.0,0.0,-1.2154,-1.2238,-1.2385,-1.2565,-1.3134,-1.342,-1.33,-1.3828,-1.4419,-1.5008,-1.5095,-1.5095,-1.5008,-1.5008,-1.4787,-1.4355,-1.4469,-1.4175,-1.3601,-1.3586,-1.3487,-1.3307,-1.2945,-1.2784,-1.273,0.0,0.0,0.0,0.0,0.0,0.0,0.0,0.0,0.0,-1.1229,-1.1677,-1.2091,-1.1677,-1.1911,-1.2211,-1.1797,-1.2298,-1.3006,-1.3234,-1.4115,-1.4943,-1.5211,-1.5491,-1.5865,-1.6453,-1.6573,-1.6407,-1.5803,-1.5851,0.0,0.0,0.0,0.0,0.0,0.0,0.0,0.0,0.0,0.0,0.0,0.0,0.0,0.0,0.0,0.0,0.0,0.0,0.0,0.0,0.0,0.0,0.0,0.0,-1.6046,-1.5965,-1.5965,-1.5965,-1.5965,-1.5965,-1.5912,-1.5784,-1.5784,-1.5784,-1.5784,-1.5784,-1.5784,-1.5825,-1.6197,-1.6339,-1.6433,-1.6749,-1.6889,-1.6889,0.0,0.0,0.0,0.0,0.0,0.0,0.0,0.0,0.0,0.0,-1.2666,-1.2305,0.0,0.0,0.0,0.0,0.0,0.0,0.0,-1.1924,-1.2058,-1.2291,-1.2781,-1.31,-1.3213,-1.3667,-1.4088,-1.4436,-1.4599,-1.4556,-1.4442,-1.4676,-1.4603,-1.4269,-1.4569,-1.4269,-1.3554,-1.3453,-1.33,-1.3038,-1.273,-1.2603,-1.2556,0.0,0.0,0.0,0.0,0.0,0.0,0.0,0.0,0.0,-1.0955,-1.1356,-1.1757,-1.1637,-1.2017,-1.2452,-1.2301,-1.2919,-1.3641,-1.3988,-1.4656,-1.5284,-1.5518,-1.5798,-1.6139,-1.6607,-1.6613,-1.648,-1.6355,-1.6032,0.0,0.0,0.0,0.0,0.0,0.0,0.0,0.0,0.0,0.0,0.0,0.0,0.0,0.0,0.0,0.0,0.0,0.0,0.0,0.0,0.0,0.0,0.0,0.0,0.0,-1.5784,-1.5784,-1.5784,-1.5784,-1.5784,-1.5784,-1.5784,-1.5784,-1.5784,-1.5784,-1.5784,-1.5784,-1.5784,-1.5784,-1.5784,-1.5784,-1.5784,-1.5784,-1.5784,0.0,0.0,0.0,0.0,0.0,0.0,0.0,0.0,0.0,0.0,-1.2278,-1.2265,0.0,0.0,0.0,0.0,0.0,0.0,0.0,0.0,-1.1628,-1.2198,-1.2325,-1.2665,-1.328,-1.348,-1.3586,-1.356,-1.3901,-1.3895,-1.358,-1.4166,-1.4449,-1.4416,-1.4743,-1.4566,-1.3888,-1.3353,-1.2933,-1.2643,-1.2331,-1.2225,-1.2191,-1.1966,0.0,0.0,0.0,0.0,0.0,0.0,0.0,0.0,-1.0935,-1.1009,-1.1129,-1.1672,-1.2261,-1.2864,-1.3333,-1.3774,-1.4255,-1.5137,-1.5197,-1.5177,-1.5712,-1.6039,-1.6313,-1.6607,-1.646,-1.6321,-1.6321,0.0,0.0,0.0,0.0,0.0,0.0,0.0,0.0,0.0,0.0,0.0,0.0,0.0,0.0,0.0,0.0,0.0,0.0,0.0,0.0,0.0,0.0,0.0,0.0,0.0,0.0,0.0,-1.5784,-1.5784,-1.5784,-1.5784,-1.5784,-1.5784,-1.5784,-1.5784,-1.5784,-1.5784,-1.5784,-1.5784,-1.5784,-1.5784,-1.5784,-1.5784,-1.5784,-1.5784,0.0,0.0,0.0,0.0,0.0,0.0,0.0,0.0,0.0,0.0,0.0,0.0,0.0,0.0,0.0,0.0,0.0,0.0,0.0,0.0,-1.1449,-1.1575,-1.2512,-1.3293,-1.3888,-1.3728,-1.3493,-1.3307,-1.3553,-1.3547,-1.3313,-1.3901,-1.3935,-1.3514,-1.4041,-1.3681,-1.2679,-1.2552,-1.2191,-1.1703,-1.1608,-1.1582,-1.1575,-1.1543,-1.1343,0.0,0.0,0.0,0.0,0.0,0.0,0.0,-1.0935,-1.1149,-1.1316,-1.1209,-1.1757,-1.2425,-1.2559,-1.3114,-1.3913,-1.4836,-1.5351,-1.5671,-1.5751,-1.5879,-1.6012,-1.6306,-1.6319,-1.6321,-1.6321,0.0,0.0,0.0,0.0,0.0,0.0,0.0,0.0,0.0,0.0,0.0,0.0,0.0,0.0,0.0,0.0,0.0,0.0,0.0,0.0,0.0,0.0,0.0,-1.5784,-1.5784,-1.5784,0.0,-1.5784,-1.5784,-1.5784,-1.5784,-1.5784,-1.5784,-1.5784,-1.5784,-1.5784,-1.5784,-1.5784,-1.5784,-1.5784,-1.5784,-1.5784,-1.5784,-1.5784,-1.5784,0.0,0.0,0.0,0.0,0.0,0.0,0.0,0.0,0.0,0.0,0.0,0.0,0.0,0.0,0.0,0.0,0.0,0.0,0.0,-1.1263,-1.1515,-1.1837,-1.2726,-1.3287,-1.3481,-1.344,-1.3293,-1.3025,-1.314,-1.3213,-1.3227,-1.3955,-1.4055,-1.3647,-1.4095,-1.3634,-1.2543,-1.2365,-1.1964,-1.1389,-1.1389,-1.1389,-1.1375,-1.1269,-1.1129,-1.0975,-1.0835,0.0,0.0,0.0,0.0,0.0,0.0,0.0,-1.1035,-1.1162,-1.1623,-1.2218,-1.2786,-1.3453,-1.4233,-1.5157,-1.5605,-1.5784,-1.5784,-1.5784,-1.5872,-1.6025,-1.6059,-1.6059,0.0,0.0,0.0,0.0,0.0,0.0,0.0,0.0,0.0,0.0,0.0,0.0,0.0,0.0,0.0,0.0,0.0,0.0,0.0,0.0,0.0,0.0,0.0,0.0,-1.5784,-1.5784,-1.5784,-1.5784,-1.5784,-1.5784,-1.5784,-1.5784,-1.5784,-1.5784,-1.5784,-1.5784,-1.5784,-1.5784,-1.5784,-1.5784,-1.5784,-1.5784,-1.5784,-1.5784,-1.5784,-1.5784,0.0,0.0,0.0,0.0,0.0,0.0,0.0,0.0,0.0,0.0,0.0,0.0,0.0,0.0,0.0,0.0,0.0,0.0,0.0,-1.1236,-1.1655,-1.2278,-1.2832,-1.3013,-1.279,-1.2946,-1.2933,-1.2703,-1.2656,-1.2871,-1.326,-1.3975,-1.4195,-1.4021,-1.4208,-1.3687,-1.2683,-1.2298,-1.1784,-1.1169,-1.1256,-1.1216,-1.1102,-1.0915,-1.0808,-1.0735,-1.0526,-1.0472,-1.0512,-1.0512,0.0,0.0,0.0,0.0,-1.0673,-1.1076,-1.145,-1.1931,-1.2919,-1.376,-1.4656,-1.5491,-1.5792,-1.5784,-1.5784,-1.5784,-1.5784,-1.5784,-1.5784,0.0,0.0,0.0,0.0,0.0,0.0,0.0,0.0,0.0,0.0,0.0,0.0,0.0,0.0,0.0,0.0,0.0,0.0,0.0,0.0,0.0,0.0,0.0,0.0,-1.5784,-1.5784,-1.5784,-1.5784,-1.5784,-1.5784,-1.5784,-1.5784,-1.5784,-1.5784,-1.5784,-1.5784,-1.5784,-1.5784,-1.5784,-1.5784,-1.5784,-1.5784,-1.5784,-1.5784,-1.5784,-1.5784,-1.5784,0.0,0.0,0.0,0.0,0.0,0.0,0.0,0.0,0.0,0.0,-1.167,-1.1483,-1.1483,-1.1002,0.0,0.0,0.0,0.0,-1.0646,0.0,0.0,-1.2278,-1.2663,-1.2831,-1.2784,-1.2532,-1.2405,-1.2365,-1.2147,-1.2538,-1.354,-1.3447,-1.346,-1.3653,-1.348,-1.3006,-1.2325,-1.1777,-1.1022,-1.0314,-1.0606,-1.0405,-0.994,-1.0154,-1.008,-0.9853,-0.9842,-0.996,-1.0174,-1.0174,-1.0347,0.0,0.0,0.0,0.0,-1.0341,-1.0681,-1.1142,-1.1303,-1.2719,-1.4355,-1.5237,-1.5645,-1.5784,-1.5784,-1.5784,-1.5784,0.0,0.0,0.0,0.0,0.0,0.0,0.0,0.0,0.0,0.0,0.0,0.0,0.0,0.0,0.0,0.0,0.0,0.0,0.0,0.0,0.0,0.0,0.0,-1.5784,-1.5784,-1.5784,0.0,-1.5784,-1.5784,-1.5784,-1.5784,-1.5784,-1.5784,-1.5784,-1.5784,-1.5784,-1.5784,-1.5784,-1.5784,-1.5784,-1.5784,-1.5784,-1.5784,-1.5784,-1.5784,-1.5784,-1.5784,-1.5784,-1.5784,0.0,0.0,0.0,0.0,0.0,0.0,0.0,0.0,0.0,0.0,0.0,-1.1243,-1.1375,-1.0909,0.0,0.0,0.0,0.0,-1.0821,-1.1042,0.0,-1.179,-1.1937,-1.2004,-1.2004,-1.1877,-1.181,-1.181,-1.1683,-1.2231,-1.336,-1.3273,-1.3627,-1.4362,-1.3901,-1.3273,-1.2543,-1.1744,-1.0889,-1.0097,-1.0261,-1.0448,-1.0601,-1.0074,-1.02,-1.0575,-0.992,-0.9766,-0.99,-1.006,-1.0207,-1.0314,-1.0314,0.0,0.0,0.0,-1.0174,-1.0722,-1.1739,-1.2811,-1.3888,-1.5097,-1.5491,-1.5631,-1.5792,-1.5784,-1.5784,-1.5784,0.0,0.0,0.0,0.0,0.0,0.0,0.0,0.0,0.0,0.0,0.0,0.0,0.0,0.0,0.0,0.0,0.0,0.0,0.0,0.0,0.0,-1.5784,-1.5784,-1.5784,-1.5784,0.0,-1.5784,-1.5784,-1.5784,-1.5784,-1.5784,-1.5784,-1.5784,-1.5784,-1.5784,-1.5784,-1.5784,-1.5784,-1.5784,-1.5784,-1.5784,-1.5784,-1.5784,-1.5784,-1.5784,-1.5784,-1.5784,-1.5784,0.0,0.0,0.0,0.0,0.0,0.0,0.0,0.0,0.0,0.0,0.0,0.0,-1.1289,0.0,0.0,0.0,0.0,0.0,-1.0648,0.0,0.0,0.0,0.0,-1.1355,-1.1282,-1.1243,-1.1243,-1.1282,-1.1243,-1.1931,-1.332,-1.332,-1.3988,-1.5157,-1.4489,-1.3701,-1.2851,-1.1991,-1.1149,-1.0454,-1.0867,-1.1115,-1.129,-1.1026,-1.1195,-1.1403,-1.0381,-1.0043,-1.0043,-1.0007,-1.0053,-1.01,0.0,0.0,0.0,0.0,0.0,-1.0134,-1.1785,-1.2449,-1.2979,-1.4376,-1.4897,-1.5157,-1.5524,0.0,-1.5738,0.0,0.0,0.0,0.0,0.0,0.0,0.0,0.0,0.0,0.0,0.0,0.0,0.0,0.0,0.0,0.0,0.0,0.0,0.0,0.0,0.0,-1.5784,-1.5784,-1.5784,-1.5784,-1.5784,-1.5784,-1.5784,-1.5784,-1.5784,-1.5784,-1.5784,-1.5784,-1.5778,-1.5752,-1.5718,-1.5678,-1.5751,-1.5784,-1.5771,-1.5752,-1.5718,-1.5712,-1.5638,-1.5611,-1.5611,-1.5611,-1.5611,-1.5611,0.0,0.0,0.0,0.0,0.0,0.0,0.0,0.0,0.0,0.0,0.0,0.0,-1.1015,-1.0774,-1.0479,-1.0167,0.0,0.0,0.0,0.0,0.0,0.0,0.0,0.0,-1.1022,-1.078,-1.0774,-1.1015,-1.0774,-1.1643,-1.358,-1.358,-1.4352,-1.5698,-1.4839,-1.4008,-1.3146,-1.2518,-1.1911,-1.1444,-1.2925,-1.2507,-1.1262,-1.3503,-1.3317,-1.1799,-1.1149,-1.0922,-1.0802,-0.998,-0.9886,-1.0067,-0.9793,-0.9735,-0.9646,0.0,0.0,0.0,-1.0378,-1.0921,-1.1396,-1.2623,-1.3568,-1.4309,-1.4921,0.0,0.0,0.0,0.0,0.0,0.0,0.0,0.0,0.0,0.0,0.0,0.0,0.0,0.0,0.0,0.0,0.0,0.0,0.0,0.0,0.0,0.0,0.0,-1.5784,-1.5784,-1.5784,-1.5784,-1.5784,-1.5784,-1.5784,-1.5784,-1.5784,-1.5784,-1.5784,-1.5784,-1.5771,-1.5545,-1.5418,-1.5431,-1.5712,-1.5784,-1.5758,-1.5531,-1.5418,-1.5391,-1.5162,-1.5055,-1.5055,-1.5055,-1.5055,-1.5055,0.0,0.0,0.0,0.0,0.0,0.0,0.0,0.0,0.0,0.0,0.0,0.0,0.0,-1.0767,-1.0546,-1.0445,-1.0227,0.0,0.0,0.0,0.0,0.0,0.0,0.0,-1.0754,-1.0428,-1.0327,-1.0428,-1.0327,-1.0942,-1.2195,-1.2567,-1.3234,-1.4113,-1.4215,-1.4068,-1.3694,-1.2525,-1.179,-1.1498,-1.2799,-1.2932,-1.2489,-1.3304,-1.3505,-1.314,-1.2013,-1.1436,0.0,-1.0909,-1.0628,-1.0352,-0.9869,-0.9715,-0.9586,-0.9105,-0.8991,-0.9231,-1.006,-1.0526,-1.1028,-1.2208,-1.2999,-1.3681,-1.4269,-1.4821,0.0,0.0,0.0,0.0,0.0,0.0,0.0,0.0,0.0,0.0,0.0,0.0,0.0,0.0,0.0,0.0,0.0,0.0,0.0,0.0,0.0,0.0,-1.5784,-1.5784,-1.5784,-1.5784,-1.5651,-1.5464,-1.5277,-1.5277,-1.5277,-1.5277,-1.5277,-1.5277,-1.5271,-1.5209,-1.5117,-1.5169,-1.5224,-1.5277,-1.5264,-1.5164,-1.5117,-1.511,-1.5048,-1.5008,-1.5008,-1.5008,-1.5008,-1.5008,0.0,0.0,0.0,0.0,0.0,0.0,0.0,0.0,-1.0881,-1.0881,0.0,0.0,0.0,0.0,-1.0553,-1.0452,-1.014,-1.0053,-1.0285,-1.0174,0.0,0.0,0.0,0.0,-1.0593,-1.0267,-1.0083,-1.0083,-1.0083,-1.0483,-1.1289,-1.1877,-1.2478,-1.3066,-1.326,-1.3561,-1.3868,-1.2779,-1.2144,-1.2013,-1.3653,-1.3844,-1.3331,-1.457,-1.4705,-1.4102,-1.3113,0.0,0.0,0.0,0.0,-1.0633,-1.0013,-0.9626,-0.9312,-0.8918,-0.8918,-0.9151,-0.9544,-0.9893,-1.0374,-1.145,-1.2098,-1.2699,-1.3587,0.0,0.0,0.0,0.0,0.0,0.0,0.0,0.0,0.0,0.0,0.0,0.0,0.0,0.0,0.0,0.0,0.0,0.0,0.0,0.0,0.0,0.0,0.0,-1.5685,-1.5591,-1.5538,-1.5538,-1.5351,-1.5157,-1.5015,-1.5008,-1.5008,-1.5008,-1.5008,-1.5008,-1.5008,-1.4863,-1.4816,-1.481,-1.4754,-1.4827,-1.5001,-1.4901,-1.4816,-1.4803,-1.4754,-1.4713,-1.4713,-1.4713,-1.4713,-1.4713,0.0,0.0,0.0,0.0,0.0,0.0,0.0,0.0,-1.0606,-1.062,0.0,0.0,0.0,0.0,0.0,-1.0137,-0.988,-0.9735,-0.9735,-0.996,0.0,0.0,0.0,0.0,-1.0593,-1.0267,-1.0114,-1.01,-1.01,-1.0388,-1.0955,-1.1543,-1.2161,-1.2697,-1.2134,-1.2485,-1.3507,-1.3267,-1.2993,-1.3033,-1.561,-1.5296,-1.3714,-1.7435,-1.7073,-1.4599,-1.4549,-1.3995,0.0,-1.2559,0.0,0.0,-1.0314,-0.9519,-0.8818,-0.8811,-0.8818,-0.8831,0.0,0.0,0.0,-1.0338,0.0,0.0,-1.2812,0.0,0.0,0.0,0.0,0.0,0.0,0.0,0.0,0.0,0.0,0.0,0.0,0.0,0.0,0.0,0.0,0.0,0.0,0.0,0.0,0.0,0.0,-1.5384,-1.5384,-1.5162,-1.5008,-1.4995,-1.4995,-1.4988,-1.4981,-1.4981,-1.4981,-1.4981,-1.4981,-1.4981,-1.4975,-1.4636,-1.4502,-1.4489,-1.4208,-1.4409,-1.4961,-1.4629,-1.4502,-1.4482,-1.4195,-1.4088,-1.4088,-1.4088,-1.4088,-1.4088,0.0,0.0,0.0,0.0,0.0,-1.175,-1.175,-1.1283,-1.0949,0.0,0.0,0.0,-1.0875,-1.0875,-1.0842,-1.0762,-1.0519,-1.0352,-1.0352,-1.0023,-1.0023,-1.0452,-1.0307,-1.0341,-1.0586,-1.0267,-1.0013,-0.98,-0.98,-0.9773,-0.971,-1.0327,-1.0802,-1.1203,-1.1249,-1.1416,-1.1717,-1.1637,-1.208,-1.2954,-1.4979,-1.5634,-1.56,-1.7032,0.0,0.0,0.0,-1.4863,-1.4432,0.0,-1.3038,-1.2047,-1.0568,-0.963,-0.9051,-0.8871,-0.9105,-0.9345,-0.8925,0.0,0.0,0.0,0.0,0.0,0.0,0.0,0.0,0.0,0.0,0.0,0.0,0.0,0.0,0.0,0.0,0.0,0.0,0.0,0.0,0.0,0.0,0.0,0.0,0.0,0.0,0.0,0.0,-1.5129,-1.5129,-1.5055,-1.4908,-1.4649,-1.4643,-1.4543,-1.4329,-1.4329,-1.4329,-1.4329,-1.4329,-1.4329,-1.4329,-1.4242,-1.4208,-1.4202,-1.4122,-1.4175,-1.4322,-1.4242,-1.4208,-1.4202,-1.4122,-1.4088,-1.4088,-1.4088,-1.4088,-1.4088,0.0,0.0,0.0,-1.2305,-1.2164,-1.2087,-1.2087,-1.1657,-1.1416,0.0,0.0,0.0,-1.1176,-1.1283,-1.1256,-1.1015,-1.0868,-1.0673,-1.0419,-1.0053,-0.996,-1.0211,-1.014,-1.02,-1.0405,-1.0327,-1.01,-0.9715,-0.9715,-0.9472,-0.9044,-0.9504,-0.9846,-1.002,-1.0187,-1.0327,-1.0441,-1.0314,-1.1009,-1.2451,-1.5075,-1.605,0.0,-1.7351,-1.7624,0.0,0.0,0.0,-1.4975,-1.471,-1.3836,0.0,0.0,-1.0167,-0.9713,-0.9299,-0.9499,-0.976,-0.9299,-0.9426,-0.9673,-0.959,0.0,0.0,0.0,-1.1122,0.0,0.0,0.0,0.0,0.0,0.0,0.0,0.0,0.0,0.0,0.0,0.0,0.0,0.0,0.0,0.0,0.0,0.0,0.0,0.0,-1.4943,-1.4723,-1.4646,-1.464,-1.4516,-1.4342,-1.4342,-1.4255,-1.4088,-1.4088,-1.4021,-1.3901,-1.3901,-1.3834,-1.3721,-1.3721,-1.3721,-1.3728,-1.3848,-1.3901,-1.3915,-1.4035,-1.4088,-1.4088,-1.4088,-1.4088,-1.4088,-1.4088,-1.4088,-1.4088,0.0,0.0,-1.2271,-1.2338,-1.2351,-1.2365,-1.2398,-1.2124,-1.198,0.0,-1.1757,-1.159,-1.1582,-1.177,-1.1705,-1.1182,-1.1049,-1.0755,-1.02,-1.0077,-0.9953,-0.9722,-0.9933,-1.0067,-1.0067,-1.0419,-1.0291,-0.9633,-0.9666,-0.9385,-0.8811,-0.9044,-0.9164,-0.9164,-0.9164,-0.9311,-0.9573,-0.9384,-1.0097,-1.1662,-1.5239,-1.6228,0.0,0.0,-1.7856,-1.6818,-1.6045,-1.5498,-1.5129,-1.5244,-1.4251,0.0,0.0,0.0,0.0,-0.999,-1.0007,-1.0187,-0.9866,-0.9836,-0.9873,-1.0067,0.0,0.0,-1.0681,-1.0848,0.0,0.0,0.0,0.0,0.0,0.0,0.0,0.0,0.0,0.0,0.0,0.0,0.0,0.0,0.0,0.0,0.0,0.0,0.0,-1.4961,-1.4636,-1.4355,-1.4102,-1.4088,-1.4088,-1.4088,-1.4055,-1.4041,-1.4041,-1.4008,-1.3854,-1.3553,-1.3553,-1.342,-1.3213,-1.3213,-1.3213,-1.3227,-1.3447,-1.3553,-1.3573,-1.3881,-1.4028,-1.4088,-1.4088,-1.4088,-1.4088,-1.4088,-1.4088,-1.4088,0.0,-1.2118,-1.2141,-1.2616,-1.2697,-1.2784,-1.2999,-1.2565,-1.2392,-1.2886,-1.2717,-1.2623,-1.2839,-1.2265,-1.1953,-1.2037,-1.1403,-1.0842,-1.0526,-1.0057,-0.974,-0.9715,-0.974,-0.9766,-0.9766,-1.0318,-1.0184,-0.9297,-0.9566,-0.9385,-0.8804,-0.8864,-0.8891,-0.8891,-0.8891,-0.8925,-0.9025,-0.9637,-1.0381,-1.1242,-1.3227,-1.4889,-1.6216,-1.6665,-1.7116,-1.7374,-1.6203,-1.5711,-1.5558,-1.491,-1.4148,-1.322,0.0,0.0,0.0,-1.066,-1.0762,-1.1056,-1.0566,-1.0593,-1.0635,0.0,0.0,0.0,-1.0037,-0.997,0.0,0.0,0.0,0.0,0.0,0.0,0.0,0.0,0.0,0.0,0.0,0.0,0.0,0.0,0.0,0.0,0.0,0.0,-1.4603,-1.4603,-1.4335,-1.4148,-1.4088,-1.4088,-1.4088,-1.4088,-1.3854,-1.3686,-1.3686,-1.35,-1.3353,-1.3293,-1.3293,-1.3267,-1.3213,-1.3213,-1.3213,-1.3213,-1.3273,-1.3293,-1.326,-1.3353,-1.3661,-1.4088,-1.4088,-1.4088,-1.4088,-1.4088,-1.4088,-1.4088,-1.1784,-1.1984,-1.2131,-1.2321,-1.2589,-1.2891,-1.3166,-1.2953,-1.2919,-1.3327,-1.3293,-1.314,-1.3038,-1.2712,-1.2418,-1.2147,-1.155,-1.1022,-1.062,-1.0037,-0.9619,-0.9472,-0.9459,-0.9532,-0.9708,-1.0003,-0.9936,-0.9459,-0.9459,-0.9239,-0.8804,-0.8804,-0.9219,-0.9919,-0.9145,-0.9308,-1.0122,-0.9778,-1.01,-1.1019,-1.3432,0.0,-1.6335,-1.684,-1.7301,-1.7552,-1.6251,-1.5684,-1.5478,-1.4603,-1.4008,0.0,0.0,-1.2342,-1.2201,0.0,-1.1523,-1.1737,-1.1149,0.0,0.0,-1.0661,0.0,0.0,0.0,0.0,-0.9853,0.0,0.0,0.0,0.0,0.0,0.0,0.0,0.0,0.0,0.0,0.0,0.0,0.0,0.0,0.0,0.0,0.0,-1.4039,-1.4039,-1.3948,-1.3868,-1.3868,-1.3728,-1.3714,-1.3861,-1.354,-1.3387,-1.3387,-1.328,-1.3133,-1.3018,-1.3018,-1.2899,-1.2759,-1.2759,-1.2759,-1.2766,-1.2913,-1.3018,-1.2993,-1.3146,-1.3387,-1.3647,-1.3647,-1.3647,-1.3647,-1.3647,-1.3647,-1.3647,-1.1369,-1.1764,-1.2011,-1.1926,-1.2342,-1.2804,-1.3073,-1.312,-1.3227,-1.348,-1.3567,-1.346,-1.3166,-1.316,-1.2986,-1.2469,-1.185,-1.1309,-1.0874,-1.0238,-0.9719,-0.9397,-0.9324,-0.9411,-0.9679,-0.9715,-0.9626,-0.9512,-0.9304,-0.9064,-0.8804,-0.8804,-0.9478,-1.0673,-0.95,-0.9806,-1.1152,-0.9977,-1.0154,-1.1464,0.0,-1.538,-1.5622,-1.6639,-1.6998,-1.6875,-1.5985,-1.5511,-1.5184,-1.4362,-1.3928,-1.3573,-1.2991,-1.2864,0.0,0.0,0.0,0.0,0.0,0.0,0.0,0.0,0.0,-1.0787,0.0,0.0,0.0,-1.0621,0.0,0.0,0.0,0.0,0.0,0.0,0.0,0.0,0.0,0.0,0.0,0.0,0.0,0.0,0.0,0.0,-1.3393,-1.3507,-1.3413,-1.3393,-1.3513,-1.334,-1.332,-1.3513,-1.3273,-1.312,-1.312,-1.3066,-1.2913,-1.2697,-1.2697,-1.2569,-1.2305,-1.2305,-1.2305,-1.2318,-1.2596,-1.2697,-1.2717,-1.2933,-1.3039,-1.3046,-1.316,-1.3213,-1.3213,-1.3213,-1.3213,-1.3213,-1.1323,-1.1269,-1.1296,-1.1819,-1.2138,-1.2452,-1.279,-1.2837,-1.2951,-1.322,-1.3447,-1.3773,-1.4269,-1.3654,-1.348,-1.4162,-1.2746,-1.1826,-1.1759,-1.0961,-1.0358,-0.9997,-0.9766,-0.9653,-0.9715,-0.9715,-0.9426,-0.8905,-0.9104,-0.9064,-0.8804,-0.8804,-0.9032,-0.9431,-0.9549,-0.9838,-1.0272,-1.0383,-1.1617,0.0,-1.4275,-1.3803,0.0,-1.4048,-1.4496,-1.4564,-1.4966,-1.5082,-1.4961,0.0,-1.4062,-1.3888,0.0,-1.3113,-1.3333,-1.2505,0.0,0.0,0.0,0.0,0.0,0.0,-1.155,0.0,0.0,0.0,-1.0372,-0.995,0.0,0.0,0.0,0.0,0.0,0.0,0.0,0.0,0.0,0.0,0.0,0.0,0.0,0.0,0.0,0.0,0.0,-1.322,-1.2759,-1.2692,-1.3233,-1.3227,-1.3227,-1.326,-1.2998,-1.2837,-1.2837,-1.2538,-1.2385,-1.2351,-1.2351,-1.2338,-1.2305,-1.2305,-1.2305,-1.2305,-1.2338,-1.2351,-1.2351,-1.2392,-1.2405,-1.2458,-1.2999,-1.3213,-1.3213,-1.3213,-1.3213,-1.3213,-1.0842,-1.1096,-1.1269,-1.1349,-1.1597,-1.1951,-1.2418,-1.3119,-1.3507,-1.3427,-1.382,-1.4182,-1.4262,-1.3941,-1.3868,-1.4242,-1.3273,-1.261,0.0,0.0,-1.0929,-1.0641,-1.018,-0.9933,-0.9933,-0.9599,-0.9277,-0.9031,-0.8984,-0.8898,-0.8804,-0.8804,-0.9432,-1.0494,-0.9954,-1.055,-1.189,-1.0978,-1.123,0.0,0.0,0.0,0.0,-1.4529,-1.5142,-1.4646,-1.4683,-1.4703,-1.4616,0.0,-1.3714,0.0,0.0,0.0,0.0,0.0,0.0,0.0,0.0,0.0,0.0,0.0,0.0,0.0,-1.0815,0.0,-1.0327,0.0,0.0,0.0,0.0,0.0,0.0,0.0,0.0,0.0,0.0,0.0,0.0,0.0,0.0,0.0,0.0,0.0,0.0,0.0,0.0,-1.2238,-1.2665,-1.2685,-1.2759,-1.2971,-1.2683,-1.2522,-1.2522,-1.2365,-1.2305,-1.2305,-1.2305,-1.2305,-1.2305,-1.2305,-1.2305,-1.2305,-1.2305,-1.2305,-1.2305,-1.2305,-1.2305,-1.2325,-1.2585,-1.2685,-1.2685,-1.2685,-1.2685,-1.2685,-1.0533,-1.0902,-1.1122,-1.0909,-1.1116,-1.153,-1.2198,-1.3106,-1.3701,-1.3613,-1.3973,-1.4289,-1.4322,-1.4255,-1.4302,-1.4543,-1.3955,-1.344,0.0,0.0,-1.1697,-1.1517,-1.0755,-1.0394,-1.0443,-0.9717,-0.9291,-0.9211,-0.8918,-0.8804,-0.8804,-0.8804,-0.9528,-1.0835,-1.0219,-1.1006,-1.2715,0.0,-1.1499,-1.2207,-1.2304,-1.2289,-1.2549,-1.4794,-1.5295,-1.474,-1.4476,-1.4402,-1.4322,-1.3773,-1.346,0.0,-1.3447,0.0,0.0,0.0,0.0,0.0,-1.2405,0.0,0.0,0.0,0.0,0.0,0.0,0.0,0.0,0.0,0.0,0.0,0.0,0.0,0.0,-0.9699,0.0,0.0,0.0,0.0,0.0,0.0,0.0,0.0,0.0,0.0,0.0,0.0,0.0,0.0,-1.2151,-1.2184,-1.2355,-1.2656,-1.2412,-1.2305,-1.2305,-1.2305,-1.2305,-1.2305,-1.2305,-1.2305,-1.2305,-1.2305,-1.2305,-1.2298,-1.2218,-1.2231,-1.2291,-1.2218,-1.2231,-1.2305,-1.2305,-1.2305,-1.2305,-1.2305,-1.2305,-1.2305,-1.0533,-1.0606,-1.062,-1.0606,-1.0847,-1.1296,-1.2171,-1.2616,-1.3032,-1.3527,-1.362,0.0,0.0,0.0,0.0,0.0,0.0,-1.4355,-1.4062,0.0,-1.2737,-1.273,-1.1618,-1.1096,0.0,-1.0254,-0.9526,-0.9211,-0.8918,-0.8804,-0.8804,-0.8804,-0.8971,-0.9305,-1.0184,-1.0901,-1.1511,-1.2017,-1.3379,-1.5138,-1.4823,-1.5031,-1.5368,0.0,-1.3661,-1.4115,-1.4108,0.0,0.0,-1.3706,-1.3593,0.0,0.0,0.0,0.0,0.0,0.0,0.0,0.0,0.0,0.0,-1.1236,0.0,0.0,0.0,0.0,-1.0586,0.0,0.0,0.0,0.0,-1.0307,-1.0013,-0.9733,-0.9715,0.0,0.0,0.0,0.0,0.0,0.0,0.0,0.0,0.0,0.0,0.0,0.0,0.0,-1.1859,-1.1919,-1.2053,-1.2305,-1.2305,-1.2305,-1.2305,-1.2305,-1.2305,-1.2305,-1.2305,-1.2305,-1.2305,-1.2305,-1.2305,-1.2285,-1.204,-1.2044,-1.2278,-1.2033,-1.2087,-1.2305,-1.2305,-1.2305,-1.2305,-1.2305,-1.2305,-1.2305,-1.0533,-1.0593,-1.0593,-1.0593,-1.0673,-1.1035,-1.1884,-1.2766,-1.348,0.0,0.0,0.0,0.0,-1.5157,-1.5297,0.0,0.0,-1.4977,-1.4727,-1.4063,0.0,0.0,-1.2717,-1.2141,0.0,0.0,0.0,-0.979,-0.9304,-0.9171,-0.9379,-0.8991,-0.9065,-0.9552,-1.0047,-1.0808,0.0,0.0,0.0,0.0,0.0,-1.3952,-1.4594,0.0,0.0,-1.4088,-1.4088,-1.4088,0.0,-1.3975,-1.3766,-1.362,-1.3761,-1.3447,-1.3053,-1.3053,-1.2839,0.0,0.0,0.0,-1.2469,-1.1779,0.0,0.0,0.0,0.0,0.0,0.0,0.0,0.0,0.0,-1.0314,-1.0087,-0.9987,-0.9646,-0.9291,0.0,0.0,0.0,0.0,0.0,0.0,0.0,0.0,0.0,0.0,0.0,0.0,0.0,-1.147,-1.171,-1.204,-1.1824,-1.1817,-1.2011,-1.1824,-1.1824,-1.2011,-1.1817,-1.1824,-1.2047,-1.181,-1.1688,-1.1717,-1.1617,-1.163,-1.1695,-1.1866,-1.196,-1.2037,-1.2225,-1.2305,-1.2305,-1.2305,-1.2305,-1.2305,-1.0573,-1.0593,-1.0593,-1.0593,-1.0854,-1.1283,-1.1924,0.0,0.0,0.0,-1.4663,0.0,-1.5364,0.0,-1.5511,0.0,-1.5658,-1.5384,-1.5035,-1.4653,0.0,-1.4249,-1.3487,0.0,0.0,0.0,0.0,0.0,-0.981,-0.9599,-0.9702,-0.9192,-0.9165,-0.9546,-0.994,-1.0655,-1.1618,-1.204,-1.2563,0.0,0.0,-1.3608,0.0,0.0,-1.4088,0.0,0.0,-1.4088,-1.4088,-1.4088,-1.3961,-1.3773,-1.3901,-1.3534,-1.306,-1.3053,-1.2766,-1.2438,-1.2331,-1.2445,0.0,0.0,-1.1563,0.0,-1.0727,0.0,0.0,0.0,0.0,0.0,0.0,0.0,-1.0083,-1.0083,-0.9597,-0.9178,0.0,0.0,0.0,0.0,0.0,0.0,0.0,0.0,-0.9257,-0.9737,0.0,0.0,0.0,0.0,-1.1403,-1.1703,-1.1523,-1.1482,-1.171,-1.1523,-1.1523,-1.171,-1.1482,-1.1523,-1.1703,-1.1516,-1.1389,-1.1382,-1.1282,-1.1295,-1.1395,-1.1523,-1.1718,-1.1926,-1.2078,-1.2211,-1.2305,-1.2305,-1.2305,-1.2305,-1.0667,-1.0633,-1.066,0.0,-1.1337,0.0,0.0,0.0,-1.4162,0.0,-1.479,-1.5142,-1.5384,-1.5418,-1.5531,-1.5758,-1.5784,-1.5591,-1.5089,-1.5035,0.0,0.0,-1.3979,-1.366,-1.3646,0.0,0.0,0.0,0.0,-0.9973,-0.9699,-0.9357,-0.9211,-0.9237,-0.981,-1.0428,-1.1069,-1.2254,-1.3066,-1.3626,-1.3968,-1.4088,-1.4088,-1.4088,0.0,-1.4088,-1.4088,-1.4088,-1.4088,-1.4088,-1.4075,-1.4015,-1.3693,-1.358,-1.3447,-1.2951,-1.277,-1.2697,-1.2378,-1.2305,-1.2164,-1.1575,0.0,0.0,0.0,0.0,-1.1009,0.0,0.0,0.0,0.0,0.0,-1.0117,-1.009,-0.9597,-0.9111,-0.8844,0.0,0.0,0.0,0.0,0.0,0.0,-0.8804,-0.8898,-0.9191,-0.9499,-0.9943,0.0,0.0,0.0,-1.1342,-1.1349,-1.1355,-1.1369,-1.1355,-1.1355,-1.1369,-1.1355,-1.1355,-1.1369,-1.1355,-1.1349,-1.1335,-1.1089,-1.1129,-1.1329,-1.1102,-1.1357,-1.1866,-1.1879,-1.2017,-1.2265,-1.2291,-1.2291,-1.2285,-1.0895,-1.127,-1.1571,0.0,-1.1536,-1.1784,0.0,0.0,0.0,0.0,-1.497,-1.5398,-1.5685,-1.5718,-1.5752,-1.5771,-1.5784,0.0,0.0,0.0,0.0,-1.5438,-1.4937,-1.4522,-1.4259,-1.3133,0.0,-1.1678,0.0,-1.0043,-0.9993,-0.9451,-0.9211,-0.9224,-0.9633,-1.0241,-1.1042,-1.1819,-1.2692,-1.3626,-1.3968,-1.4088,0.0,0.0,-1.4088,-1.4088,-1.4088,-1.4088,-1.4088,-1.4088,-1.3941,-1.37,-1.3626,-1.3333,-1.2985,-1.2831,-1.263,-1.2398,-1.2325,-1.2305,-1.2265,-1.2118,-1.1744,-1.1349,0.0,0.0,0.0,0.0,0.0,0.0,0.0,0.0,0.0,-1.0157,-0.9597,-0.9111,-0.8844,0.0,0.0,0.0,0.0,0.0,0.0,0.0,-0.8898,-0.9191,0.0,0.0,0.0,0.0,0.0,-1.0807,-1.0814,-1.0882,-1.1102,-1.0889,-1.0928,-1.1102,-1.0882,-1.0895,-1.1096,-1.0914,-1.0814,-1.0807,-1.0734,-1.0747,-1.0827,-1.0935,-1.1082,-1.1243,-1.1456,-1.1583,-1.1703,-1.2138,-1.2164,-1.2047,-1.1376,0.0,0.0,-1.2432,0.0,0.0,-1.3039,0.0,0.0,-1.4442,-1.4917,0.0,-1.5431,-1.5678,-1.5784,-1.5784,-1.5784,0.0,-1.5651,0.0,0.0,-1.5638,-1.5331,-1.5017,-1.4723,-1.3681,0.0,-1.2058,0.0,-1.0367,-1.01,-0.9484,-0.9211,-0.9224,-0.9552,-1.0027,-1.0675,-1.1643,-1.2599,-1.344,-1.3774,0.0,0.0,-1.4041,-1.4088,-1.4088,-1.4088,-1.4088,-1.4088,-1.4088,-1.3895,-1.358,-1.3453,-1.3133,-1.2757,-1.263,-1.2432,-1.2305,-1.2305,-1.2305,-1.2305,-1.2305,-1.2051,-1.1777,-1.165,-1.1617,-1.1577,0.0,0.0,0.0,0.0,0.0,0.0,-0.9824,-0.9424,-0.9111,0.0,0.0,0.0,0.0,0.0,0.0,0.0,0.0,0.0,0.0,0.0,0.0,0.0,0.0,0.0,0.0,-1.0526,-1.0673,-1.0834,-1.0673,-1.0673,-1.0834,-1.0673,-1.068,-1.0827,-1.0667,-1.0593,-1.0593,-1.0593,-1.0593,-1.0606,-1.0767,-1.0875,-1.1022,-1.1316,-1.1315,-1.1289,-1.175,-1.1897,-1.1946,-1.196,0.0,0.0,0.0,0.0,0.0,0.0,-1.4001,0.0,-1.4543,0.0,-1.5122,-1.5122,-1.5524,-1.5784,-1.5784,0.0,-1.5718,-1.5471,-1.5691,-1.5718,-1.5464,-1.5451,-1.5297,-1.5015,-1.4135,-1.32,0.0,0.0,-1.0668,-1.0047,-0.9464,-0.9191,-0.9171,-0.9492,-0.9853,0.0,-1.171,-1.2652,-1.3233,-1.3487,-1.3626,-1.3686,-1.3988,-1.4088,-1.4088,-1.4088,-1.4088,-1.4082,-1.4041,-1.3834,-1.3493,-1.324,-1.2978,-1.2677,-1.2378,-1.2305,-1.2305,-1.2305,-1.2305,-1.2305,-1.2305,-1.2305,-1.2238,-1.202,-1.196,-1.196,-1.196,-1.1717,0.0,0.0,0.0,0.0,-0.9457,0.0,0.0,0.0,0.0,0.0,0.0,0.0,0.0,0.0,0.0,0.0,0.0,0.0,0.0,0.0,0.0,0.0,0.0,-1.0347,0.0,-1.0593,0.0,-1.0593,-1.0593,-1.0593,-1.0593,-1.0593,-1.0593,-1.0593,-1.0593,-1.0593,-1.0593,-1.0593,-1.0593,-1.074,-1.0962,-1.1209,-1.1156,-1.0969,-1.1263,-1.1536,-1.1839,-1.2225,0.0,0.0,0.0,0.0,-1.4389,-1.4689,-1.4569,-1.4549,-1.4888,-1.5351,-1.5678,-1.5678,-1.5718,-1.5784,-1.5784,-1.5784,0.0,0.0,0.0,0.0,-1.5711,-1.5752,-1.5504,-1.5022,-1.4335,-1.3447,0.0,0.0,-1.0568,-0.9753,-0.9371,-0.9084,-0.8871,-0.9158,-0.9857,-1.0902,-1.1891,0.0,-1.3233,-1.3487,-1.3753,-1.4015,-1.4068,-1.4088,-1.4088,-1.4088,-1.4088,-1.4048,-1.376,-1.3487,-1.3233,-1.2965,-1.2663,-1.2371,-1.2318,-1.2305,-1.2305,-1.2305,-1.2305,-1.2305,-1.2305,-1.2305,-1.2285,-1.2238,-1.2225,-1.2225,-1.2225,-1.2184,-1.2104,-1.2007,0.0,0.0,0.0,0.0,0.0,0.0,0.0,0.0,0.0,0.0,0.0,0.0,0.0,0.0,0.0,0.0,0.0,0.0,0.0,0.0,0.0,0.0,0.0,0.0,0.0,0.0,-1.0593,-1.0593,-1.0593,-1.0593,-1.0593,-1.0593,-1.0593,-1.0593,-1.0593,-1.0593,-1.0593,-1.062,-1.0673,-1.0727,-1.0713,-1.0707,-1.0962,-1.1102,-1.1223,-1.3454,0.0,0.0,0.0,0.0,0.0,0.0,-1.5197,0.0,-1.5028,-1.5204,-1.5384,-1.5384,-1.5651,-1.5784,-1.5784,-1.5784,-1.5784,-1.5784,-1.5784,-1.5784,-1.5784,-1.5784,0.0,-1.5022,-1.4536,-1.3654,-1.2305,0.0,0.0,-0.9708,-0.9351,-0.9058,-0.8831,-0.9397,-1.023,0.0,0.0,0.0,-1.3013,-1.342,-1.3686,-1.3874,-1.4028,-1.4088,-1.4088,-1.4088,-1.4088,-1.4041,-1.37,-1.3413,-1.316,-1.2878,-1.2583,-1.2305,-1.2305,-1.2305,-1.2305,-1.2305,-1.2305,-1.2305,-1.2305,-1.2305,-1.2305,-1.2305,-1.2305,-1.2305,-1.2305,-1.2305,-1.2211,-1.196,-1.131,0.0,0.0,0.0,0.0,0.0,0.0,0.0,0.0,0.0,0.0,0.0,0.0,0.0,0.0,0.0,0.0,0.0,0.0,0.0,0.0,0.0,0.0,0.0,0.0,0.0,-1.0593,-1.0593,-1.0593,-1.0593,-1.0593,-1.0593,-1.0593,-1.0593,-1.0593,-1.0593,-1.0593,-1.0593,-1.0593,-1.0593,-1.0593,-1.0613,-1.0747,-1.0894,-1.1056,0.0,-1.4436,0.0,0.0,-1.4776,0.0,-1.5324,-1.5645,-1.5665,-1.5211,-1.515,-1.515,-1.515,-1.5558,-1.5784,-1.5784,-1.5784,-1.5784,-1.5784,-1.5784,-1.5784,-1.5784,-1.5784,-1.5558,-1.5022,-1.4736,-1.3888,0.0,0.0,0.0,0.0,-0.9499,-0.9217,0.0,0.0,0.0,0.0,0.0,-1.2512,-1.2931,-1.3427,-1.364,-1.372,-1.4001,-1.4088,-1.4082,-1.4015,-1.3988,-1.3935,-1.3574,-1.3347,-1.3146,-1.2804,-1.2529,-1.2305,-1.2305,-1.2305,-1.2305,-1.2305,-1.2305,-1.2305,-1.2305,-1.2305,-1.2305,-1.2305,-1.2258,-1.2204,-1.2204,-1.2158,-1.2044,-1.1817,-1.1349,0.0,0.0,0.0,0.0,0.0,0.0,0.0,0.0,0.0,0.0,0.0,0.0,0.0,0.0,0.0,0.0,-0.8804,-0.8998,0.0,0.0,0.0,0.0,-1.0083,0.0,-1.0593,0.0,-1.0593,-1.0593,-1.0593,-1.0593,-1.0593,-1.0593,-1.0593,-1.0593,-1.0593,-1.0593,-1.0593,-1.0593,-1.0593,-1.0593,-1.0593,-1.0593,-1.0734,-1.0935,0.0,0.0,0.0,0.0,0.0,0.0,0.0,-1.5645,-1.5764,-1.5711,-1.5752,-1.5752,-1.5752,-1.5751,-1.5784,-1.5784,-1.5784,-1.5784,-1.5784,-1.5784,-1.5784,-1.5784,-1.5784,-1.5558,-1.5022,-1.4981,-1.4238,0.0,0.0,0.0,0.0,0.0,0.0,0.0,0.0,0.0,0.0,-1.2051,-1.2639,-1.32,-1.3473,-1.3766,-1.4048,-1.4075,-1.4088,-1.4048,-1.374,-1.3646,-1.356,-1.3065,-1.3038,-1.3106,-1.2525,-1.2325,-1.2305,-1.2305,-1.2305,-1.2305,-1.2305,-1.2305,-1.2305,-1.2305,-1.2305,-1.2305,-1.2305,-1.2098,-1.1946,-1.1946,-1.1697,-1.1462,-1.1435,-1.1209,-1.0808,0.0,0.0,0.0,0.0,0.0,-0.9702,-0.9646,0.0,0.0,0.0,0.0,0.0,0.0,0.0,0.0,0.0,-0.8831,0.0,-0.9204,0.0,-0.9846,-1.0114,-1.0445,0.0,-1.0593,-1.0593,-1.0593,-1.0593,-1.0593,-1.0593,-1.0593,-1.0593,-1.0593,-1.0593,-1.0593,-1.0593,-1.0593,-1.0593,-1.0593,-1.0593,-1.0593,-1.0613,-1.0633,0.0,0.0,0.0,0.0,0.0,0.0,0.0,-1.5752,-1.5784,-1.5784,-1.5784,-1.5784,-1.5784,-1.5784,-1.5784,-1.5784,-1.5784,-1.5784,-1.5784,-1.5784,-1.5784,-1.5784,-1.5784,-1.5558,-1.5022,-1.5008,-1.4372,0.0,0.0,0.0,0.0,0.0,0.0,0.0,0.0,-1.157,-1.2004,-1.2741,-1.3207,-1.3453,-1.3794,-1.3981,-1.4088,-1.4088,-1.4088,-1.4075,-1.3955,-1.3908,-1.3848,-1.3427,-1.3126,-1.2898,-1.2432,-1.2305,-1.2305,-1.2305,-1.2305,-1.2305,-1.2305,-1.2305,-1.2305,-1.2305,-1.2305,-1.2258,-1.2084,-1.1986,-1.1852,-1.1637,-1.1369,-1.1223,-1.1362,-1.1049,-1.0747,0.0,0.0,0.0,0.0,0.0,0.0,-0.9706,0.0,-0.9098,0.0,0.0,0.0,0.0,0.0,0.0,0.0,0.0,0.0,-0.8951,0.0,-0.9653,-0.9564,-1.0234,-1.0506,-1.0294,-1.0506,-1.0593,-1.0593,-1.0593,-1.0593,-1.0593,-1.0593,-1.0593,-1.0593,-1.0593,-1.0593,-1.0593,-1.0593,-1.0593,-1.0593,-1.0593,-1.0593,-1.0593,-1.5784,0.0,-1.5344,0.0,-1.5491,-1.5357,-1.5718,-1.5784,-1.5784,-1.5784,-1.5784,-1.5784,-1.5784,-1.5784,-1.5784,-1.5784,-1.5784,-1.5784,-1.5784,-1.5784,-1.5784,-1.5784,-1.5698,0.0,-1.5022,-1.4877,-1.4342,-1.334,-1.3033,0.0,0.0,0.0,0.0,0.0,-1.198,-1.2328,-1.2619,-1.33,-1.36,-1.3626,-1.3968,-1.4088,-1.4088,-1.4088,-1.4088,-1.4075,-1.3988,-1.3955,-1.3908,-1.3573,-1.3233,-1.2871,-1.2563,-1.2432,-1.2418,-1.2325,-1.2305,-1.2305,-1.2305,-1.2305,-1.2305,-1.2305,-1.2305,-1.2225,-1.1973,-1.1839,-1.1657,-1.1356,-1.1069,-1.0955,-1.1243,-1.0895,-1.0633,0.0,0.0,0.0,0.0,0.0,0.0,0.0,-0.9345,-0.9004,-0.8831,0.0,0.0,0.0,0.0,0.0,0.0,0.0,0.0,0.0,0.0,0.0,0.0,0.0,-1.0486,-1.0247,-1.0492,-1.0593,-1.0593,-1.0593,-1.0593,-1.0593,-1.0593,-1.0593,-1.0593,-1.0593,-1.0593,-1.0593,-1.0593,-1.0593,-1.0593,-1.0593,-1.0593,-1.0593,-1.5784,-1.5771,-1.5771,-1.5784,-1.5771,-1.5771,-1.5784,-1.5784,-1.5784,-1.5784,-1.5784,-1.5784,-1.5784,-1.5784,-1.5784,-1.5784,-1.5784,-1.5784,-1.5784,-1.5784,-1.5784,0.0,0.0,-1.5264,-1.5015,-1.4676,-1.4193,-1.36,0.0,0.0,-1.2764,0.0,0.0,-1.2764,-1.2808,-1.2945,-1.322,-1.3473,-1.36,-1.3626,-1.3968,-1.4088,-1.4088,-1.4088,-1.4088,-1.4048,-1.3713,-1.3606,-1.356,-1.3313,-1.3213,-1.3153,-1.2878,-1.2777,-1.2723,-1.2385,-1.2305,-1.2305,-1.2305,-1.2305,-1.2305,-1.2305,-1.2305,-1.2225,-1.1973,-1.1643,-1.1315,-1.1056,-1.0801,-1.0687,-1.0949,-1.0787,-1.0492,-1.0174,0.0,0.0,0.0,0.0,0.0,0.0,-0.9172,-0.8811,-0.8804,0.0,0.0,0.0,0.0,0.0,0.0,0.0,0.0,-0.8804,-0.9379,0.0,-0.9679,-1.0298,-1.0593,-1.0586,-1.0593,-1.0593,-1.0593,-1.0593,-1.0593,-1.0593,-1.0593,-1.0593,-1.0593,-1.0593,-1.0593,-1.0593,-1.0593,-1.0593,-1.0593,-1.0593,-1.0593,-1.0593,-1.5784,-1.5784,-1.5784,-1.5784,-1.5784,-1.5784,-1.5784,-1.5784,-1.5784,-1.5784,-1.5784,-1.5784,-1.5784,-1.5784,-1.5784,0.0,-1.5784,-1.5784,0.0,-1.5784,-1.5784,-1.5784,-1.5738,-1.5464,-1.5022,-1.4914,-1.4536,-1.3948,0.0,0.0,0.0,-1.2966,-1.2973,-1.3073,-1.3267,-1.3373,-1.3487,-1.3821,-1.3948,-1.3955,-1.4048,-1.4088,-1.4088,-1.4088,-1.4088,-1.4075,-1.3981,-1.3948,-1.3935,-1.3841,-1.3808,-1.3754,-1.3454,-1.3073,-1.2764,-1.267,-1.2496,-1.2305,-1.2305,-1.2305,-1.2305,-1.2305,-1.2305,-1.2171,-1.1677,-1.1189,-1.0841,-1.0747,-1.066,-1.062,-1.0713,-1.0653,-1.0566,-1.0466,0.0,0.0,0.0,0.0,0.0,0.0,-0.9165,-0.8804,0.0,-0.8804,0.0,0.0,0.0,0.0,0.0,0.0,0.0,0.0,-0.9379,0.0,-0.9357,-1.0198,-1.0486,-1.0261,-1.0492,-1.0593,-1.0593,-1.0593,-1.0593,-1.0593,-1.0593,-1.0593,-1.0593,-1.0593,-1.0593,-1.0593,-1.0593,-1.0593,-1.0593,-1.0593,-1.0593,-1.0593,-1.5784,-1.5784,-1.5784,-1.5784,-1.5784,-1.5784,-1.5784,-1.5784,-1.5784,-1.5784,-1.5784,-1.5784,-1.5784,-1.5784,0.0,-1.5784,-1.5784,0.0,-1.5784,-1.5784,-1.5784,-1.5784,-1.5678,-1.5498,-1.5182,0.0,0.0,-1.4249,-1.3955,-1.3714,-1.354,-1.354,-1.354,-1.3547,-1.3728,-1.3808,-1.378,-1.4008,-1.4088,-1.4088,-1.4088,-1.4088,-1.4088,-1.4088,-1.4088,-1.4088,-1.4088,-1.4088,-1.4088,-1.4088,-1.4088,-1.4035,-1.3693,-1.3387,-1.3079,-1.2851,-1.265,-1.2445,-1.2331,-1.2305,-1.2305,-1.2305,-1.2305,-1.2151,-1.1529,-1.1062,-1.072,-1.0613,-1.0593,-1.0593,-1.0593,-1.0593,-1.0593,-1.0593,0.0,-1.0553,-1.0439,0.0,0.0,0.0,0.0,0.0,0.0,-0.9072,0.0,0.0,0.0,0.0,0.0,0.0,0.0,-0.8804,-0.9379,0.0,-0.9384,-1.0204,-1.0499,-1.0287,-1.0506,-1.0593,-1.0593,-1.0593,-1.0593,-1.0593,-1.0593,-1.0593,-1.0593,-1.0593,-1.0593,-1.0593,-1.0593,-1.0593,-1.0593,-1.0593,-1.0593,-1.0593,-1.5784,-1.5784,0.0,0.0,-1.5784,0.0,-1.5784,-1.5784,-1.5784,-1.5784,-1.5784,-1.5784,-1.5784,-1.5784,-1.5784,-1.5784,0.0,0.0,0.0,-1.5784,-1.5784,-1.5784,-1.5571,0.0,-1.5398,-1.4843,-1.4529,-1.4489,-1.4222,-1.4088,-1.4088,-1.4088,-1.4088,-1.4088,-1.4088,-1.4088,-1.4088,-1.4088,-1.4088,-1.4088,-1.4088,-1.4088,-1.4088,-1.4088,-1.4088,-1.4088,-1.4088,-1.4088,-1.4088,-1.4088,-1.4088,-1.4041,-1.372,-1.3633,-1.3507,-1.2965,-1.2784,-1.2717,-1.2385,-1.2305,-1.2305,-1.2305,-1.2285,-1.2131,-1.1542,-1.1229,-1.0942,-1.068,-1.062,-1.062,-1.0593,-1.0593,-1.0593,-1.0593,-1.0573,-1.0466,-1.0123,0.0,0.0,0.0,0.0,0.0,0.0,-0.9499,-0.9546,0.0,0.0,0.0,0.0,0.0,0.0,-0.8838,-0.9406,-0.9742,-0.9742,-1.0305,-1.0593,-1.0593,-1.0593,-1.0593,-1.0593,-1.0593,-1.0593,-1.0593,-1.0593,-1.0593,-1.0593,-1.0593,-1.0593,-1.0593,-1.0593,-1.0593,-1.0593,-1.0593,-1.0593,-1.0593,0.0,0.0,-1.5784,-1.5784,-1.5784,-1.5784,-1.5784,-1.5784,-1.5784,-1.5784,-1.5784,-1.5784,-1.5784,-1.5784,-1.5784,-1.5784,-1.5784,-1.5784,-1.5784,-1.5784,-1.5784,-1.5784,-1.5718,-1.5625,-1.5398,-1.5044,-1.4636,-1.4188,-1.4122,-1.4088,-1.4088,-1.4088,-1.4088,-1.4088,-1.4088,-1.4088,-1.4088,-1.4088,-1.4088,-1.4088,-1.4088,-1.4088,-1.4088,-1.4088,-1.4088,-1.4088,-1.4088,-1.4088,-1.4088,-1.4088,-1.4088,-1.4075,-1.4008,-1.3981,-1.3821,-1.3025,-1.2784,-1.2717,-1.2385,-1.2305,-1.2305,-1.2305,-1.2138,-1.1973,-1.1797,-1.1536,-1.1243,-1.0949,-1.0928,-1.0854,-1.0633,-1.0593,-1.0593,-1.0593,-1.0399,-1.02,-1.0097,0.0,0.0,0.0,-0.9351,-0.9297,-0.9559,-0.9439,-0.9384,0.0,0.0,0.0,0.0,0.0,-0.9372,-0.9118,-0.9677,-1.0013,-1.0013,-1.0405,-1.0593,-1.0593,-1.0593,-1.0593,-1.0593,-1.0593,-1.0593,-1.0593,-1.0593,-1.0593,-1.0593,-1.0593,-1.0593,-1.0593,-1.0593,-1.0593,-1.0593,-1.0593,-1.0593,-1.0593,-1.5784,-1.5784,-1.5784,-1.5784,-1.5784,-1.5784,-1.5784,-1.5784,-1.5784,-1.5784,-1.5784,-1.5784,-1.5784,-1.5784,-1.5784,-1.5784,-1.5784,-1.5784,-1.5784,-1.5784,-1.5784,-1.5784,-1.5784,-1.5711,-1.5598,-1.5311,-1.4937,-1.4489,-1.4222,-1.4155,-1.4282,-1.4148,-1.4088,-1.4088,-1.4088,-1.4088,-1.4088,-1.4088,-1.4088,-1.4088,-1.4088,-1.4088,-1.4088,-1.4088,-1.4088,-1.4088,-1.4088,-1.4088,-1.4088,-1.4088,-1.4088,-1.4062,-1.3928,-1.3975,-1.3941,-1.318,-1.2998,-1.2859,-1.2425,-1.2305,-1.2305,-1.2305,-1.2184,-1.2067,-1.1933,-1.1744,-1.1543,-1.1249,-1.1189,-1.1102,-1.0847,-1.0787,-1.0747,-1.0613,-1.0452,-1.0227,-0.9953,-0.973,0.0,-0.9492,-0.955,-0.9677,-0.9866,-0.986,-0.9853,-0.988,0.0,0.0,-0.9424,-0.9719,-0.9686,-0.9224,-0.9777,-1.0083,-1.0083,-1.0445,-1.0593,-1.0593,-1.0593,-1.0593,-1.0593,-1.0593,-1.0593,-1.0593,-1.0593,-1.0593,-1.0593,-1.0593,-1.0593,-1.0593,-1.0593,-1.0593,-1.0593,-1.0593,-1.0593,-1.0593,-1.5784,-1.5784,-1.5784,-1.5784,-1.5784,-1.5784,-1.5784,-1.5784,-1.5784,-1.5784,-1.5784,-1.5784,-1.5784,-1.5784,-1.5784,-1.5784,-1.5784,-1.5784,-1.5784,-1.5784,-1.5784,-1.5784,-1.5784,-1.5784,-1.5784,-1.5545,-1.5257,-1.5008,-1.4506,-1.4322,-1.4516,-1.4269,-1.4128,-1.4088,-1.4088,-1.4088,-1.4088,-1.4088,-1.4088,-1.4088,-1.4088,-1.4088,-1.4088,-1.4088,-1.4088,-1.4088,-1.4088,-1.4088,-1.4088,-1.4088,-1.4088,-1.4041,-1.3753,-1.3881,-1.3981,-1.3434,-1.3247,-1.3086,-1.2518,-1.2338,-1.2305,-1.2305,-1.2305,-1.2238,-1.2027,-1.1973,-1.1886,-1.1557,-1.149,-1.139,-1.1056,-1.0995,-1.0882,-1.0579,-1.0526,-1.0318,-0.9699,0.0,0.0,-0.9337,-0.9757,-1.0134,-1.018,-1.0405,-1.0439,-1.02,-1.014,0.0,0.0,-1.002,-0.9903,-0.9364,-0.987,-1.018,-1.018,-1.0466,-1.0593,-1.0593,-1.0593,-1.0593,-1.0593,-1.0593,-1.0593,-1.0593,-1.0593,-1.0593,-1.0593,-1.0593,-1.0593,-1.0593,-1.0593,-1.0593,-1.0593,-1.0593,-1.0593,-1.0593,-1.5784,-1.5784,-1.5784,-1.5784,-1.5784,-1.5784,-1.5784,-1.5784,-1.5784,-1.5784,-1.5784,-1.5784,-1.5784,-1.5784,-1.5784,-1.5784,-1.5784,-1.5784,-1.5784,-1.5784,-1.5784,-1.5784,-1.5784,-1.5784,-1.5784,-1.5545,-1.5257,-1.5008,-1.4914,-1.4723,-1.4522,-1.4476,-1.4322,-1.4088,-1.4088,-1.4088,-1.4088,-1.4088,-1.4088,-1.4088,-1.4088,-1.4088,-1.4088,-1.4088,-1.4088,-1.4088,-1.4088,-1.4088,-1.4088,-1.4088,-1.4088,-1.4082,-1.4035,-1.4048,-1.4021,-1.364,-1.336,-1.3133,-1.2811,-1.2529,-1.2305,-1.2305,-1.2305,-1.2291,-1.2245,-1.2231,-1.2151,-1.1899,-1.1832,-1.1637,-1.1089,-1.0995,-1.0815,-1.0274,-1.0187,-0.998,0.0,0.0,-0.9713,-0.9626,-0.9913,-1.0214,-1.0499,-1.0307,-1.0274,-1.0506,-1.0254,-1.007,-1.0053,-1.0365,-1.0334,-0.9963,-1.0345,-1.0519,-1.0519,-1.0566,-1.0593,-1.0593,-1.0593,-1.0593,-1.0593,-1.0593,-1.0593,-1.0593,-1.0593,-1.0593,-1.0593,-1.0593,-1.0593,-1.0593,-1.0593,-1.0593,-1.0593,-1.0593,-1.0593,-1.0593,-1.48,-1.5337,-1.5784,-1.5784,-1.5784,-1.5784,-1.5784,-1.5784,-1.5784,-1.5784,-1.5784,-1.5784,-1.5784,-1.5784,-1.5784,-1.5784,-1.5784,-1.5784,-1.5784,-1.5784,-1.5784,-1.5784,-1.5784,-1.5784,-1.5784,-1.5545,-1.5404,-1.5431,-1.5162,-1.497,-1.499,-1.483,-1.4603,-1.4322,-1.4322,-1.4235,-1.4088,-1.4088,-1.4175,-1.4309,-1.4148,-1.4182,-1.4302,-1.4148,-1.4088,-1.4088,-1.4088,-1.4088,-1.4088,-1.4088,-1.4088,-1.4088,-1.4088,-1.4088,-1.4062,-1.3921,-1.3447,-1.2931,-1.263,-1.2405,-1.2305,-1.2305,-1.2305,-1.2305,-1.2305,-1.2305,-1.2265,-1.2131,-1.2104,-1.1971,-1.1543,-1.1336,-1.1089,-1.0655,-1.0454,0.0,0.0,-0.9967,-1.0124,-0.9933,-1.0174,-1.0439,-1.0579,-1.0466,-1.0445,-1.0579,-1.0466,-1.0354,-1.0354,-1.0519,-1.0526,-1.0361,-1.0519,-1.0593,-1.0593,-1.0593,-1.0593,-1.0593,-1.0593,-1.0593,-1.0593,-1.0593,-1.0593,-1.0593,-1.0593,-1.0593,-1.0593,-1.0593,-1.0593,-1.0593,-1.0593,-1.0593,-1.0593,-1.0593,-1.0593,-1.0593,-1.344,-1.422,-1.5003,-1.5289,-1.5343,-1.5439,-1.573,-1.5784,-1.5784,-1.5784,-1.5784,-1.5784,-1.5784,-1.5784,-1.5784,-1.5784,-1.5784,-1.5784,-1.5784,-1.5784,-1.5784,-1.5784,-1.5784,-1.5784,-1.5784,-1.5611,-1.5605,-1.5784,-1.5384,-1.5244,-1.5391,-1.517,-1.4903,-1.4623,-1.4549,-1.4396,-1.4182,-1.4115,-1.4255,-1.4496,-1.4202,-1.4262,-1.4489,-1.4202,-1.4088,-1.4088,-1.4088,-1.4088,-1.4088,-1.4088,-1.4088,-1.4088,-1.4088,-1.4088,-1.4088,-1.4088,-1.3541,-1.2824,-1.2485,-1.2351,-1.2305,-1.2305,-1.2305,-1.2305,-1.2305,-1.2305,-1.2305,-1.2305,-1.2305,-1.2211,-1.196,-1.1623,-1.1275,-1.0949,0.0,0.0,0.0,-1.0358,-1.0479,-1.0154,-1.0412,-1.0593,-1.0593,-1.0593,-1.0593,-1.0593,-1.0593,-1.0566,-1.0492,-1.0486,-1.0486,-1.0486,-1.0553,-1.0593,-1.0593,-1.0593,-1.0593,-1.0593,-1.0593,-1.0593,-1.0593,-1.0593,-1.0593,-1.0593,-1.0593,-1.0593,-1.0593,-1.0593,-1.0593,-1.0593,-1.0593,-1.0593,-1.0593,-1.0593,-1.0593,-1.0593,-1.2042,-1.2139,-1.2576,-1.383,-1.4022,-1.4459,-1.5635,-1.5784,-1.5784,-1.5784,-1.5784,-1.5784,-1.5784,-1.5784,-1.5784,-1.5784,-1.5784,-1.5784,-1.5784,-1.5784,-1.5784,-1.5784,-1.5784,-1.5784,-1.5784,-1.5758,-1.5758,-1.5784,-1.5738,-1.5638,-1.5398,-1.5378,-1.5211,-1.4961,-1.4643,-1.4509,-1.4469,-1.4202,-1.4255,-1.4496,-1.4202,-1.4262,-1.4489,-1.4202,-1.4088,-1.4088,-1.4088,-1.4088,-1.4088,-1.4088,-1.4088,-1.4088,-1.4088,-1.4088,-1.4088,-1.4088,-1.3654,-1.3113,-1.2837,-1.2549,-1.2305,-1.2305,-1.2305,-1.2305,-1.2305,-1.2305,-1.2305,-1.2305,-1.2305,-1.2211,-1.196,-1.1623,-1.1243,-1.0713,0.0,0.0,-0.9829,-1.0231,-1.0479,-1.0154,-1.0412,-1.0593,-1.0593,-1.0593,-1.0593,-1.0593,-1.0593,-1.0472,-1.0167,-1.0147,-1.0147,-1.0147,-1.0445,-1.0593,-1.0593,-1.0593,-1.0593,-1.0593,-1.0593,-1.0593,-1.0593,-1.0593,-1.0593,-1.0593,-1.0593,-1.0593,-1.0593,-1.0593,-1.0593,-1.0593,-1.0593,-1.0593,-1.0593,-1.0593,-1.0593,-1.0593,-1.073,-1.1361,-1.2042,-1.2576,-1.2668,-1.3108,-1.4411,-1.4609,-1.4902,-1.5683,-1.5784,-1.5784,-1.5784,-1.5784,-1.5784,-1.5784,-1.5784,-1.5439,-1.4657,-1.4609,-1.4949,-1.5784,-1.5784,-1.5784,-1.5784,-1.5784,-1.5784,-1.5784,-1.5784,-1.5772,-1.5665,-1.5665,-1.5504,-1.5217,-1.4923,-1.4696,-1.4502,-1.4208,-1.4255,-1.4496,-1.4202,-1.4262,-1.4489,-1.4202,-1.4088,-1.4088,-1.4088,-1.4088,-1.4088,-1.4088,-1.4088,-1.4088,-1.4088,-1.4088,-1.4088,-1.4088,-1.3667,-1.3186,-1.3066,-1.2672,-1.2305,-1.2305,-1.2305,-1.2305,-1.2305,-1.2305,-1.2305,-1.2305,-1.2305,-1.2271,-1.2158,-1.175,-1.1322,-1.1136,0.0,-1.0317,-0.9569,-0.9655,-0.9551,-0.8868,-0.8911,-0.9,-0.9,-0.9492,-0.9786,-0.9786,-1.0301,-1.0546,-1.0432,-1.0419,-1.0419,-1.0419,-1.0533,-1.0593,-1.0593,-1.0593,-1.0593,-1.0593,-1.0593,-1.0593,-1.0593,-1.0593,-1.0593,-1.0593,-1.0593,-1.0593,-1.0593,-1.0593,-1.0593,-1.0593,-1.0593,-1.0593,-1.0593,-1.0593,-1.0593,-1.0593,-0.9361,-1.0096,-1.0828,-1.1219,-1.1317,-1.175,-1.3054,-1.3247,-1.359,-1.4465,-1.4567,-1.4567,-1.4567,-1.4567,-1.4567,-1.4567,-1.4567,-1.422,-1.3343,-1.3247,-1.3638,-1.4519,-1.4567,-1.4567,-1.4567,-1.4567,-1.4567,-1.4567,-1.4567,-1.4567,-1.4567,-1.4567,-1.4706,-1.4892,-1.4527,-1.448,-1.4636,-1.4249,-1.4255,-1.4502,-1.4302,-1.4396,-1.4636,-1.4436,-1.4309,-1.4222,-1.4222,-1.4162,-1.4088,-1.4088,-1.4088,-1.4088,-1.4088,-1.4088,-1.4088,-1.4088,-1.3667,-1.3213,-1.3213,-1.2766,-1.2305,-1.2305,-1.2305,-1.2305,-1.2305,-1.2305,-1.2305,-1.2305,-1.2305,-1.2198,-1.1849,-1.1327,-1.087,-1.0536,-1.0071,-0.9582,-0.8973,-0.8877,-0.8683,-0.8059,-0.8253,-0.842,-0.842,-0.9198,-0.9722,-0.9722,-1.0269,-1.0553,-1.0459,-1.0452,-1.0452,-1.0452,-1.0546,-1.0593,-1.0593,-1.0593,-1.0593,-1.0593,-1.0593,-1.0593,-1.0593,-1.0593,-1.0593,-1.0593,-1.0593,-1.0593,-1.0593,-1.0593,-1.0593,-1.0593,-1.0593,-1.0593,-1.0593,-1.0593,-1.0593,-1.0593,-0.7988,-0.7988,-0.8432,-0.9752,-0.9998,-1.0386,-1.1707,-1.1896,-1.1896,-1.1896,-1.1896,-1.1896,-1.1896,-1.1896,-1.1896,-1.1896,-1.1896,-1.1896,-1.1896,-1.1901,-1.1853,-1.1853,-1.1896,-1.1896,-1.1896,-1.1896,-1.1896,-1.1896,-1.1896,-1.1901,-1.1901,-1.1901,-1.2619,-1.3903,-1.3286,-1.3755,-1.4975,-1.4342,-1.4255,-1.4479,-1.4522,-1.4696,-1.5008,-1.5008,-1.4776,-1.4522,-1.4522,-1.4335,-1.4088,-1.4088,-1.4088,-1.4088,-1.4088,-1.4088,-1.4088,-1.4088,-1.3667,-1.3213,-1.3213,-1.2772,-1.2305,-1.2305,-1.2305,-1.2305,-1.2305,-1.2298,-1.2298,-1.2298,-1.2268,-1.1911,-1.0797,-1.0313,-0.9737,-0.8596,-0.8169,-0.7994,-0.7994,-0.7994,-0.7994,-0.7994,-0.8748,-0.9274,-0.9268,-1.0079,-1.0593,-1.0593,-1.0593,-1.0434,-1.0103,-1.009,-1.009,-1.009,-1.0408,-1.0593,-1.0593,-1.0593,-1.0593,-1.0593,-1.0593,-1.0593,-1.0586,-1.0586,-1.0586,-1.0586,-1.0586,-1.0586,-1.0586,-1.0593,-1.0593,-1.0593,-1.0593,-1.0593,-1.0593,-1.0593,-1.0593,-1.0593,-0.7988,-0.7988,-0.8137,-0.8531,-0.8577,-0.9019,-1.0386,-1.0583,-1.0877,-1.1799,-1.1896,-1.1896,-1.1896,-1.1896,-1.1896,-1.1896,-1.1896,-1.1507,-1.0632,-0.9702,-0.9164,-0.9164,-1.0921,-1.1896,-1.1896,-1.1896,-1.1896,-1.1896,-1.1896,-1.2382,-1.3295,-1.3295,-1.3974,-1.5216,-1.4656,-1.4747,-1.5217,-1.4422,-1.4376,-1.481,-1.4603,-1.4696,-1.5008,-1.5008,-1.4776,-1.4522,-1.4522,-1.4335,-1.4088,-1.4088,-1.4088,-1.4088,-1.4088,-1.4088,-1.4088,-1.4088,-1.3814,-1.3473,-1.3473,-1.3073,-1.2603,-1.2351,-1.2305,-1.2305,-1.2305,-1.1731,-1.1242,-1.1242,-1.0683,-1.0049,-0.9625,-0.9275,-0.8901,-0.8461,-0.8169,-0.78,-0.7177,-0.76,-0.7762,-0.7177,-0.7859,-0.8156,-0.7535,-0.8807,-0.9428,-0.8839,-0.9326,-0.936,-0.8669,-0.8626,-0.8626,-0.8626,-0.8736,-0.8769,-0.8769,-1.0002,-1.0593,-1.0593,-1.0593,-1.0479,-1.0247,-1.0247,-1.014,-0.999,-1.016,-1.0247,-1.0267,-1.0506,-1.0593,-1.0593,-1.0593,-1.0593,-1.0593,-1.0593,-1.0593,-1.0593,-0.7988,-0.7988,-0.7988,-0.7988,-0.7988,-0.8283,-0.9069,-0.9217,-0.946,-1.0239,-1.0337,-1.0337,-1.0337,-1.0337,-1.0337,-1.0337,-1.0337,-1.0047,-0.9262,-0.8432,-0.7988,-0.7988,-0.9505,-1.0337,-1.0337,-1.0337,-1.0337,-1.0337,-1.0337,-1.0774,-1.1595,-1.1595,-1.2517,-1.4256,-1.3827,-1.4226,-1.519,-1.4663,-1.4569,-1.4796,-1.4843,-1.4977,-1.515,-1.5264,-1.505,-1.4696,-1.4696,-1.4436,-1.4088,-1.4088,-1.4088,-1.4088,-1.4088,-1.4088,-1.4088,-1.4088,-1.3535,-1.2924,-1.2924,-1.2262,-1.1504,-1.1279,-1.1434,-1.1694,-1.1694,-1.0944,-1.019,-1.019,-0.9707,-0.9118,-0.8558,-0.8305,-0.7983,-0.7391,-0.7147,-0.6846,-0.628,-0.6629,-0.6793,-0.6235,-0.6953,-0.7274,-0.6752,-0.7962,-0.8581,-0.8027,-0.8484,-0.8549,-0.8027,-0.7994,-0.7994,-0.7994,-0.8318,-0.8517,-0.8517,-0.9907,-1.0428,-1.0072,-0.9957,-1.0024,-1.0281,-1.0053,-0.9913,-0.9866,-1.004,-1.0083,-1.014,-1.0472,-1.0593,-1.0593,-1.0593,-1.0593,-1.0593,-1.0593,-1.0593,-1.0593,-0.7988,-0.7988,-0.7988,-0.7988,-0.7988,-0.7988,-0.7988,-0.7988,-0.7988,-0.7988,-0.7988,-0.7988,-0.7988,-0.7988,-0.7988,-0.7988,-0.7988,-0.7988,-0.7988,-0.7988,-0.7988,-0.7988,-0.7988,-0.7988,-0.7988,-0.7988,-0.7988,-0.7988,-0.7988,-0.8038,-0.8184,-0.8173,-0.9493,-1.1886,-1.1635,-1.2742,-1.4895,-1.4849,-1.4747,-1.4683,-1.519,-1.5411,-1.5464,-1.5732,-1.5484,-1.4997,-1.488,-1.4559,-1.4122,-1.3962,-1.387,-1.3779,-1.3779,-1.3779,-1.3779,-1.3779,-1.2859,-1.1768,-1.1768,-1.0805,-0.9731,-0.9602,-1.0066,-1.0588,-1.064,-0.9895,-0.915,-0.915,-0.9107,-0.8703,-0.7566,-0.7347,-0.6977,-0.5808,-0.5589,-0.5538,-0.5416,-0.5458,-0.5524,-0.5524,-0.6301,-0.6785,-0.6719,-0.7405,-0.7897,-0.7897,-0.7897,-0.7864,-0.7767,-0.7767,-0.78,-0.7897,-0.8651,-0.9107,-0.9172,-0.9977,-1.0028,-0.9366,-0.9073,-0.9463,-1.0459,-0.995,-0.9813,-1.001,-1.0094,-1.0083,-1.014,-1.0472,-1.0593,-1.0593,-1.0593,-1.0593,-1.0593,-1.0593,-1.0593,-1.0593,-0.7988,-0.7988,-0.7988,-0.7988,-0.7988,-0.7988,-0.7988,-0.7988,-0.7988,-0.7988,-0.7988,-0.7988,-0.7988,-0.7988,-0.7988,-0.7988,-0.7988,-0.7988,-0.7988,-0.7988,-0.7988,-0.7988,-0.7988,-0.7988,-0.7988,-0.7988,-0.7988,-0.7988,-0.7988,-0.8531,-0.9554,-0.9462,-1.029,-1.1881,-1.1531,-1.2357,-1.4116,-1.3606,-1.4245,-1.5491,-1.5438,-1.5531,-1.5745,-1.5758,-1.5611,-1.5179,-1.3977,-1.3958,-1.4259,-1.3095,-1.212,-1.1343,-1.1343,-1.1343,-1.1343,-1.1343,-1.1134,-1.0877,-1.0877,-1.0505,-1.0071,-1.0068,-0.9316,-0.8796,-0.9483,-0.8841,-0.8122,-0.8122,-0.7518,-0.682,-0.6387,-0.6321,-0.6148,-0.5672,-0.5589,-0.5538,-0.5416,-0.5976,-0.6429,-0.6429,-0.7177,-0.7437,-0.6752,-0.6883,-0.6981,-0.6981,-0.6981,-0.6691,-0.6013,-0.5951,-0.6272,-0.6948,-0.7177,-0.76,-0.8291,-0.8479,-0.9029,-0.9931,-0.9866,-0.9722,-0.9504,-0.9633,-0.9593,-0.9424,-0.9884,-1.0083,-1.014,-1.0472,-1.0593,-1.0593,-1.0593,-1.0593,-1.0593,-1.0593,-1.0593,-1.0593,-0.7988,-0.7988,-0.7988,-0.7988,-0.7988,-0.7988,-0.7988,-0.7988,-0.7988,-0.7988,-0.7988,-0.7988,-0.7988,-0.7988,-0.7988,-0.7988,-0.7988,-0.7988,-0.7988,-0.7988,-0.7988,-0.7988,-0.7988,-0.7988,-0.7988,-0.7988,-0.7988,-0.7988,-0.7988,-0.8382,-0.9069,-0.8977,-0.9661,-1.0965,-1.0747,-1.1472,-1.2723,-1.2545,-1.2944,-1.3738,-1.3738,-1.3814,-1.3932,-1.3932,-1.3773,-1.3409,-1.2608,-1.2422,-1.2522,-1.1774,-1.1085,-1.0611,-1.0611,-1.0611,-1.0611,-1.0611,-1.0221,-0.9792,-0.9792,-0.9281,-0.8713,-0.8632,-0.7982,-0.7616,-0.8494,-0.7842,-0.7099,-0.7099,-0.6679,-0.6276,-0.6156,-0.6139,-0.604,-0.5739,-0.5691,-0.5613,-0.5426,-0.5782,-0.6075,-0.6075,-0.6465,-0.6568,-0.6141,-0.6075,-0.6075,-0.6075,-0.6075,-0.5881,-0.5428,-0.5395,-0.5624,-0.6075,-0.6494,-0.6872,-0.7232,-0.775,-0.8216,-0.8687,-0.908,-0.9494,-0.986,-0.9593,-0.9511,-0.9644,-0.995,-1.0083,-1.014,-1.0472,-1.0593,-1.0593,-1.0593,-1.0593,-1.0593,-1.0593,-1.0593,-1.0593,-0.7988,-0.7988,-0.7988,-0.7988,-0.7988,-0.7988,-0.7988,-0.7988,-0.7988,-0.7988,-0.7988,-0.7988,-0.7988,-0.7988,-0.7988,-0.7988,-0.7988,-0.7988,-0.7988,-0.7988,-0.7988,-0.7988,-0.7988,-0.7988,-0.7988,-0.7988,-0.7988,-0.7988,-0.7988,-0.7988,-0.7988,-0.7965,-0.8552,-0.9653,-0.9624,-1.0215,-1.1239,-1.1477,-1.1545,-1.1577,-1.1821,-1.1896,-1.1896,-1.1896,-1.1776,-1.1532,-1.1182,-1.06,-1.0062,-1.0275,-1.0207,-1.0005,-1.0005,-1.0005,-1.0005,-1.0005,-0.9318,-0.8584,-0.8584,-0.7841,-0.7068,-0.695,-0.6831,-0.687,-0.7616,-0.7003,-0.63,-0.63,-0.63,-0.63,-0.63,-0.63,-0.6207,-0.5884,-0.584,-0.5739,-0.5477,-0.5433,-0.5426,-0.5399,-0.5395,-0.5395,-0.5395,-0.5395,-0.5395,-0.5395,-0.5395,-0.5395,-0.5395,-0.5395,-0.5458,-0.562,-0.6334,-0.6679,-0.6687,-0.755,-0.7751,-0.7264,-0.7935,-0.8842,-0.996,-0.9307,-0.924,-0.9642,-0.9814,-0.9803,-0.9701,-1.0014,-1.0231,-1.0364,-1.0199,-1.0333,-1.0593,-1.0593,-1.0593,-1.0593,-0.7988,-0.7988,-0.7988,-0.7988,-0.7988,-0.7988,-0.7988,-0.7988,-0.7988,-0.7988,-0.7988,-0.7988,-0.7988,-0.7988,-0.7988,-0.7988,-0.7988,-0.7988,-0.7988,-0.7988,-0.7988,-0.7988,-0.7988,-0.7988,-0.7988,-0.7988,-0.7988,-0.7988,-0.7988,-0.7988,-0.7985,-0.7902,-0.8007,-0.828,-0.814,-0.8867,-1.0204,-1.023,-1.0858,-1.1851,-1.1886,-1.1896,-1.1896,-1.1896,-1.1881,-1.1676,-1.0462,-0.9072,-0.7967,-0.8984,-0.8524,-0.7577,-0.7577,-0.7577,-0.7577,-0.7577,-0.7445,-0.736,-0.736,-0.7228,-0.7092,-0.7071,-0.6905,-0.6736,-0.6836,-0.6574,-0.63,-0.63,-0.63,-0.63,-0.63,-0.63,-0.6242,-0.6027,-0.5959,-0.5895,-0.5599,-0.5559,-0.5542,-0.5412,-0.5395,-0.5395,-0.5395,-0.5395,-0.5395,-0.5395,-0.5395,-0.5395,-0.5395,-0.5395,-0.5749,-0.6494,-0.6654,-0.7065,-0.7787,-0.7914,-0.7948,-0.7889,-0.7695,-0.7531,-0.7415,-0.8039,-0.8086,-0.7733,-0.8605,-0.8611,-0.8042,-0.8249,-0.8807,-0.9396,-0.8646,-0.9256,-1.0593,-1.0593,-1.0593,-1.0593,-0.7988,-0.7988,-0.7988,-0.7988,-0.7988,-0.7988,-0.7988,-0.7988,-0.7988,-0.7988,-0.7988,-0.7988,-0.7988,-0.7988,-0.7988,-0.7988,-0.7988,-0.7988,-0.7988,-0.7988,-0.7988,-0.7988,-0.7988,-0.7988,-0.7988,-0.7988,-0.7988,-0.7988,-0.7988,-0.7988,-0.7988,-0.7921,-0.7924,-0.7985,-0.7921,-0.8269,-0.8874,-0.8874,-0.9213,-0.9702,-0.9702,-0.9702,-0.9702,-0.9702,-0.9702,-0.9629,-0.8922,-0.8135,-0.7461,-0.7996,-0.7665,-0.7095,-0.7095,-0.7095,-0.7095,-0.7095,-0.7095,-0.7095,-0.7095,-0.7095,-0.7095,-0.7095,-0.694,-0.6807,-0.6719,-0.6532,-0.6395,-0.6317,-0.63,-0.63,-0.63,-0.63,-0.6248,-0.6016,-0.5993,-0.5919,-0.5739,-0.564,-0.5535,-0.5412,-0.5395,-0.5395,-0.5395,-0.5395,-0.5395,-0.5395,-0.5395,-0.5395,-0.5395,-0.5395,-0.5591,-0.598,-0.5976,-0.6094,-0.6378,-0.6481,-0.6464,-0.6264,-0.6186,-0.6569,-0.7355,-0.7584,-0.7624,-0.7537,-0.8003,-0.8064,-0.7879,-0.7948,-0.8221,-0.8581,-0.8678,-0.9486,-1.0593,-1.0593,-1.0593,-1.0593]}]]